<?xml version="1.0" encoding="UTF-8" standalone="no" ?>
<gpx xmlns="http://www.topografix.com/GPX/1/1" xmlns:xsi="http://www.w3.org/2001/XMLSchema-instance" xsi:schemaLocation="http://www.topografix.com/GPX/1/1 http://www.topografix.com/GPX/1/1/gpx.xsd" version="1.1" creator="VisuGPX - https://www.visugpx.com">
  <metadata>
    <name>Tête de Fin Fond</name>
    <desc><![CDATA[En boucle par Ste la Condamine]]></desc>
  </metadata>
  <trk>
    <name><![CDATA[TETE FIN FOND]]></name>
    <trkseg>
      <trkpt lat="44.46658" lon="6.72142">
        <ele>1747.81</ele>
        <time>2011-03-22T07:46:13Z</time>
      </trkpt>
      <trkpt lat="44.46658" lon="6.72142">
        <ele>1747.81</ele>
        <time>2011-03-22T07:46:14Z</time>
      </trkpt>
      <trkpt lat="44.46657" lon="6.72143">
        <ele>1753.1</ele>
        <time>2011-03-22T07:46:18Z</time>
      </trkpt>
      <trkpt lat="44.46657" lon="6.72143">
        <ele>1758.39</ele>
        <time>2011-03-22T07:46:20Z</time>
      </trkpt>
      <trkpt lat="44.46657" lon="6.72143">
        <ele>1763.2</ele>
        <time>2011-03-22T07:46:22Z</time>
      </trkpt>
      <trkpt lat="44.46657" lon="6.72144">
        <ele>1767.52</ele>
        <time>2011-03-22T07:46:24Z</time>
      </trkpt>
      <trkpt lat="44.46657" lon="6.72144">
        <ele>1770.41</ele>
        <time>2011-03-22T07:46:25Z</time>
      </trkpt>
      <trkpt lat="44.46657" lon="6.72144">
        <ele>1773.29</ele>
        <time>2011-03-22T07:46:27Z</time>
      </trkpt>
      <trkpt lat="44.46657" lon="6.72144">
        <ele>1777.61</ele>
        <time>2011-03-22T07:46:29Z</time>
      </trkpt>
      <trkpt lat="44.46657" lon="6.72143">
        <ele>1781.46</ele>
        <time>2011-03-22T07:46:31Z</time>
      </trkpt>
      <trkpt lat="44.46657" lon="6.72143">
        <ele>1784.82</ele>
        <time>2011-03-22T07:46:33Z</time>
      </trkpt>
      <trkpt lat="44.46658" lon="6.72136">
        <ele>1787.71</ele>
        <time>2011-03-22T07:46:35Z</time>
      </trkpt>
      <trkpt lat="44.4666" lon="6.72135">
        <ele>1792.52</ele>
        <time>2011-03-22T07:46:38Z</time>
      </trkpt>
      <trkpt lat="44.4666" lon="6.72134">
        <ele>1795.4</ele>
        <time>2011-03-22T07:46:40Z</time>
      </trkpt>
      <trkpt lat="44.4666" lon="6.72134">
        <ele>1799.24</ele>
        <time>2011-03-22T07:46:43Z</time>
      </trkpt>
      <trkpt lat="44.46659" lon="6.72134">
        <ele>1802.61</ele>
        <time>2011-03-22T07:46:46Z</time>
      </trkpt>
      <trkpt lat="44.46659" lon="6.72135">
        <ele>1806.45</ele>
        <time>2011-03-22T07:46:49Z</time>
      </trkpt>
      <trkpt lat="44.46659" lon="6.72135">
        <ele>1809.82</ele>
        <time>2011-03-22T07:46:53Z</time>
      </trkpt>
      <trkpt lat="44.46659" lon="6.72135">
        <ele>1814.15</ele>
        <time>2011-03-22T07:46:58Z</time>
      </trkpt>
      <trkpt lat="44.46658" lon="6.72136">
        <ele>1817.51</ele>
        <time>2011-03-22T07:47:03Z</time>
      </trkpt>
      <trkpt lat="44.46658" lon="6.72136">
        <ele>1820.87</ele>
        <time>2011-03-22T07:47:08Z</time>
      </trkpt>
      <trkpt lat="44.46658" lon="6.72137">
        <ele>1821.35</ele>
        <time>2011-03-22T07:47:10Z</time>
      </trkpt>
      <trkpt lat="44.46658" lon="6.72137">
        <ele>1823.76</ele>
        <time>2011-03-22T07:47:14Z</time>
      </trkpt>
      <trkpt lat="44.46658" lon="6.72137">
        <ele>1829.53</ele>
        <time>2011-03-22T07:47:21Z</time>
      </trkpt>
      <trkpt lat="44.46658" lon="6.72137">
        <ele>1828.08</ele>
        <time>2011-03-22T07:47:22Z</time>
      </trkpt>
      <trkpt lat="44.46659" lon="6.72138">
        <ele>1830.97</ele>
        <time>2011-03-22T07:47:29Z</time>
      </trkpt>
      <trkpt lat="44.4666" lon="6.72138">
        <ele>1827.6</ele>
        <time>2011-03-22T07:47:33Z</time>
      </trkpt>
      <trkpt lat="44.4666" lon="6.72138">
        <ele>1831.93</ele>
        <time>2011-03-22T07:47:34Z</time>
      </trkpt>
      <trkpt lat="44.46661" lon="6.72138">
        <ele>1834.81</ele>
        <time>2011-03-22T07:47:52Z</time>
      </trkpt>
      <trkpt lat="44.46661" lon="6.72138">
        <ele>1830.49</ele>
        <time>2011-03-22T07:47:54Z</time>
      </trkpt>
      <trkpt lat="44.46661" lon="6.72138">
        <ele>1834.33</ele>
        <time>2011-03-22T07:47:55Z</time>
      </trkpt>
      <trkpt lat="44.46661" lon="6.72138">
        <ele>1830.97</ele>
        <time>2011-03-22T07:48:22Z</time>
      </trkpt>
      <trkpt lat="44.46661" lon="6.72138">
        <ele>1836.74</ele>
        <time>2011-03-22T07:48:23Z</time>
      </trkpt>
      <trkpt lat="44.4666" lon="6.72139">
        <ele>1834.81</ele>
        <time>2011-03-22T07:48:46Z</time>
      </trkpt>
      <trkpt lat="44.4666" lon="6.72139">
        <ele>1834.33</ele>
        <time>2011-03-22T07:49:07Z</time>
      </trkpt>
      <trkpt lat="44.4666" lon="6.72139">
        <ele>1834.33</ele>
        <time>2011-03-22T07:49:37Z</time>
      </trkpt>
      <trkpt lat="44.4666" lon="6.72139">
        <ele>1834.33</ele>
        <time>2011-03-22T07:50:08Z</time>
      </trkpt>
      <trkpt lat="44.46659" lon="6.7214">
        <ele>1835.29</ele>
        <time>2011-03-22T07:50:39Z</time>
      </trkpt>
      <trkpt lat="44.46659" lon="6.72139">
        <ele>1831.45</ele>
        <time>2011-03-22T07:50:44Z</time>
      </trkpt>
      <trkpt lat="44.46659" lon="6.72139">
        <ele>1836.26</ele>
        <time>2011-03-22T07:50:45Z</time>
      </trkpt>
      <trkpt lat="44.46658" lon="6.72136">
        <ele>1835.77</ele>
        <time>2011-03-22T07:51:02Z</time>
      </trkpt>
      <trkpt lat="44.46658" lon="6.72136">
        <ele>1835.29</ele>
        <time>2011-03-22T07:51:27Z</time>
      </trkpt>
      <trkpt lat="44.46662" lon="6.72138">
        <ele>1835.77</ele>
        <time>2011-03-22T07:51:40Z</time>
      </trkpt>
      <trkpt lat="44.46681" lon="6.72135">
        <ele>1836.26</ele>
        <time>2011-03-22T07:51:58Z</time>
      </trkpt>
      <trkpt lat="44.46687" lon="6.72136">
        <ele>1837.22</ele>
        <time>2011-03-22T07:52:11Z</time>
      </trkpt>
      <trkpt lat="44.46688" lon="6.72133">
        <ele>1836.26</ele>
        <time>2011-03-22T07:52:26Z</time>
      </trkpt>
      <trkpt lat="44.4669" lon="6.72134">
        <ele>1836.26</ele>
        <time>2011-03-22T07:52:29Z</time>
      </trkpt>
      <trkpt lat="44.46699" lon="6.72128">
        <ele>1836.74</ele>
        <time>2011-03-22T07:52:40Z</time>
      </trkpt>
      <trkpt lat="44.46701" lon="6.72113">
        <ele>1838.66</ele>
        <time>2011-03-22T07:52:57Z</time>
      </trkpt>
      <trkpt lat="44.46699" lon="6.72108">
        <ele>1842.02</ele>
        <time>2011-03-22T07:53:10Z</time>
      </trkpt>
      <trkpt lat="44.46696" lon="6.72106">
        <ele>1842.02</ele>
        <time>2011-03-22T07:53:23Z</time>
      </trkpt>
      <trkpt lat="44.46697" lon="6.72106">
        <ele>1842.98</ele>
        <time>2011-03-22T07:53:42Z</time>
      </trkpt>
      <trkpt lat="44.46695" lon="6.72105">
        <ele>1842.98</ele>
        <time>2011-03-22T07:53:54Z</time>
      </trkpt>
      <trkpt lat="44.46695" lon="6.72103">
        <ele>1842.98</ele>
        <time>2011-03-22T07:54:05Z</time>
      </trkpt>
      <trkpt lat="44.4669" lon="6.721">
        <ele>1843.47</ele>
        <time>2011-03-22T07:54:22Z</time>
      </trkpt>
      <trkpt lat="44.46681" lon="6.72098">
        <ele>1843.95</ele>
        <time>2011-03-22T07:54:34Z</time>
      </trkpt>
      <trkpt lat="44.46674" lon="6.72094">
        <ele>1845.87</ele>
        <time>2011-03-22T07:54:47Z</time>
      </trkpt>
      <trkpt lat="44.46664" lon="6.7209">
        <ele>1847.31</ele>
        <time>2011-03-22T07:55:02Z</time>
      </trkpt>
      <trkpt lat="44.46656" lon="6.72084">
        <ele>1848.27</ele>
        <time>2011-03-22T07:55:15Z</time>
      </trkpt>
      <trkpt lat="44.46649" lon="6.72079">
        <ele>1849.71</ele>
        <time>2011-03-22T07:55:25Z</time>
      </trkpt>
      <trkpt lat="44.46641" lon="6.72074">
        <ele>1851.16</ele>
        <time>2011-03-22T07:55:38Z</time>
      </trkpt>
      <trkpt lat="44.46636" lon="6.7207">
        <ele>1852.12</ele>
        <time>2011-03-22T07:55:46Z</time>
      </trkpt>
      <trkpt lat="44.46627" lon="6.72067">
        <ele>1853.56</ele>
        <time>2011-03-22T07:55:59Z</time>
      </trkpt>
      <trkpt lat="44.46618" lon="6.72062">
        <ele>1854.52</ele>
        <time>2011-03-22T07:56:12Z</time>
      </trkpt>
      <trkpt lat="44.46611" lon="6.7206">
        <ele>1856.44</ele>
        <time>2011-03-22T07:56:24Z</time>
      </trkpt>
      <trkpt lat="44.46602" lon="6.72057">
        <ele>1858.37</ele>
        <time>2011-03-22T07:56:38Z</time>
      </trkpt>
      <trkpt lat="44.46592" lon="6.72055">
        <ele>1861.25</ele>
        <time>2011-03-22T07:56:52Z</time>
      </trkpt>
      <trkpt lat="44.46586" lon="6.72052">
        <ele>1862.21</ele>
        <time>2011-03-22T07:57:02Z</time>
      </trkpt>
      <trkpt lat="44.4658" lon="6.7205">
        <ele>1862.69</ele>
        <time>2011-03-22T07:57:10Z</time>
      </trkpt>
      <trkpt lat="44.46576" lon="6.72047">
        <ele>1863.17</ele>
        <time>2011-03-22T07:57:15Z</time>
      </trkpt>
      <trkpt lat="44.46566" lon="6.72043">
        <ele>1864.61</ele>
        <time>2011-03-22T07:57:29Z</time>
      </trkpt>
      <trkpt lat="44.46557" lon="6.72043">
        <ele>1864.61</ele>
        <time>2011-03-22T07:57:41Z</time>
      </trkpt>
      <trkpt lat="44.46556" lon="6.72043">
        <ele>1865.58</ele>
        <time>2011-03-22T07:57:42Z</time>
      </trkpt>
      <trkpt lat="44.4655" lon="6.72044">
        <ele>1866.06</ele>
        <time>2011-03-22T07:57:50Z</time>
      </trkpt>
      <trkpt lat="44.46545" lon="6.72045">
        <ele>1866.06</ele>
        <time>2011-03-22T07:57:57Z</time>
      </trkpt>
      <trkpt lat="44.46539" lon="6.72048">
        <ele>1866.54</ele>
        <time>2011-03-22T07:58:05Z</time>
      </trkpt>
      <trkpt lat="44.4653" lon="6.72056">
        <ele>1866.54</ele>
        <time>2011-03-22T07:58:17Z</time>
      </trkpt>
      <trkpt lat="44.46523" lon="6.72061">
        <ele>1866.54</ele>
        <time>2011-03-22T07:58:26Z</time>
      </trkpt>
      <trkpt lat="44.46521" lon="6.72062">
        <ele>1867.5</ele>
        <time>2011-03-22T07:58:28Z</time>
      </trkpt>
      <trkpt lat="44.46511" lon="6.72069">
        <ele>1867.5</ele>
        <time>2011-03-22T07:58:41Z</time>
      </trkpt>
      <trkpt lat="44.46509" lon="6.72071">
        <ele>1867.02</ele>
        <time>2011-03-22T07:58:44Z</time>
      </trkpt>
      <trkpt lat="44.46506" lon="6.72073">
        <ele>1867.02</ele>
        <time>2011-03-22T07:58:48Z</time>
      </trkpt>
      <trkpt lat="44.46503" lon="6.72075">
        <ele>1866.54</ele>
        <time>2011-03-22T07:58:52Z</time>
      </trkpt>
      <trkpt lat="44.46497" lon="6.7208">
        <ele>1867.5</ele>
        <time>2011-03-22T07:59:04Z</time>
      </trkpt>
      <trkpt lat="44.46496" lon="6.7208">
        <ele>1867.5</ele>
        <time>2011-03-22T07:59:17Z</time>
      </trkpt>
      <trkpt lat="44.46488" lon="6.72083">
        <ele>1869.42</ele>
        <time>2011-03-22T07:59:28Z</time>
      </trkpt>
      <trkpt lat="44.46477" lon="6.72088">
        <ele>1871.34</ele>
        <time>2011-03-22T07:59:42Z</time>
      </trkpt>
      <trkpt lat="44.46469" lon="6.7209">
        <ele>1872.79</ele>
        <time>2011-03-22T07:59:54Z</time>
      </trkpt>
      <trkpt lat="44.46466" lon="6.7209">
        <ele>1873.75</ele>
        <time>2011-03-22T07:59:58Z</time>
      </trkpt>
      <trkpt lat="44.46458" lon="6.72091">
        <ele>1876.15</ele>
        <time>2011-03-22T08:00:11Z</time>
      </trkpt>
      <trkpt lat="44.4645" lon="6.72088">
        <ele>1877.59</ele>
        <time>2011-03-22T08:00:24Z</time>
      </trkpt>
      <trkpt lat="44.46443" lon="6.72086">
        <ele>1879.03</ele>
        <time>2011-03-22T08:00:35Z</time>
      </trkpt>
      <trkpt lat="44.46434" lon="6.72081">
        <ele>1880.96</ele>
        <time>2011-03-22T08:00:50Z</time>
      </trkpt>
      <trkpt lat="44.46431" lon="6.72071">
        <ele>1883.36</ele>
        <time>2011-03-22T08:01:03Z</time>
      </trkpt>
      <trkpt lat="44.46425" lon="6.72071">
        <ele>1884.8</ele>
        <time>2011-03-22T08:01:15Z</time>
      </trkpt>
      <trkpt lat="44.46418" lon="6.72071">
        <ele>1887.21</ele>
        <time>2011-03-22T08:01:27Z</time>
      </trkpt>
      <trkpt lat="44.46413" lon="6.72064">
        <ele>1888.65</ele>
        <time>2011-03-22T08:01:40Z</time>
      </trkpt>
      <trkpt lat="44.46407" lon="6.72065">
        <ele>1890.09</ele>
        <time>2011-03-22T08:01:51Z</time>
      </trkpt>
      <trkpt lat="44.46401" lon="6.72061">
        <ele>1892.49</ele>
        <time>2011-03-22T08:02:02Z</time>
      </trkpt>
      <trkpt lat="44.46394" lon="6.72051">
        <ele>1895.38</ele>
        <time>2011-03-22T08:02:19Z</time>
      </trkpt>
      <trkpt lat="44.46389" lon="6.72042">
        <ele>1897.3</ele>
        <time>2011-03-22T08:02:32Z</time>
      </trkpt>
      <trkpt lat="44.46384" lon="6.72038">
        <ele>1898.74</ele>
        <time>2011-03-22T08:02:44Z</time>
      </trkpt>
      <trkpt lat="44.46376" lon="6.72041">
        <ele>1901.14</ele>
        <time>2011-03-22T08:02:56Z</time>
      </trkpt>
      <trkpt lat="44.46375" lon="6.72041">
        <ele>1902.11</ele>
        <time>2011-03-22T08:02:58Z</time>
      </trkpt>
      <trkpt lat="44.46369" lon="6.72047">
        <ele>1902.11</ele>
        <time>2011-03-22T08:03:09Z</time>
      </trkpt>
      <trkpt lat="44.46363" lon="6.72049">
        <ele>1902.59</ele>
        <time>2011-03-22T08:03:20Z</time>
      </trkpt>
      <trkpt lat="44.46356" lon="6.72052">
        <ele>1903.07</ele>
        <time>2011-03-22T08:03:32Z</time>
      </trkpt>
      <trkpt lat="44.46355" lon="6.72052">
        <ele>1903.55</ele>
        <time>2011-03-22T08:03:50Z</time>
      </trkpt>
      <trkpt lat="44.46355" lon="6.72051">
        <ele>1903.55</ele>
        <time>2011-03-22T08:04:11Z</time>
      </trkpt>
      <trkpt lat="44.46349" lon="6.72052">
        <ele>1904.51</ele>
        <time>2011-03-22T08:04:27Z</time>
      </trkpt>
      <trkpt lat="44.46349" lon="6.72053">
        <ele>1904.03</ele>
        <time>2011-03-22T08:04:28Z</time>
      </trkpt>
      <trkpt lat="44.46345" lon="6.72055">
        <ele>1904.51</ele>
        <time>2011-03-22T08:04:32Z</time>
      </trkpt>
      <trkpt lat="44.46336" lon="6.72056">
        <ele>1904.99</ele>
        <time>2011-03-22T08:04:42Z</time>
      </trkpt>
      <trkpt lat="44.46331" lon="6.72052">
        <ele>1905.47</ele>
        <time>2011-03-22T08:04:49Z</time>
      </trkpt>
      <trkpt lat="44.46328" lon="6.72049">
        <ele>1905.95</ele>
        <time>2011-03-22T08:04:53Z</time>
      </trkpt>
      <trkpt lat="44.4632" lon="6.72041">
        <ele>1905.95</ele>
        <time>2011-03-22T08:05:05Z</time>
      </trkpt>
      <trkpt lat="44.46314" lon="6.72036">
        <ele>1906.91</ele>
        <time>2011-03-22T08:05:12Z</time>
      </trkpt>
      <trkpt lat="44.46305" lon="6.72028">
        <ele>1908.35</ele>
        <time>2011-03-22T08:05:25Z</time>
      </trkpt>
      <trkpt lat="44.46299" lon="6.72023">
        <ele>1909.8</ele>
        <time>2011-03-22T08:05:34Z</time>
      </trkpt>
      <trkpt lat="44.46292" lon="6.72018">
        <ele>1911.72</ele>
        <time>2011-03-22T08:05:46Z</time>
      </trkpt>
      <trkpt lat="44.46284" lon="6.72014">
        <ele>1912.68</ele>
        <time>2011-03-22T08:05:57Z</time>
      </trkpt>
      <trkpt lat="44.46277" lon="6.72009">
        <ele>1914.12</ele>
        <time>2011-03-22T08:06:08Z</time>
      </trkpt>
      <trkpt lat="44.46269" lon="6.72004">
        <ele>1916.04</ele>
        <time>2011-03-22T08:06:19Z</time>
      </trkpt>
      <trkpt lat="44.46269" lon="6.72003">
        <ele>1916.53</ele>
        <time>2011-03-22T08:06:21Z</time>
      </trkpt>
      <trkpt lat="44.46261" lon="6.71999">
        <ele>1917.01</ele>
        <time>2011-03-22T08:06:33Z</time>
      </trkpt>
      <trkpt lat="44.46257" lon="6.71997">
        <ele>1917.49</ele>
        <time>2011-03-22T08:06:39Z</time>
      </trkpt>
      <trkpt lat="44.46249" lon="6.71991">
        <ele>1919.41</ele>
        <time>2011-03-22T08:06:50Z</time>
      </trkpt>
      <trkpt lat="44.46241" lon="6.71987">
        <ele>1920.85</ele>
        <time>2011-03-22T08:07:02Z</time>
      </trkpt>
      <trkpt lat="44.46234" lon="6.71982">
        <ele>1922.29</ele>
        <time>2011-03-22T08:07:14Z</time>
      </trkpt>
      <trkpt lat="44.4623" lon="6.71979">
        <ele>1922.77</ele>
        <time>2011-03-22T08:07:20Z</time>
      </trkpt>
      <trkpt lat="44.46227" lon="6.71977">
        <ele>1922.77</ele>
        <time>2011-03-22T08:07:24Z</time>
      </trkpt>
      <trkpt lat="44.46224" lon="6.71975">
        <ele>1923.25</ele>
        <time>2011-03-22T08:07:28Z</time>
      </trkpt>
      <trkpt lat="44.46221" lon="6.71973">
        <ele>1923.74</ele>
        <time>2011-03-22T08:07:32Z</time>
      </trkpt>
      <trkpt lat="44.46218" lon="6.7197">
        <ele>1924.7</ele>
        <time>2011-03-22T08:07:36Z</time>
      </trkpt>
      <trkpt lat="44.46216" lon="6.71968">
        <ele>1924.7</ele>
        <time>2011-03-22T08:07:39Z</time>
      </trkpt>
      <trkpt lat="44.46212" lon="6.71966">
        <ele>1925.18</ele>
        <time>2011-03-22T08:07:43Z</time>
      </trkpt>
      <trkpt lat="44.46206" lon="6.71961">
        <ele>1925.66</ele>
        <time>2011-03-22T08:07:51Z</time>
      </trkpt>
      <trkpt lat="44.46198" lon="6.71956">
        <ele>1926.14</ele>
        <time>2011-03-22T08:08:03Z</time>
      </trkpt>
      <trkpt lat="44.46189" lon="6.71951">
        <ele>1927.1</ele>
        <time>2011-03-22T08:08:15Z</time>
      </trkpt>
      <trkpt lat="44.46187" lon="6.7195">
        <ele>1927.58</ele>
        <time>2011-03-22T08:08:18Z</time>
      </trkpt>
      <trkpt lat="44.46178" lon="6.71949">
        <ele>1929.5</ele>
        <time>2011-03-22T08:08:30Z</time>
      </trkpt>
      <trkpt lat="44.46171" lon="6.71946">
        <ele>1931.91</ele>
        <time>2011-03-22T08:08:42Z</time>
      </trkpt>
      <trkpt lat="44.46163" lon="6.71945">
        <ele>1933.35</ele>
        <time>2011-03-22T08:08:54Z</time>
      </trkpt>
      <trkpt lat="44.46156" lon="6.71945">
        <ele>1934.31</ele>
        <time>2011-03-22T08:09:04Z</time>
      </trkpt>
      <trkpt lat="44.46152" lon="6.71945">
        <ele>1935.27</ele>
        <time>2011-03-22T08:09:09Z</time>
      </trkpt>
      <trkpt lat="44.46144" lon="6.71943">
        <ele>1936.23</ele>
        <time>2011-03-22T08:09:21Z</time>
      </trkpt>
      <trkpt lat="44.46138" lon="6.71941">
        <ele>1937.67</ele>
        <time>2011-03-22T08:09:28Z</time>
      </trkpt>
      <trkpt lat="44.4613" lon="6.7194">
        <ele>1938.64</ele>
        <time>2011-03-22T08:09:38Z</time>
      </trkpt>
      <trkpt lat="44.46128" lon="6.71941">
        <ele>1939.12</ele>
        <time>2011-03-22T08:09:42Z</time>
      </trkpt>
      <trkpt lat="44.46119" lon="6.71939">
        <ele>1940.56</ele>
        <time>2011-03-22T08:09:54Z</time>
      </trkpt>
      <trkpt lat="44.46116" lon="6.71939">
        <ele>1941.04</ele>
        <time>2011-03-22T08:09:57Z</time>
      </trkpt>
      <trkpt lat="44.4611" lon="6.71937">
        <ele>1941.04</ele>
        <time>2011-03-22T08:10:03Z</time>
      </trkpt>
      <trkpt lat="44.46107" lon="6.71937">
        <ele>1941.04</ele>
        <time>2011-03-22T08:10:06Z</time>
      </trkpt>
      <trkpt lat="44.46099" lon="6.71936">
        <ele>1942.48</ele>
        <time>2011-03-22T08:10:17Z</time>
      </trkpt>
      <trkpt lat="44.46097" lon="6.71935">
        <ele>1942.96</ele>
        <time>2011-03-22T08:10:20Z</time>
      </trkpt>
      <trkpt lat="44.46089" lon="6.71934">
        <ele>1944.4</ele>
        <time>2011-03-22T08:10:31Z</time>
      </trkpt>
      <trkpt lat="44.4608" lon="6.71932">
        <ele>1945.36</ele>
        <time>2011-03-22T08:10:43Z</time>
      </trkpt>
      <trkpt lat="44.4607" lon="6.71931">
        <ele>1946.81</ele>
        <time>2011-03-22T08:10:55Z</time>
      </trkpt>
      <trkpt lat="44.46063" lon="6.71927">
        <ele>1948.25</ele>
        <time>2011-03-22T08:11:05Z</time>
      </trkpt>
      <trkpt lat="44.46053" lon="6.71924">
        <ele>1949.21</ele>
        <time>2011-03-22T08:11:18Z</time>
      </trkpt>
      <trkpt lat="44.4605" lon="6.71923">
        <ele>1950.17</ele>
        <time>2011-03-22T08:11:22Z</time>
      </trkpt>
      <trkpt lat="44.46048" lon="6.71922">
        <ele>1950.17</ele>
        <time>2011-03-22T08:11:24Z</time>
      </trkpt>
      <trkpt lat="44.46038" lon="6.71917">
        <ele>1950.65</ele>
        <time>2011-03-22T08:11:37Z</time>
      </trkpt>
      <trkpt lat="44.46037" lon="6.71917">
        <ele>1950.65</ele>
        <time>2011-03-22T08:11:38Z</time>
      </trkpt>
      <trkpt lat="44.4603" lon="6.71911">
        <ele>1951.61</ele>
        <time>2011-03-22T08:11:48Z</time>
      </trkpt>
      <trkpt lat="44.46018" lon="6.71906">
        <ele>1953.06</ele>
        <time>2011-03-22T08:12:03Z</time>
      </trkpt>
      <trkpt lat="44.46015" lon="6.71906">
        <ele>1953.06</ele>
        <time>2011-03-22T08:12:06Z</time>
      </trkpt>
      <trkpt lat="44.46012" lon="6.71905">
        <ele>1953.06</ele>
        <time>2011-03-22T08:12:09Z</time>
      </trkpt>
      <trkpt lat="44.46005" lon="6.71902">
        <ele>1953.06</ele>
        <time>2011-03-22T08:12:18Z</time>
      </trkpt>
      <trkpt lat="44.45997" lon="6.719">
        <ele>1954.98</ele>
        <time>2011-03-22T08:12:29Z</time>
      </trkpt>
      <trkpt lat="44.45994" lon="6.719">
        <ele>1955.46</ele>
        <time>2011-03-22T08:12:32Z</time>
      </trkpt>
      <trkpt lat="44.45985" lon="6.71901">
        <ele>1956.9</ele>
        <time>2011-03-22T08:12:44Z</time>
      </trkpt>
      <trkpt lat="44.45977" lon="6.71901">
        <ele>1958.82</ele>
        <time>2011-03-22T08:12:56Z</time>
      </trkpt>
      <trkpt lat="44.4597" lon="6.719">
        <ele>1959.78</ele>
        <time>2011-03-22T08:13:07Z</time>
      </trkpt>
      <trkpt lat="44.45964" lon="6.719">
        <ele>1961.23</ele>
        <time>2011-03-22T08:13:21Z</time>
      </trkpt>
      <trkpt lat="44.45964" lon="6.719">
        <ele>1959.78</ele>
        <time>2011-03-22T08:13:28Z</time>
      </trkpt>
      <trkpt lat="44.45964" lon="6.719">
        <ele>1959.78</ele>
        <time>2011-03-22T08:13:51Z</time>
      </trkpt>
      <trkpt lat="44.45964" lon="6.719">
        <ele>1960.75</ele>
        <time>2011-03-22T08:14:24Z</time>
      </trkpt>
      <trkpt lat="44.45964" lon="6.719">
        <ele>1960.27</ele>
        <time>2011-03-22T08:14:44Z</time>
      </trkpt>
      <trkpt lat="44.45964" lon="6.719">
        <ele>1960.75</ele>
        <time>2011-03-22T08:15:12Z</time>
      </trkpt>
      <trkpt lat="44.45964" lon="6.719">
        <ele>1960.75</ele>
        <time>2011-03-22T08:15:19Z</time>
      </trkpt>
      <trkpt lat="44.45956" lon="6.71904">
        <ele>1961.71</ele>
        <time>2011-03-22T08:15:29Z</time>
      </trkpt>
      <trkpt lat="44.45944" lon="6.71905">
        <ele>1963.63</ele>
        <time>2011-03-22T08:15:44Z</time>
      </trkpt>
      <trkpt lat="44.45943" lon="6.71905">
        <ele>1963.15</ele>
        <time>2011-03-22T08:15:45Z</time>
      </trkpt>
      <trkpt lat="44.45933" lon="6.71905">
        <ele>1964.59</ele>
        <time>2011-03-22T08:15:58Z</time>
      </trkpt>
      <trkpt lat="44.45927" lon="6.71904">
        <ele>1965.07</ele>
        <time>2011-03-22T08:16:05Z</time>
      </trkpt>
      <trkpt lat="44.45917" lon="6.719">
        <ele>1966.03</ele>
        <time>2011-03-22T08:16:18Z</time>
      </trkpt>
      <trkpt lat="44.45908" lon="6.71893">
        <ele>1967.48</ele>
        <time>2011-03-22T08:16:30Z</time>
      </trkpt>
      <trkpt lat="44.45908" lon="6.71891">
        <ele>1967.96</ele>
        <time>2011-03-22T08:16:50Z</time>
      </trkpt>
      <trkpt lat="44.45907" lon="6.71894">
        <ele>1966.99</ele>
        <time>2011-03-22T08:17:09Z</time>
      </trkpt>
      <trkpt lat="44.45905" lon="6.719">
        <ele>1966.99</ele>
        <time>2011-03-22T08:17:14Z</time>
      </trkpt>
      <trkpt lat="44.45898" lon="6.71903">
        <ele>1967.48</ele>
        <time>2011-03-22T08:17:22Z</time>
      </trkpt>
      <trkpt lat="44.4589" lon="6.71904">
        <ele>1968.92</ele>
        <time>2011-03-22T08:17:32Z</time>
      </trkpt>
      <trkpt lat="44.4588" lon="6.71902">
        <ele>1969.88</ele>
        <time>2011-03-22T08:17:45Z</time>
      </trkpt>
      <trkpt lat="44.45874" lon="6.71899">
        <ele>1970.84</ele>
        <time>2011-03-22T08:17:53Z</time>
      </trkpt>
      <trkpt lat="44.45865" lon="6.71893">
        <ele>1971.32</ele>
        <time>2011-03-22T08:18:06Z</time>
      </trkpt>
      <trkpt lat="44.45854" lon="6.7189">
        <ele>1972.28</ele>
        <time>2011-03-22T08:18:19Z</time>
      </trkpt>
      <trkpt lat="44.45846" lon="6.71886">
        <ele>1973.24</ele>
        <time>2011-03-22T08:18:30Z</time>
      </trkpt>
      <trkpt lat="44.45837" lon="6.71882">
        <ele>1975.17</ele>
        <time>2011-03-22T08:18:43Z</time>
      </trkpt>
      <trkpt lat="44.4583" lon="6.7188">
        <ele>1977.57</ele>
        <time>2011-03-22T08:18:54Z</time>
      </trkpt>
      <trkpt lat="44.45824" lon="6.71878">
        <ele>1978.53</ele>
        <time>2011-03-22T08:19:05Z</time>
      </trkpt>
      <trkpt lat="44.45815" lon="6.71877">
        <ele>1979.49</ele>
        <time>2011-03-22T08:19:17Z</time>
      </trkpt>
      <trkpt lat="44.45814" lon="6.71872">
        <ele>1980.45</ele>
        <time>2011-03-22T08:19:28Z</time>
      </trkpt>
      <trkpt lat="44.45814" lon="6.71873">
        <ele>1979.97</ele>
        <time>2011-03-22T08:19:51Z</time>
      </trkpt>
      <trkpt lat="44.45814" lon="6.71873">
        <ele>1979.97</ele>
        <time>2011-03-22T08:20:13Z</time>
      </trkpt>
      <trkpt lat="44.45805" lon="6.71871">
        <ele>1981.9</ele>
        <time>2011-03-22T08:20:26Z</time>
      </trkpt>
      <trkpt lat="44.45798" lon="6.7187">
        <ele>1982.86</ele>
        <time>2011-03-22T08:20:37Z</time>
      </trkpt>
      <trkpt lat="44.45791" lon="6.71868">
        <ele>1984.3</ele>
        <time>2011-03-22T08:20:48Z</time>
      </trkpt>
      <trkpt lat="44.45786" lon="6.7186">
        <ele>1986.22</ele>
        <time>2011-03-22T08:21:01Z</time>
      </trkpt>
      <trkpt lat="44.45779" lon="6.71859">
        <ele>1988.14</ele>
        <time>2011-03-22T08:21:14Z</time>
      </trkpt>
      <trkpt lat="44.45773" lon="6.71867">
        <ele>1989.59</ele>
        <time>2011-03-22T08:21:27Z</time>
      </trkpt>
      <trkpt lat="44.45771" lon="6.71869">
        <ele>1990.55</ele>
        <time>2011-03-22T08:21:30Z</time>
      </trkpt>
      <trkpt lat="44.45765" lon="6.71882">
        <ele>1990.55</ele>
        <time>2011-03-22T08:21:44Z</time>
      </trkpt>
      <trkpt lat="44.45758" lon="6.7189">
        <ele>1992.95</ele>
        <time>2011-03-22T08:21:57Z</time>
      </trkpt>
      <trkpt lat="44.45751" lon="6.71895">
        <ele>1994.39</ele>
        <time>2011-03-22T08:22:09Z</time>
      </trkpt>
      <trkpt lat="44.45743" lon="6.71897">
        <ele>1996.32</ele>
        <time>2011-03-22T08:22:22Z</time>
      </trkpt>
      <trkpt lat="44.45742" lon="6.71897">
        <ele>1996.32</ele>
        <time>2011-03-22T08:22:24Z</time>
      </trkpt>
      <trkpt lat="44.45734" lon="6.71897">
        <ele>1998.24</ele>
        <time>2011-03-22T08:22:36Z</time>
      </trkpt>
      <trkpt lat="44.45727" lon="6.71895">
        <ele>1998.72</ele>
        <time>2011-03-22T08:22:47Z</time>
      </trkpt>
      <trkpt lat="44.45721" lon="6.71891">
        <ele>2000.64</ele>
        <time>2011-03-22T08:22:58Z</time>
      </trkpt>
      <trkpt lat="44.45713" lon="6.71887">
        <ele>2001.6</ele>
        <time>2011-03-22T08:23:11Z</time>
      </trkpt>
      <trkpt lat="44.45707" lon="6.71883">
        <ele>2003.04</ele>
        <time>2011-03-22T08:23:23Z</time>
      </trkpt>
      <trkpt lat="44.457" lon="6.71879">
        <ele>2004.49</ele>
        <time>2011-03-22T08:23:35Z</time>
      </trkpt>
      <trkpt lat="44.45692" lon="6.71876">
        <ele>2005.93</ele>
        <time>2011-03-22T08:23:47Z</time>
      </trkpt>
      <trkpt lat="44.45686" lon="6.71873">
        <ele>2007.37</ele>
        <time>2011-03-22T08:23:57Z</time>
      </trkpt>
      <trkpt lat="44.45682" lon="6.71869">
        <ele>2008.81</ele>
        <time>2011-03-22T08:24:08Z</time>
      </trkpt>
      <trkpt lat="44.4568" lon="6.71859">
        <ele>2011.22</ele>
        <time>2011-03-22T08:24:20Z</time>
      </trkpt>
      <trkpt lat="44.45675" lon="6.71848">
        <ele>2013.14</ele>
        <time>2011-03-22T08:24:34Z</time>
      </trkpt>
      <trkpt lat="44.45668" lon="6.71841">
        <ele>2014.58</ele>
        <time>2011-03-22T08:24:48Z</time>
      </trkpt>
      <trkpt lat="44.45666" lon="6.71832">
        <ele>2016.02</ele>
        <time>2011-03-22T08:24:59Z</time>
      </trkpt>
      <trkpt lat="44.45665" lon="6.71831">
        <ele>2016.98</ele>
        <time>2011-03-22T08:25:10Z</time>
      </trkpt>
      <trkpt lat="44.45665" lon="6.71831">
        <ele>2016.98</ele>
        <time>2011-03-22T08:25:40Z</time>
      </trkpt>
      <trkpt lat="44.45665" lon="6.71831">
        <ele>2016.5</ele>
        <time>2011-03-22T08:26:08Z</time>
      </trkpt>
      <trkpt lat="44.45666" lon="6.71831">
        <ele>2016.5</ele>
        <time>2011-03-22T08:26:31Z</time>
      </trkpt>
      <trkpt lat="44.45665" lon="6.71831">
        <ele>2015.54</ele>
        <time>2011-03-22T08:26:50Z</time>
      </trkpt>
      <trkpt lat="44.45665" lon="6.71831">
        <ele>2015.54</ele>
        <time>2011-03-22T08:27:14Z</time>
      </trkpt>
      <trkpt lat="44.45665" lon="6.71831">
        <ele>2015.06</ele>
        <time>2011-03-22T08:27:38Z</time>
      </trkpt>
      <trkpt lat="44.45666" lon="6.71829">
        <ele>2015.06</ele>
        <time>2011-03-22T08:27:52Z</time>
      </trkpt>
      <trkpt lat="44.45671" lon="6.71819">
        <ele>2016.98</ele>
        <time>2011-03-22T08:28:04Z</time>
      </trkpt>
      <trkpt lat="44.45676" lon="6.71812">
        <ele>2018.43</ele>
        <time>2011-03-22T08:28:16Z</time>
      </trkpt>
      <trkpt lat="44.45681" lon="6.71804">
        <ele>2019.87</ele>
        <time>2011-03-22T08:28:28Z</time>
      </trkpt>
      <trkpt lat="44.45684" lon="6.718">
        <ele>2022.27</ele>
        <time>2011-03-22T08:28:36Z</time>
      </trkpt>
      <trkpt lat="44.45685" lon="6.71795">
        <ele>2023.23</ele>
        <time>2011-03-22T08:28:49Z</time>
      </trkpt>
      <trkpt lat="44.45684" lon="6.71789">
        <ele>2024.19</ele>
        <time>2011-03-22T08:29:01Z</time>
      </trkpt>
      <trkpt lat="44.45681" lon="6.71779">
        <ele>2025.64</ele>
        <time>2011-03-22T08:29:14Z</time>
      </trkpt>
      <trkpt lat="44.45676" lon="6.71769">
        <ele>2027.56</ele>
        <time>2011-03-22T08:29:28Z</time>
      </trkpt>
      <trkpt lat="44.45671" lon="6.7176">
        <ele>2029.48</ele>
        <time>2011-03-22T08:29:41Z</time>
      </trkpt>
      <trkpt lat="44.45667" lon="6.71748">
        <ele>2031.4</ele>
        <time>2011-03-22T08:29:56Z</time>
      </trkpt>
      <trkpt lat="44.45662" lon="6.71736">
        <ele>2032.36</ele>
        <time>2011-03-22T08:30:09Z</time>
      </trkpt>
      <trkpt lat="44.45659" lon="6.71727">
        <ele>2033.81</ele>
        <time>2011-03-22T08:30:22Z</time>
      </trkpt>
      <trkpt lat="44.45654" lon="6.71715">
        <ele>2035.73</ele>
        <time>2011-03-22T08:30:35Z</time>
      </trkpt>
      <trkpt lat="44.45654" lon="6.71701">
        <ele>2037.17</ele>
        <time>2011-03-22T08:30:48Z</time>
      </trkpt>
      <trkpt lat="44.45654" lon="6.71693">
        <ele>2037.65</ele>
        <time>2011-03-22T08:30:55Z</time>
      </trkpt>
      <trkpt lat="44.45654" lon="6.7168">
        <ele>2039.57</ele>
        <time>2011-03-22T08:31:08Z</time>
      </trkpt>
      <trkpt lat="44.45653" lon="6.71669">
        <ele>2041.02</ele>
        <time>2011-03-22T08:31:22Z</time>
      </trkpt>
      <trkpt lat="44.45653" lon="6.7166">
        <ele>2042.94</ele>
        <time>2011-03-22T08:31:35Z</time>
      </trkpt>
      <trkpt lat="44.45653" lon="6.71648">
        <ele>2044.86</ele>
        <time>2011-03-22T08:31:48Z</time>
      </trkpt>
      <trkpt lat="44.45652" lon="6.71637">
        <ele>2046.3</ele>
        <time>2011-03-22T08:31:59Z</time>
      </trkpt>
      <trkpt lat="44.45652" lon="6.71634">
        <ele>2046.78</ele>
        <time>2011-03-22T08:32:03Z</time>
      </trkpt>
      <trkpt lat="44.45652" lon="6.71625">
        <ele>2047.75</ele>
        <time>2011-03-22T08:32:16Z</time>
      </trkpt>
      <trkpt lat="44.45651" lon="6.71611">
        <ele>2048.23</ele>
        <time>2011-03-22T08:32:29Z</time>
      </trkpt>
      <trkpt lat="44.45651" lon="6.71594">
        <ele>2049.67</ele>
        <time>2011-03-22T08:32:43Z</time>
      </trkpt>
      <trkpt lat="44.4565" lon="6.7158">
        <ele>2050.63</ele>
        <time>2011-03-22T08:32:56Z</time>
      </trkpt>
      <trkpt lat="44.4565" lon="6.71573">
        <ele>2051.11</ele>
        <time>2011-03-22T08:33:03Z</time>
      </trkpt>
      <trkpt lat="44.4565" lon="6.71569">
        <ele>2052.07</ele>
        <time>2011-03-22T08:33:06Z</time>
      </trkpt>
      <trkpt lat="44.45649" lon="6.71559">
        <ele>2053.03</ele>
        <time>2011-03-22T08:33:17Z</time>
      </trkpt>
      <trkpt lat="44.4565" lon="6.71547">
        <ele>2054.47</ele>
        <time>2011-03-22T08:33:30Z</time>
      </trkpt>
      <trkpt lat="44.4565" lon="6.71544">
        <ele>2054.47</ele>
        <time>2011-03-22T08:33:33Z</time>
      </trkpt>
      <trkpt lat="44.4565" lon="6.71532">
        <ele>2055.44</ele>
        <time>2011-03-22T08:33:45Z</time>
      </trkpt>
      <trkpt lat="44.4565" lon="6.71519">
        <ele>2056.4</ele>
        <time>2011-03-22T08:33:58Z</time>
      </trkpt>
      <trkpt lat="44.4565" lon="6.7151">
        <ele>2057.84</ele>
        <time>2011-03-22T08:34:10Z</time>
      </trkpt>
      <trkpt lat="44.45648" lon="6.71498">
        <ele>2058.8</ele>
        <time>2011-03-22T08:34:22Z</time>
      </trkpt>
      <trkpt lat="44.45647" lon="6.71487">
        <ele>2060.24</ele>
        <time>2011-03-22T08:34:35Z</time>
      </trkpt>
      <trkpt lat="44.45643" lon="6.71475">
        <ele>2061.2</ele>
        <time>2011-03-22T08:34:48Z</time>
      </trkpt>
      <trkpt lat="44.45641" lon="6.71465">
        <ele>2062.17</ele>
        <time>2011-03-22T08:35:00Z</time>
      </trkpt>
      <trkpt lat="44.45639" lon="6.71453">
        <ele>2063.61</ele>
        <time>2011-03-22T08:35:14Z</time>
      </trkpt>
      <trkpt lat="44.4564" lon="6.71442">
        <ele>2065.53</ele>
        <time>2011-03-22T08:35:28Z</time>
      </trkpt>
      <trkpt lat="44.4564" lon="6.71429">
        <ele>2066.01</ele>
        <time>2011-03-22T08:35:40Z</time>
      </trkpt>
      <trkpt lat="44.4564" lon="6.71421">
        <ele>2067.45</ele>
        <time>2011-03-22T08:35:51Z</time>
      </trkpt>
      <trkpt lat="44.45641" lon="6.71412">
        <ele>2068.41</ele>
        <time>2011-03-22T08:36:03Z</time>
      </trkpt>
      <trkpt lat="44.45642" lon="6.71401">
        <ele>2070.82</ele>
        <time>2011-03-22T08:36:15Z</time>
      </trkpt>
      <trkpt lat="44.45642" lon="6.71399">
        <ele>2070.82</ele>
        <time>2011-03-22T08:36:17Z</time>
      </trkpt>
      <trkpt lat="44.45641" lon="6.71396">
        <ele>2071.78</ele>
        <time>2011-03-22T08:36:20Z</time>
      </trkpt>
      <trkpt lat="44.45639" lon="6.71384">
        <ele>2071.78</ele>
        <time>2011-03-22T08:36:32Z</time>
      </trkpt>
      <trkpt lat="44.45636" lon="6.71373">
        <ele>2072.74</ele>
        <time>2011-03-22T08:36:45Z</time>
      </trkpt>
      <trkpt lat="44.45633" lon="6.71363">
        <ele>2074.18</ele>
        <time>2011-03-22T08:36:57Z</time>
      </trkpt>
      <trkpt lat="44.4563" lon="6.71355">
        <ele>2075.14</ele>
        <time>2011-03-22T08:37:08Z</time>
      </trkpt>
      <trkpt lat="44.45626" lon="6.71348">
        <ele>2076.59</ele>
        <time>2011-03-22T08:37:20Z</time>
      </trkpt>
      <trkpt lat="44.45624" lon="6.7134">
        <ele>2078.03</ele>
        <time>2011-03-22T08:37:31Z</time>
      </trkpt>
      <trkpt lat="44.45621" lon="6.71333">
        <ele>2079.47</ele>
        <time>2011-03-22T08:37:42Z</time>
      </trkpt>
      <trkpt lat="44.45612" lon="6.7133">
        <ele>2081.87</ele>
        <time>2011-03-22T08:37:56Z</time>
      </trkpt>
      <trkpt lat="44.45604" lon="6.7133">
        <ele>2083.79</ele>
        <time>2011-03-22T08:38:08Z</time>
      </trkpt>
      <trkpt lat="44.45599" lon="6.71331">
        <ele>2086.68</ele>
        <time>2011-03-22T08:38:19Z</time>
      </trkpt>
      <trkpt lat="44.4559" lon="6.71332">
        <ele>2088.6</ele>
        <time>2011-03-22T08:38:31Z</time>
      </trkpt>
      <trkpt lat="44.45585" lon="6.71331">
        <ele>2089.08</ele>
        <time>2011-03-22T08:38:45Z</time>
      </trkpt>
      <trkpt lat="44.45581" lon="6.71324">
        <ele>2091</ele>
        <time>2011-03-22T08:38:57Z</time>
      </trkpt>
      <trkpt lat="44.45584" lon="6.71315">
        <ele>2092.93</ele>
        <time>2011-03-22T08:39:10Z</time>
      </trkpt>
      <trkpt lat="44.45586" lon="6.71306">
        <ele>2094.85</ele>
        <time>2011-03-22T08:39:23Z</time>
      </trkpt>
      <trkpt lat="44.45588" lon="6.71296">
        <ele>2096.29</ele>
        <time>2011-03-22T08:39:35Z</time>
      </trkpt>
      <trkpt lat="44.45589" lon="6.71285">
        <ele>2097.73</ele>
        <time>2011-03-22T08:39:49Z</time>
      </trkpt>
      <trkpt lat="44.45585" lon="6.71281">
        <ele>2099.66</ele>
        <time>2011-03-22T08:40:01Z</time>
      </trkpt>
      <trkpt lat="44.45578" lon="6.71282">
        <ele>2100.62</ele>
        <time>2011-03-22T08:40:12Z</time>
      </trkpt>
      <trkpt lat="44.45571" lon="6.7128">
        <ele>2103.02</ele>
        <time>2011-03-22T08:40:25Z</time>
      </trkpt>
      <trkpt lat="44.45563" lon="6.71277">
        <ele>2104.46</ele>
        <time>2011-03-22T08:40:37Z</time>
      </trkpt>
      <trkpt lat="44.45561" lon="6.71275">
        <ele>2104.94</ele>
        <time>2011-03-22T08:40:52Z</time>
      </trkpt>
      <trkpt lat="44.45562" lon="6.71269">
        <ele>2107.35</ele>
        <time>2011-03-22T08:41:03Z</time>
      </trkpt>
      <trkpt lat="44.45565" lon="6.71261">
        <ele>2109.27</ele>
        <time>2011-03-22T08:41:16Z</time>
      </trkpt>
      <trkpt lat="44.45567" lon="6.71251">
        <ele>2110.71</ele>
        <time>2011-03-22T08:41:30Z</time>
      </trkpt>
      <trkpt lat="44.45567" lon="6.71243">
        <ele>2112.15</ele>
        <time>2011-03-22T08:41:40Z</time>
      </trkpt>
      <trkpt lat="44.45561" lon="6.71239">
        <ele>2114.08</ele>
        <time>2011-03-22T08:41:52Z</time>
      </trkpt>
      <trkpt lat="44.45555" lon="6.71236">
        <ele>2116</ele>
        <time>2011-03-22T08:42:05Z</time>
      </trkpt>
      <trkpt lat="44.45553" lon="6.71227">
        <ele>2117.92</ele>
        <time>2011-03-22T08:42:17Z</time>
      </trkpt>
      <trkpt lat="44.45551" lon="6.71216">
        <ele>2119.36</ele>
        <time>2011-03-22T08:42:30Z</time>
      </trkpt>
      <trkpt lat="44.45548" lon="6.71206">
        <ele>2120.81</ele>
        <time>2011-03-22T08:42:44Z</time>
      </trkpt>
      <trkpt lat="44.45544" lon="6.71195">
        <ele>2122.73</ele>
        <time>2011-03-22T08:42:58Z</time>
      </trkpt>
      <trkpt lat="44.45542" lon="6.71185">
        <ele>2124.65</ele>
        <time>2011-03-22T08:43:12Z</time>
      </trkpt>
      <trkpt lat="44.45539" lon="6.71174">
        <ele>2126.09</ele>
        <time>2011-03-22T08:43:25Z</time>
      </trkpt>
      <trkpt lat="44.45536" lon="6.71162">
        <ele>2127.53</ele>
        <time>2011-03-22T08:43:37Z</time>
      </trkpt>
      <trkpt lat="44.45536" lon="6.71151">
        <ele>2129.94</ele>
        <time>2011-03-22T08:43:51Z</time>
      </trkpt>
      <trkpt lat="44.45536" lon="6.71139">
        <ele>2131.86</ele>
        <time>2011-03-22T08:44:04Z</time>
      </trkpt>
      <trkpt lat="44.45536" lon="6.71128">
        <ele>2134.26</ele>
        <time>2011-03-22T08:44:17Z</time>
      </trkpt>
      <trkpt lat="44.45536" lon="6.7112">
        <ele>2136.19</ele>
        <time>2011-03-22T08:44:29Z</time>
      </trkpt>
      <trkpt lat="44.45537" lon="6.7111">
        <ele>2137.63</ele>
        <time>2011-03-22T08:44:40Z</time>
      </trkpt>
      <trkpt lat="44.45537" lon="6.711">
        <ele>2139.55</ele>
        <time>2011-03-22T08:44:53Z</time>
      </trkpt>
      <trkpt lat="44.45536" lon="6.71092">
        <ele>2140.51</ele>
        <time>2011-03-22T08:45:04Z</time>
      </trkpt>
      <trkpt lat="44.4553" lon="6.7108">
        <ele>2140.99</ele>
        <time>2011-03-22T08:45:18Z</time>
      </trkpt>
      <trkpt lat="44.45524" lon="6.7107">
        <ele>2141.95</ele>
        <time>2011-03-22T08:45:30Z</time>
      </trkpt>
      <trkpt lat="44.4552" lon="6.71065">
        <ele>2142.44</ele>
        <time>2011-03-22T08:45:37Z</time>
      </trkpt>
      <trkpt lat="44.45514" lon="6.71055">
        <ele>2143.4</ele>
        <time>2011-03-22T08:45:50Z</time>
      </trkpt>
      <trkpt lat="44.45509" lon="6.71046">
        <ele>2143.88</ele>
        <time>2011-03-22T08:46:03Z</time>
      </trkpt>
      <trkpt lat="44.45502" lon="6.71037">
        <ele>2144.84</ele>
        <time>2011-03-22T08:46:16Z</time>
      </trkpt>
      <trkpt lat="44.45495" lon="6.7103">
        <ele>2145.8</ele>
        <time>2011-03-22T08:46:29Z</time>
      </trkpt>
      <trkpt lat="44.45487" lon="6.71024">
        <ele>2145.8</ele>
        <time>2011-03-22T08:46:41Z</time>
      </trkpt>
      <trkpt lat="44.45486" lon="6.71025">
        <ele>2145.8</ele>
        <time>2011-03-22T08:46:43Z</time>
      </trkpt>
      <trkpt lat="44.45476" lon="6.7102">
        <ele>2146.28</ele>
        <time>2011-03-22T08:46:57Z</time>
      </trkpt>
      <trkpt lat="44.45472" lon="6.71014">
        <ele>2147.72</ele>
        <time>2011-03-22T08:47:09Z</time>
      </trkpt>
      <trkpt lat="44.45469" lon="6.71005">
        <ele>2149.16</ele>
        <time>2011-03-22T08:47:19Z</time>
      </trkpt>
      <trkpt lat="44.45466" lon="6.70997">
        <ele>2151.09</ele>
        <time>2011-03-22T08:47:32Z</time>
      </trkpt>
      <trkpt lat="44.45464" lon="6.70992">
        <ele>2152.53</ele>
        <time>2011-03-22T08:47:43Z</time>
      </trkpt>
      <trkpt lat="44.45459" lon="6.70986">
        <ele>2154.45</ele>
        <time>2011-03-22T08:47:56Z</time>
      </trkpt>
      <trkpt lat="44.45453" lon="6.70983">
        <ele>2156.37</ele>
        <time>2011-03-22T08:48:08Z</time>
      </trkpt>
      <trkpt lat="44.45448" lon="6.70977">
        <ele>2158.3</ele>
        <time>2011-03-22T08:48:20Z</time>
      </trkpt>
      <trkpt lat="44.45447" lon="6.70976">
        <ele>2158.3</ele>
        <time>2011-03-22T08:48:21Z</time>
      </trkpt>
      <trkpt lat="44.45442" lon="6.70967">
        <ele>2160.7</ele>
        <time>2011-03-22T08:48:34Z</time>
      </trkpt>
      <trkpt lat="44.45438" lon="6.7096">
        <ele>2162.14</ele>
        <time>2011-03-22T08:48:45Z</time>
      </trkpt>
      <trkpt lat="44.45433" lon="6.70951">
        <ele>2163.58</ele>
        <time>2011-03-22T08:48:58Z</time>
      </trkpt>
      <trkpt lat="44.45428" lon="6.70945">
        <ele>2165.03</ele>
        <time>2011-03-22T08:49:11Z</time>
      </trkpt>
      <trkpt lat="44.45423" lon="6.70938">
        <ele>2166.95</ele>
        <time>2011-03-22T08:49:24Z</time>
      </trkpt>
      <trkpt lat="44.45418" lon="6.70931">
        <ele>2168.39</ele>
        <time>2011-03-22T08:49:35Z</time>
      </trkpt>
      <trkpt lat="44.45415" lon="6.70925">
        <ele>2170.79</ele>
        <time>2011-03-22T08:49:48Z</time>
      </trkpt>
      <trkpt lat="44.45409" lon="6.70921">
        <ele>2172.72</ele>
        <time>2011-03-22T08:50:00Z</time>
      </trkpt>
      <trkpt lat="44.45403" lon="6.70919">
        <ele>2174.64</ele>
        <time>2011-03-22T08:50:14Z</time>
      </trkpt>
      <trkpt lat="44.45398" lon="6.70921">
        <ele>2177.52</ele>
        <time>2011-03-22T08:50:27Z</time>
      </trkpt>
      <trkpt lat="44.45394" lon="6.70927">
        <ele>2178.97</ele>
        <time>2011-03-22T08:50:38Z</time>
      </trkpt>
      <trkpt lat="44.45387" lon="6.70931">
        <ele>2180.41</ele>
        <time>2011-03-22T08:50:51Z</time>
      </trkpt>
      <trkpt lat="44.45379" lon="6.70934">
        <ele>2181.85</ele>
        <time>2011-03-22T08:51:03Z</time>
      </trkpt>
      <trkpt lat="44.45373" lon="6.70928">
        <ele>2183.77</ele>
        <time>2011-03-22T08:51:15Z</time>
      </trkpt>
      <trkpt lat="44.4537" lon="6.70919">
        <ele>2185.69</ele>
        <time>2011-03-22T08:51:27Z</time>
      </trkpt>
      <trkpt lat="44.45366" lon="6.70912">
        <ele>2187.14</ele>
        <time>2011-03-22T08:51:38Z</time>
      </trkpt>
      <trkpt lat="44.45364" lon="6.70906">
        <ele>2189.06</ele>
        <time>2011-03-22T08:51:50Z</time>
      </trkpt>
      <trkpt lat="44.4536" lon="6.70896">
        <ele>2191.46</ele>
        <time>2011-03-22T08:52:04Z</time>
      </trkpt>
      <trkpt lat="44.45358" lon="6.70888">
        <ele>2193.87</ele>
        <time>2011-03-22T08:52:18Z</time>
      </trkpt>
      <trkpt lat="44.45356" lon="6.70879">
        <ele>2194.83</ele>
        <time>2011-03-22T08:52:30Z</time>
      </trkpt>
      <trkpt lat="44.45356" lon="6.70877">
        <ele>2194.83</ele>
        <time>2011-03-22T08:52:53Z</time>
      </trkpt>
      <trkpt lat="44.45356" lon="6.70877">
        <ele>2194.83</ele>
        <time>2011-03-22T08:53:27Z</time>
      </trkpt>
      <trkpt lat="44.45356" lon="6.70877">
        <ele>2194.83</ele>
        <time>2011-03-22T08:53:55Z</time>
      </trkpt>
      <trkpt lat="44.45356" lon="6.70876">
        <ele>2194.83</ele>
        <time>2011-03-22T08:54:19Z</time>
      </trkpt>
      <trkpt lat="44.45356" lon="6.70876">
        <ele>2194.35</ele>
        <time>2011-03-22T08:54:48Z</time>
      </trkpt>
      <trkpt lat="44.45356" lon="6.70876">
        <ele>2193.87</ele>
        <time>2011-03-22T08:55:07Z</time>
      </trkpt>
      <trkpt lat="44.45356" lon="6.70876">
        <ele>2193.87</ele>
        <time>2011-03-22T08:55:40Z</time>
      </trkpt>
      <trkpt lat="44.45356" lon="6.70876">
        <ele>2195.31</ele>
        <time>2011-03-22T08:55:54Z</time>
      </trkpt>
      <trkpt lat="44.45356" lon="6.70876">
        <ele>2194.83</ele>
        <time>2011-03-22T08:56:16Z</time>
      </trkpt>
      <trkpt lat="44.45355" lon="6.70876">
        <ele>2195.31</ele>
        <time>2011-03-22T08:56:36Z</time>
      </trkpt>
      <trkpt lat="44.45355" lon="6.70876">
        <ele>2194.83</ele>
        <time>2011-03-22T08:57:00Z</time>
      </trkpt>
      <trkpt lat="44.45353" lon="6.70869">
        <ele>2195.79</ele>
        <time>2011-03-22T08:57:10Z</time>
      </trkpt>
      <trkpt lat="44.45348" lon="6.70862">
        <ele>2196.75</ele>
        <time>2011-03-22T08:57:22Z</time>
      </trkpt>
      <trkpt lat="44.45341" lon="6.70853">
        <ele>2198.67</ele>
        <time>2011-03-22T08:57:35Z</time>
      </trkpt>
      <trkpt lat="44.45339" lon="6.70849">
        <ele>2199.63</ele>
        <time>2011-03-22T08:57:40Z</time>
      </trkpt>
      <trkpt lat="44.45336" lon="6.70846">
        <ele>2199.63</ele>
        <time>2011-03-22T08:57:44Z</time>
      </trkpt>
      <trkpt lat="44.45333" lon="6.70837">
        <ele>2201.56</ele>
        <time>2011-03-22T08:57:57Z</time>
      </trkpt>
      <trkpt lat="44.45331" lon="6.70826">
        <ele>2203.48</ele>
        <time>2011-03-22T08:58:09Z</time>
      </trkpt>
      <trkpt lat="44.45329" lon="6.70814">
        <ele>2205.88</ele>
        <time>2011-03-22T08:58:23Z</time>
      </trkpt>
      <trkpt lat="44.45322" lon="6.70808">
        <ele>2207.32</ele>
        <time>2011-03-22T08:58:36Z</time>
      </trkpt>
      <trkpt lat="44.45316" lon="6.70804">
        <ele>2209.25</ele>
        <time>2011-03-22T08:58:49Z</time>
      </trkpt>
      <trkpt lat="44.45312" lon="6.70797">
        <ele>2211.17</ele>
        <time>2011-03-22T08:59:02Z</time>
      </trkpt>
      <trkpt lat="44.45309" lon="6.70787">
        <ele>2213.57</ele>
        <time>2011-03-22T08:59:17Z</time>
      </trkpt>
      <trkpt lat="44.45303" lon="6.70777">
        <ele>2214.05</ele>
        <time>2011-03-22T08:59:30Z</time>
      </trkpt>
      <trkpt lat="44.45301" lon="6.70773">
        <ele>2214.53</ele>
        <time>2011-03-22T08:59:34Z</time>
      </trkpt>
      <trkpt lat="44.45297" lon="6.70768">
        <ele>2214.53</ele>
        <time>2011-03-22T08:59:41Z</time>
      </trkpt>
      <trkpt lat="44.45295" lon="6.70764">
        <ele>2214.53</ele>
        <time>2011-03-22T08:59:44Z</time>
      </trkpt>
      <trkpt lat="44.45287" lon="6.70751">
        <ele>2215.98</ele>
        <time>2011-03-22T08:59:57Z</time>
      </trkpt>
      <trkpt lat="44.45282" lon="6.7074">
        <ele>2218.86</ele>
        <time>2011-03-22T09:00:09Z</time>
      </trkpt>
      <trkpt lat="44.45279" lon="6.70733">
        <ele>2220.3</ele>
        <time>2011-03-22T09:00:22Z</time>
      </trkpt>
      <trkpt lat="44.45278" lon="6.70732">
        <ele>2221.74</ele>
        <time>2011-03-22T09:00:35Z</time>
      </trkpt>
      <trkpt lat="44.45277" lon="6.70723">
        <ele>2223.19</ele>
        <time>2011-03-22T09:00:47Z</time>
      </trkpt>
      <trkpt lat="44.45275" lon="6.70722">
        <ele>2224.15</ele>
        <time>2011-03-22T09:00:50Z</time>
      </trkpt>
      <trkpt lat="44.45272" lon="6.70711">
        <ele>2224.63</ele>
        <time>2011-03-22T09:01:00Z</time>
      </trkpt>
      <trkpt lat="44.4527" lon="6.70702">
        <ele>2225.59</ele>
        <time>2011-03-22T09:01:08Z</time>
      </trkpt>
      <trkpt lat="44.45271" lon="6.70689">
        <ele>2227.03</ele>
        <time>2011-03-22T09:01:20Z</time>
      </trkpt>
      <trkpt lat="44.4527" lon="6.70678">
        <ele>2227.99</ele>
        <time>2011-03-22T09:01:34Z</time>
      </trkpt>
      <trkpt lat="44.45268" lon="6.70669">
        <ele>2229.43</ele>
        <time>2011-03-22T09:01:47Z</time>
      </trkpt>
      <trkpt lat="44.45264" lon="6.70657">
        <ele>2230.4</ele>
        <time>2011-03-22T09:02:00Z</time>
      </trkpt>
      <trkpt lat="44.45259" lon="6.70649">
        <ele>2232.32</ele>
        <time>2011-03-22T09:02:12Z</time>
      </trkpt>
      <trkpt lat="44.45254" lon="6.70641">
        <ele>2234.24</ele>
        <time>2011-03-22T09:02:26Z</time>
      </trkpt>
      <trkpt lat="44.45251" lon="6.70636">
        <ele>2235.68</ele>
        <time>2011-03-22T09:02:37Z</time>
      </trkpt>
      <trkpt lat="44.45249" lon="6.7063">
        <ele>2237.61</ele>
        <time>2011-03-22T09:02:48Z</time>
      </trkpt>
      <trkpt lat="44.45247" lon="6.70615">
        <ele>2239.05</ele>
        <time>2011-03-22T09:03:01Z</time>
      </trkpt>
      <trkpt lat="44.45245" lon="6.70607">
        <ele>2240.01</ele>
        <time>2011-03-22T09:03:13Z</time>
      </trkpt>
      <trkpt lat="44.45245" lon="6.70598">
        <ele>2241.93</ele>
        <time>2011-03-22T09:03:25Z</time>
      </trkpt>
      <trkpt lat="44.45243" lon="6.70587">
        <ele>2243.37</ele>
        <time>2011-03-22T09:03:39Z</time>
      </trkpt>
      <trkpt lat="44.45241" lon="6.70576">
        <ele>2244.82</ele>
        <time>2011-03-22T09:03:52Z</time>
      </trkpt>
      <trkpt lat="44.45238" lon="6.70564">
        <ele>2246.74</ele>
        <time>2011-03-22T09:04:06Z</time>
      </trkpt>
      <trkpt lat="44.45235" lon="6.70556">
        <ele>2247.7</ele>
        <time>2011-03-22T09:04:17Z</time>
      </trkpt>
      <trkpt lat="44.45234" lon="6.7055">
        <ele>2248.66</ele>
        <time>2011-03-22T09:04:24Z</time>
      </trkpt>
      <trkpt lat="44.4523" lon="6.7054">
        <ele>2249.62</ele>
        <time>2011-03-22T09:04:36Z</time>
      </trkpt>
      <trkpt lat="44.45224" lon="6.70534">
        <ele>2252.03</ele>
        <time>2011-03-22T09:04:49Z</time>
      </trkpt>
      <trkpt lat="44.45216" lon="6.70528">
        <ele>2253.95</ele>
        <time>2011-03-22T09:05:02Z</time>
      </trkpt>
      <trkpt lat="44.45213" lon="6.70523">
        <ele>2254.91</ele>
        <time>2011-03-22T09:05:13Z</time>
      </trkpt>
      <trkpt lat="44.45207" lon="6.70516">
        <ele>2256.83</ele>
        <time>2011-03-22T09:05:25Z</time>
      </trkpt>
      <trkpt lat="44.45199" lon="6.70511">
        <ele>2258.27</ele>
        <time>2011-03-22T09:05:37Z</time>
      </trkpt>
      <trkpt lat="44.45195" lon="6.70507">
        <ele>2259.72</ele>
        <time>2011-03-22T09:05:45Z</time>
      </trkpt>
      <trkpt lat="44.45189" lon="6.70503">
        <ele>2260.68</ele>
        <time>2011-03-22T09:05:53Z</time>
      </trkpt>
      <trkpt lat="44.45186" lon="6.70501">
        <ele>2260.68</ele>
        <time>2011-03-22T09:05:57Z</time>
      </trkpt>
      <trkpt lat="44.45181" lon="6.70496">
        <ele>2261.64</ele>
        <time>2011-03-22T09:06:04Z</time>
      </trkpt>
      <trkpt lat="44.45176" lon="6.7049">
        <ele>2262.12</ele>
        <time>2011-03-22T09:06:12Z</time>
      </trkpt>
      <trkpt lat="44.45172" lon="6.70485">
        <ele>2263.08</ele>
        <time>2011-03-22T09:06:20Z</time>
      </trkpt>
      <trkpt lat="44.45166" lon="6.70475">
        <ele>2265</ele>
        <time>2011-03-22T09:06:33Z</time>
      </trkpt>
      <trkpt lat="44.45161" lon="6.7047">
        <ele>2265.48</ele>
        <time>2011-03-22T09:06:41Z</time>
      </trkpt>
      <trkpt lat="44.45159" lon="6.70467">
        <ele>2265.96</ele>
        <time>2011-03-22T09:06:45Z</time>
      </trkpt>
      <trkpt lat="44.45152" lon="6.70457">
        <ele>2266.93</ele>
        <time>2011-03-22T09:06:59Z</time>
      </trkpt>
      <trkpt lat="44.45148" lon="6.70454">
        <ele>2266.93</ele>
        <time>2011-03-22T09:07:05Z</time>
      </trkpt>
      <trkpt lat="44.45142" lon="6.70443">
        <ele>2268.37</ele>
        <time>2011-03-22T09:07:18Z</time>
      </trkpt>
      <trkpt lat="44.45138" lon="6.70433">
        <ele>2270.29</ele>
        <time>2011-03-22T09:07:31Z</time>
      </trkpt>
      <trkpt lat="44.45139" lon="6.7042">
        <ele>2272.21</ele>
        <time>2011-03-22T09:07:44Z</time>
      </trkpt>
      <trkpt lat="44.45137" lon="6.70412">
        <ele>2273.17</ele>
        <time>2011-03-22T09:07:55Z</time>
      </trkpt>
      <trkpt lat="44.4513" lon="6.70402">
        <ele>2275.58</ele>
        <time>2011-03-22T09:08:09Z</time>
      </trkpt>
      <trkpt lat="44.45128" lon="6.70397">
        <ele>2276.06</ele>
        <time>2011-03-22T09:08:20Z</time>
      </trkpt>
      <trkpt lat="44.45121" lon="6.70389">
        <ele>2277.98</ele>
        <time>2011-03-22T09:08:33Z</time>
      </trkpt>
      <trkpt lat="44.45115" lon="6.70384">
        <ele>2279.9</ele>
        <time>2011-03-22T09:08:46Z</time>
      </trkpt>
      <trkpt lat="44.45112" lon="6.70381">
        <ele>2280.87</ele>
        <time>2011-03-22T09:08:57Z</time>
      </trkpt>
      <trkpt lat="44.45105" lon="6.70377">
        <ele>2282.79</ele>
        <time>2011-03-22T09:09:08Z</time>
      </trkpt>
      <trkpt lat="44.45099" lon="6.70371">
        <ele>2285.19</ele>
        <time>2011-03-22T09:09:20Z</time>
      </trkpt>
      <trkpt lat="44.45093" lon="6.70366">
        <ele>2286.63</ele>
        <time>2011-03-22T09:09:31Z</time>
      </trkpt>
      <trkpt lat="44.45087" lon="6.70358">
        <ele>2288.08</ele>
        <time>2011-03-22T09:09:44Z</time>
      </trkpt>
      <trkpt lat="44.45081" lon="6.70352">
        <ele>2289.52</ele>
        <time>2011-03-22T09:09:56Z</time>
      </trkpt>
      <trkpt lat="44.45075" lon="6.70345">
        <ele>2291.44</ele>
        <time>2011-03-22T09:10:09Z</time>
      </trkpt>
      <trkpt lat="44.45067" lon="6.70335">
        <ele>2292.88</ele>
        <time>2011-03-22T09:10:23Z</time>
      </trkpt>
      <trkpt lat="44.45067" lon="6.70335">
        <ele>2292.88</ele>
        <time>2011-03-22T09:10:24Z</time>
      </trkpt>
      <trkpt lat="44.45064" lon="6.70328">
        <ele>2293.84</ele>
        <time>2011-03-22T09:10:32Z</time>
      </trkpt>
      <trkpt lat="44.4506" lon="6.70316">
        <ele>2295.28</ele>
        <time>2011-03-22T09:10:45Z</time>
      </trkpt>
      <trkpt lat="44.4506" lon="6.70309">
        <ele>2295.28</ele>
        <time>2011-03-22T09:10:51Z</time>
      </trkpt>
      <trkpt lat="44.45057" lon="6.70303">
        <ele>2295.77</ele>
        <time>2011-03-22T09:11:00Z</time>
      </trkpt>
      <trkpt lat="44.45058" lon="6.70299">
        <ele>2296.25</ele>
        <time>2011-03-22T09:11:02Z</time>
      </trkpt>
      <trkpt lat="44.45061" lon="6.7028">
        <ele>2296.73</ele>
        <time>2011-03-22T09:11:16Z</time>
      </trkpt>
      <trkpt lat="44.45062" lon="6.70279">
        <ele>2296.73</ele>
        <time>2011-03-22T09:11:17Z</time>
      </trkpt>
      <trkpt lat="44.45061" lon="6.70279">
        <ele>2296.73</ele>
        <time>2011-03-22T09:11:20Z</time>
      </trkpt>
      <trkpt lat="44.45061" lon="6.70278">
        <ele>2297.21</ele>
        <time>2011-03-22T09:11:26Z</time>
      </trkpt>
      <trkpt lat="44.45066" lon="6.70259">
        <ele>2298.17</ele>
        <time>2011-03-22T09:11:40Z</time>
      </trkpt>
      <trkpt lat="44.45066" lon="6.70256">
        <ele>2298.65</ele>
        <time>2011-03-22T09:11:42Z</time>
      </trkpt>
      <trkpt lat="44.45067" lon="6.70241">
        <ele>2298.65</ele>
        <time>2011-03-22T09:11:52Z</time>
      </trkpt>
      <trkpt lat="44.45065" lon="6.70238">
        <ele>2299.61</ele>
        <time>2011-03-22T09:11:56Z</time>
      </trkpt>
      <trkpt lat="44.45062" lon="6.70226">
        <ele>2300.57</ele>
        <time>2011-03-22T09:12:09Z</time>
      </trkpt>
      <trkpt lat="44.45058" lon="6.70219">
        <ele>2302.01</ele>
        <time>2011-03-22T09:12:21Z</time>
      </trkpt>
      <trkpt lat="44.45057" lon="6.70205">
        <ele>2303.94</ele>
        <time>2011-03-22T09:12:32Z</time>
      </trkpt>
      <trkpt lat="44.45054" lon="6.70193">
        <ele>2304.9</ele>
        <time>2011-03-22T09:12:46Z</time>
      </trkpt>
      <trkpt lat="44.45053" lon="6.70178">
        <ele>2306.82</ele>
        <time>2011-03-22T09:12:59Z</time>
      </trkpt>
      <trkpt lat="44.45051" lon="6.70166">
        <ele>2307.3</ele>
        <time>2011-03-22T09:13:10Z</time>
      </trkpt>
      <trkpt lat="44.4505" lon="6.70162">
        <ele>2307.78</ele>
        <time>2011-03-22T09:13:14Z</time>
      </trkpt>
      <trkpt lat="44.45048" lon="6.7015">
        <ele>2308.74</ele>
        <time>2011-03-22T09:13:27Z</time>
      </trkpt>
      <trkpt lat="44.45047" lon="6.70139">
        <ele>2310.19</ele>
        <time>2011-03-22T09:13:40Z</time>
      </trkpt>
      <trkpt lat="44.45044" lon="6.70134">
        <ele>2312.11</ele>
        <time>2011-03-22T09:13:51Z</time>
      </trkpt>
      <trkpt lat="44.45045" lon="6.70125">
        <ele>2314.03</ele>
        <time>2011-03-22T09:14:03Z</time>
      </trkpt>
      <trkpt lat="44.45045" lon="6.70118">
        <ele>2315.95</ele>
        <time>2011-03-22T09:14:13Z</time>
      </trkpt>
      <trkpt lat="44.45039" lon="6.70109">
        <ele>2317.88</ele>
        <time>2011-03-22T09:14:28Z</time>
      </trkpt>
      <trkpt lat="44.45034" lon="6.70104">
        <ele>2319.32</ele>
        <time>2011-03-22T09:14:40Z</time>
      </trkpt>
      <trkpt lat="44.45026" lon="6.70096">
        <ele>2321.72</ele>
        <time>2011-03-22T09:14:53Z</time>
      </trkpt>
      <trkpt lat="44.4502" lon="6.70089">
        <ele>2322.2</ele>
        <time>2011-03-22T09:15:06Z</time>
      </trkpt>
      <trkpt lat="44.45018" lon="6.70087">
        <ele>2322.68</ele>
        <time>2011-03-22T09:15:08Z</time>
      </trkpt>
      <trkpt lat="44.45014" lon="6.70078">
        <ele>2324.61</ele>
        <time>2011-03-22T09:15:20Z</time>
      </trkpt>
      <trkpt lat="44.4501" lon="6.70073">
        <ele>2325.09</ele>
        <time>2011-03-22T09:15:27Z</time>
      </trkpt>
      <trkpt lat="44.45008" lon="6.7007">
        <ele>2326.05</ele>
        <time>2011-03-22T09:15:31Z</time>
      </trkpt>
      <trkpt lat="44.45007" lon="6.70065">
        <ele>2326.53</ele>
        <time>2011-03-22T09:15:36Z</time>
      </trkpt>
      <trkpt lat="44.45004" lon="6.70058">
        <ele>2327.49</ele>
        <time>2011-03-22T09:15:44Z</time>
      </trkpt>
      <trkpt lat="44.45002" lon="6.70047">
        <ele>2328.45</ele>
        <time>2011-03-22T09:15:57Z</time>
      </trkpt>
      <trkpt lat="44.45" lon="6.70039">
        <ele>2328.93</ele>
        <time>2011-03-22T09:16:03Z</time>
      </trkpt>
      <trkpt lat="44.44999" lon="6.70037">
        <ele>2329.41</ele>
        <time>2011-03-22T09:16:07Z</time>
      </trkpt>
      <trkpt lat="44.44999" lon="6.70034">
        <ele>2329.89</ele>
        <time>2011-03-22T09:16:11Z</time>
      </trkpt>
      <trkpt lat="44.44999" lon="6.70031">
        <ele>2330.37</ele>
        <time>2011-03-22T09:16:14Z</time>
      </trkpt>
      <trkpt lat="44.44999" lon="6.70017">
        <ele>2331.33</ele>
        <time>2011-03-22T09:16:26Z</time>
      </trkpt>
      <trkpt lat="44.45" lon="6.70011">
        <ele>2331.33</ele>
        <time>2011-03-22T09:16:30Z</time>
      </trkpt>
      <trkpt lat="44.45002" lon="6.69995">
        <ele>2332.78</ele>
        <time>2011-03-22T09:16:42Z</time>
      </trkpt>
      <trkpt lat="44.45004" lon="6.69982">
        <ele>2333.26</ele>
        <time>2011-03-22T09:16:54Z</time>
      </trkpt>
      <trkpt lat="44.45004" lon="6.69967">
        <ele>2333.74</ele>
        <time>2011-03-22T09:17:07Z</time>
      </trkpt>
      <trkpt lat="44.45005" lon="6.69964">
        <ele>2334.7</ele>
        <time>2011-03-22T09:17:10Z</time>
      </trkpt>
      <trkpt lat="44.45004" lon="6.6995">
        <ele>2335.66</ele>
        <time>2011-03-22T09:17:24Z</time>
      </trkpt>
      <trkpt lat="44.45002" lon="6.69938">
        <ele>2337.58</ele>
        <time>2011-03-22T09:17:36Z</time>
      </trkpt>
      <trkpt lat="44.45002" lon="6.69934">
        <ele>2338.06</ele>
        <time>2011-03-22T09:17:41Z</time>
      </trkpt>
      <trkpt lat="44.44999" lon="6.69922">
        <ele>2339.02</ele>
        <time>2011-03-22T09:17:56Z</time>
      </trkpt>
      <trkpt lat="44.44997" lon="6.69911">
        <ele>2339.99</ele>
        <time>2011-03-22T09:18:08Z</time>
      </trkpt>
      <trkpt lat="44.44998" lon="6.69898">
        <ele>2341.43</ele>
        <time>2011-03-22T09:18:21Z</time>
      </trkpt>
      <trkpt lat="44.44998" lon="6.69886">
        <ele>2343.35</ele>
        <time>2011-03-22T09:18:33Z</time>
      </trkpt>
      <trkpt lat="44.44997" lon="6.69876">
        <ele>2344.31</ele>
        <time>2011-03-22T09:18:45Z</time>
      </trkpt>
      <trkpt lat="44.44999" lon="6.6987">
        <ele>2344.79</ele>
        <time>2011-03-22T09:18:59Z</time>
      </trkpt>
      <trkpt lat="44.44999" lon="6.69865">
        <ele>2346.23</ele>
        <time>2011-03-22T09:19:10Z</time>
      </trkpt>
      <trkpt lat="44.44997" lon="6.69855">
        <ele>2348.16</ele>
        <time>2011-03-22T09:19:23Z</time>
      </trkpt>
      <trkpt lat="44.44995" lon="6.69848">
        <ele>2350.08</ele>
        <time>2011-03-22T09:19:35Z</time>
      </trkpt>
      <trkpt lat="44.44993" lon="6.69838">
        <ele>2352</ele>
        <time>2011-03-22T09:19:49Z</time>
      </trkpt>
      <trkpt lat="44.44991" lon="6.69827">
        <ele>2353.93</ele>
        <time>2011-03-22T09:20:01Z</time>
      </trkpt>
      <trkpt lat="44.44989" lon="6.69817">
        <ele>2356.33</ele>
        <time>2011-03-22T09:20:15Z</time>
      </trkpt>
      <trkpt lat="44.44985" lon="6.69808">
        <ele>2357.77</ele>
        <time>2011-03-22T09:20:27Z</time>
      </trkpt>
      <trkpt lat="44.44981" lon="6.698">
        <ele>2359.69</ele>
        <time>2011-03-22T09:20:40Z</time>
      </trkpt>
      <trkpt lat="44.44976" lon="6.69794">
        <ele>2360.65</ele>
        <time>2011-03-22T09:20:52Z</time>
      </trkpt>
      <trkpt lat="44.44969" lon="6.69789">
        <ele>2363.06</ele>
        <time>2011-03-22T09:21:06Z</time>
      </trkpt>
      <trkpt lat="44.44965" lon="6.69787">
        <ele>2364.98</ele>
        <time>2011-03-22T09:21:19Z</time>
      </trkpt>
      <trkpt lat="44.44967" lon="6.69778">
        <ele>2366.9</ele>
        <time>2011-03-22T09:21:31Z</time>
      </trkpt>
      <trkpt lat="44.44965" lon="6.69772">
        <ele>2368.83</ele>
        <time>2011-03-22T09:21:41Z</time>
      </trkpt>
      <trkpt lat="44.44961" lon="6.69767">
        <ele>2370.27</ele>
        <time>2011-03-22T09:21:53Z</time>
      </trkpt>
      <trkpt lat="44.44958" lon="6.69756">
        <ele>2372.19</ele>
        <time>2011-03-22T09:22:07Z</time>
      </trkpt>
      <trkpt lat="44.44956" lon="6.69743">
        <ele>2374.11</ele>
        <time>2011-03-22T09:22:21Z</time>
      </trkpt>
      <trkpt lat="44.44956" lon="6.69732">
        <ele>2376.04</ele>
        <time>2011-03-22T09:22:34Z</time>
      </trkpt>
      <trkpt lat="44.44957" lon="6.69719">
        <ele>2377.48</ele>
        <time>2011-03-22T09:22:48Z</time>
      </trkpt>
      <trkpt lat="44.44956" lon="6.69708">
        <ele>2378.92</ele>
        <time>2011-03-22T09:23:01Z</time>
      </trkpt>
      <trkpt lat="44.44955" lon="6.697">
        <ele>2380.36</ele>
        <time>2011-03-22T09:23:14Z</time>
      </trkpt>
      <trkpt lat="44.44955" lon="6.69692">
        <ele>2382.28</ele>
        <time>2011-03-22T09:23:26Z</time>
      </trkpt>
      <trkpt lat="44.44955" lon="6.69682">
        <ele>2383.73</ele>
        <time>2011-03-22T09:23:37Z</time>
      </trkpt>
      <trkpt lat="44.44957" lon="6.69675">
        <ele>2385.17</ele>
        <time>2011-03-22T09:23:48Z</time>
      </trkpt>
      <trkpt lat="44.44956" lon="6.69663">
        <ele>2387.57</ele>
        <time>2011-03-22T09:24:02Z</time>
      </trkpt>
      <trkpt lat="44.44957" lon="6.69656">
        <ele>2389.49</ele>
        <time>2011-03-22T09:24:15Z</time>
      </trkpt>
      <trkpt lat="44.4496" lon="6.6965">
        <ele>2390.94</ele>
        <time>2011-03-22T09:24:29Z</time>
      </trkpt>
      <trkpt lat="44.44961" lon="6.69643">
        <ele>2393.34</ele>
        <time>2011-03-22T09:24:43Z</time>
      </trkpt>
      <trkpt lat="44.44963" lon="6.69636">
        <ele>2394.78</ele>
        <time>2011-03-22T09:24:54Z</time>
      </trkpt>
      <trkpt lat="44.44966" lon="6.6963">
        <ele>2397.18</ele>
        <time>2011-03-22T09:25:07Z</time>
      </trkpt>
      <trkpt lat="44.44967" lon="6.69623">
        <ele>2399.11</ele>
        <time>2011-03-22T09:25:19Z</time>
      </trkpt>
      <trkpt lat="44.44964" lon="6.69618">
        <ele>2400.07</ele>
        <time>2011-03-22T09:25:31Z</time>
      </trkpt>
      <trkpt lat="44.44962" lon="6.69611">
        <ele>2402.47</ele>
        <time>2011-03-22T09:25:45Z</time>
      </trkpt>
      <trkpt lat="44.44962" lon="6.69602">
        <ele>2403.91</ele>
        <time>2011-03-22T09:25:57Z</time>
      </trkpt>
      <trkpt lat="44.44967" lon="6.69597">
        <ele>2405.36</ele>
        <time>2011-03-22T09:26:08Z</time>
      </trkpt>
      <trkpt lat="44.44966" lon="6.69594">
        <ele>2406.8</ele>
        <time>2011-03-22T09:26:19Z</time>
      </trkpt>
      <trkpt lat="44.44964" lon="6.69586">
        <ele>2408.72</ele>
        <time>2011-03-22T09:26:31Z</time>
      </trkpt>
      <trkpt lat="44.4496" lon="6.69578">
        <ele>2410.64</ele>
        <time>2011-03-22T09:26:42Z</time>
      </trkpt>
      <trkpt lat="44.44958" lon="6.6957">
        <ele>2412.09</ele>
        <time>2011-03-22T09:26:56Z</time>
      </trkpt>
      <trkpt lat="44.44953" lon="6.69561">
        <ele>2414.49</ele>
        <time>2011-03-22T09:27:10Z</time>
      </trkpt>
      <trkpt lat="44.4495" lon="6.69552">
        <ele>2415.93</ele>
        <time>2011-03-22T09:27:22Z</time>
      </trkpt>
      <trkpt lat="44.44947" lon="6.69545">
        <ele>2417.85</ele>
        <time>2011-03-22T09:27:36Z</time>
      </trkpt>
      <trkpt lat="44.44943" lon="6.69536">
        <ele>2419.78</ele>
        <time>2011-03-22T09:27:49Z</time>
      </trkpt>
      <trkpt lat="44.44938" lon="6.69528">
        <ele>2421.7</ele>
        <time>2011-03-22T09:28:02Z</time>
      </trkpt>
      <trkpt lat="44.44933" lon="6.69521">
        <ele>2423.14</ele>
        <time>2011-03-22T09:28:15Z</time>
      </trkpt>
      <trkpt lat="44.44929" lon="6.69515">
        <ele>2425.06</ele>
        <time>2011-03-22T09:28:30Z</time>
      </trkpt>
      <trkpt lat="44.44927" lon="6.69509">
        <ele>2427.95</ele>
        <time>2011-03-22T09:28:43Z</time>
      </trkpt>
      <trkpt lat="44.44924" lon="6.695">
        <ele>2429.39</ele>
        <time>2011-03-22T09:28:56Z</time>
      </trkpt>
      <trkpt lat="44.4492" lon="6.6949">
        <ele>2431.31</ele>
        <time>2011-03-22T09:29:09Z</time>
      </trkpt>
      <trkpt lat="44.44915" lon="6.69479">
        <ele>2433.71</ele>
        <time>2011-03-22T09:29:23Z</time>
      </trkpt>
      <trkpt lat="44.44913" lon="6.69469">
        <ele>2435.16</ele>
        <time>2011-03-22T09:29:35Z</time>
      </trkpt>
      <trkpt lat="44.4491" lon="6.69461">
        <ele>2437.56</ele>
        <time>2011-03-22T09:29:47Z</time>
      </trkpt>
      <trkpt lat="44.44906" lon="6.69451">
        <ele>2438.52</ele>
        <time>2011-03-22T09:30:01Z</time>
      </trkpt>
      <trkpt lat="44.44904" lon="6.69444">
        <ele>2439.96</ele>
        <time>2011-03-22T09:30:12Z</time>
      </trkpt>
      <trkpt lat="44.44902" lon="6.6944">
        <ele>2440.44</ele>
        <time>2011-03-22T09:30:24Z</time>
      </trkpt>
      <trkpt lat="44.44902" lon="6.6944">
        <ele>2440.92</ele>
        <time>2011-03-22T09:30:45Z</time>
      </trkpt>
      <trkpt lat="44.44901" lon="6.69442">
        <ele>2439.96</ele>
        <time>2011-03-22T09:31:08Z</time>
      </trkpt>
      <trkpt lat="44.44901" lon="6.69442">
        <ele>2439.48</ele>
        <time>2011-03-22T09:31:24Z</time>
      </trkpt>
      <trkpt lat="44.44901" lon="6.69442">
        <ele>2439.48</ele>
        <time>2011-03-22T09:31:55Z</time>
      </trkpt>
      <trkpt lat="44.44901" lon="6.69442">
        <ele>2438.52</ele>
        <time>2011-03-22T09:32:27Z</time>
      </trkpt>
      <trkpt lat="44.44901" lon="6.69442">
        <ele>2438.52</ele>
        <time>2011-03-22T09:33:01Z</time>
      </trkpt>
      <trkpt lat="44.44901" lon="6.69442">
        <ele>2438.52</ele>
        <time>2011-03-22T09:33:39Z</time>
      </trkpt>
      <trkpt lat="44.44901" lon="6.69443">
        <ele>2438.04</ele>
        <time>2011-03-22T09:34:19Z</time>
      </trkpt>
      <trkpt lat="44.44901" lon="6.69443">
        <ele>2434.68</ele>
        <time>2011-03-22T09:34:30Z</time>
      </trkpt>
      <trkpt lat="44.44901" lon="6.69443">
        <ele>2439.48</ele>
        <time>2011-03-22T09:34:31Z</time>
      </trkpt>
      <trkpt lat="44.449" lon="6.69443">
        <ele>2439</ele>
        <time>2011-03-22T09:35:06Z</time>
      </trkpt>
      <trkpt lat="44.449" lon="6.69443">
        <ele>2439.48</ele>
        <time>2011-03-22T09:35:33Z</time>
      </trkpt>
      <trkpt lat="44.449" lon="6.69443">
        <ele>2438.52</ele>
        <time>2011-03-22T09:36:05Z</time>
      </trkpt>
      <trkpt lat="44.449" lon="6.69444">
        <ele>2439</ele>
        <time>2011-03-22T09:36:30Z</time>
      </trkpt>
      <trkpt lat="44.44901" lon="6.69443">
        <ele>2439</ele>
        <time>2011-03-22T09:36:53Z</time>
      </trkpt>
      <trkpt lat="44.44901" lon="6.69443">
        <ele>2438.52</ele>
        <time>2011-03-22T09:37:14Z</time>
      </trkpt>
      <trkpt lat="44.449" lon="6.69443">
        <ele>2438.04</ele>
        <time>2011-03-22T09:37:33Z</time>
      </trkpt>
      <trkpt lat="44.44901" lon="6.69442">
        <ele>2438.04</ele>
        <time>2011-03-22T09:38:03Z</time>
      </trkpt>
      <trkpt lat="44.44901" lon="6.69443">
        <ele>2437.56</ele>
        <time>2011-03-22T09:38:16Z</time>
      </trkpt>
      <trkpt lat="44.44901" lon="6.69443">
        <ele>2437.56</ele>
        <time>2011-03-22T09:38:37Z</time>
      </trkpt>
      <trkpt lat="44.44901" lon="6.69443">
        <ele>2437.56</ele>
        <time>2011-03-22T09:38:58Z</time>
      </trkpt>
      <trkpt lat="44.44901" lon="6.69443">
        <ele>2438.04</ele>
        <time>2011-03-22T09:39:24Z</time>
      </trkpt>
      <trkpt lat="44.44901" lon="6.69443">
        <ele>2438.04</ele>
        <time>2011-03-22T09:39:45Z</time>
      </trkpt>
      <trkpt lat="44.44901" lon="6.69443">
        <ele>2437.56</ele>
        <time>2011-03-22T09:40:09Z</time>
      </trkpt>
      <trkpt lat="44.44902" lon="6.69443">
        <ele>2437.56</ele>
        <time>2011-03-22T09:40:37Z</time>
      </trkpt>
      <trkpt lat="44.44902" lon="6.69441">
        <ele>2438.04</ele>
        <time>2011-03-22T09:40:53Z</time>
      </trkpt>
      <trkpt lat="44.44901" lon="6.69441">
        <ele>2437.56</ele>
        <time>2011-03-22T09:41:10Z</time>
      </trkpt>
      <trkpt lat="44.44901" lon="6.69441">
        <ele>2437.56</ele>
        <time>2011-03-22T09:41:36Z</time>
      </trkpt>
      <trkpt lat="44.44901" lon="6.6944">
        <ele>2438.52</ele>
        <time>2011-03-22T09:41:50Z</time>
      </trkpt>
      <trkpt lat="44.44899" lon="6.69432">
        <ele>2439.48</ele>
        <time>2011-03-22T09:42:06Z</time>
      </trkpt>
      <trkpt lat="44.44895" lon="6.69423">
        <ele>2440.44</ele>
        <time>2011-03-22T09:42:15Z</time>
      </trkpt>
      <trkpt lat="44.4489" lon="6.6941">
        <ele>2441.89</ele>
        <time>2011-03-22T09:42:30Z</time>
      </trkpt>
      <trkpt lat="44.44887" lon="6.69397">
        <ele>2443.33</ele>
        <time>2011-03-22T09:42:43Z</time>
      </trkpt>
      <trkpt lat="44.44885" lon="6.69385">
        <ele>2444.77</ele>
        <time>2011-03-22T09:42:56Z</time>
      </trkpt>
      <trkpt lat="44.44878" lon="6.6938">
        <ele>2446.69</ele>
        <time>2011-03-22T09:43:08Z</time>
      </trkpt>
      <trkpt lat="44.44875" lon="6.69372">
        <ele>2448.13</ele>
        <time>2011-03-22T09:43:21Z</time>
      </trkpt>
      <trkpt lat="44.44872" lon="6.6936">
        <ele>2450.54</ele>
        <time>2011-03-22T09:43:35Z</time>
      </trkpt>
      <trkpt lat="44.4487" lon="6.69354">
        <ele>2451.98</ele>
        <time>2011-03-22T09:43:46Z</time>
      </trkpt>
      <trkpt lat="44.44865" lon="6.69351">
        <ele>2453.42</ele>
        <time>2011-03-22T09:43:58Z</time>
      </trkpt>
      <trkpt lat="44.44863" lon="6.69344">
        <ele>2454.86</ele>
        <time>2011-03-22T09:44:08Z</time>
      </trkpt>
      <trkpt lat="44.44859" lon="6.69334">
        <ele>2456.31</ele>
        <time>2011-03-22T09:44:20Z</time>
      </trkpt>
      <trkpt lat="44.44855" lon="6.69323">
        <ele>2458.71</ele>
        <time>2011-03-22T09:44:34Z</time>
      </trkpt>
      <trkpt lat="44.4485" lon="6.69315">
        <ele>2460.15</ele>
        <time>2011-03-22T09:44:46Z</time>
      </trkpt>
      <trkpt lat="44.44844" lon="6.69306">
        <ele>2461.11</ele>
        <time>2011-03-22T09:44:59Z</time>
      </trkpt>
      <trkpt lat="44.44838" lon="6.69301">
        <ele>2462.07</ele>
        <time>2011-03-22T09:45:12Z</time>
      </trkpt>
      <trkpt lat="44.44834" lon="6.69288">
        <ele>2464</ele>
        <time>2011-03-22T09:45:26Z</time>
      </trkpt>
      <trkpt lat="44.4483" lon="6.69278">
        <ele>2465.44</ele>
        <time>2011-03-22T09:45:38Z</time>
      </trkpt>
      <trkpt lat="44.44827" lon="6.69267">
        <ele>2466.88</ele>
        <time>2011-03-22T09:45:52Z</time>
      </trkpt>
      <trkpt lat="44.44823" lon="6.69259">
        <ele>2469.28</ele>
        <time>2011-03-22T09:46:06Z</time>
      </trkpt>
      <trkpt lat="44.44817" lon="6.69249">
        <ele>2471.21</ele>
        <time>2011-03-22T09:46:20Z</time>
      </trkpt>
      <trkpt lat="44.44812" lon="6.69242">
        <ele>2473.13</ele>
        <time>2011-03-22T09:46:33Z</time>
      </trkpt>
      <trkpt lat="44.44807" lon="6.69235">
        <ele>2475.05</ele>
        <time>2011-03-22T09:46:46Z</time>
      </trkpt>
      <trkpt lat="44.44801" lon="6.69237">
        <ele>2476.49</ele>
        <time>2011-03-22T09:46:58Z</time>
      </trkpt>
      <trkpt lat="44.44796" lon="6.69242">
        <ele>2478.9</ele>
        <time>2011-03-22T09:47:11Z</time>
      </trkpt>
      <trkpt lat="44.44791" lon="6.69241">
        <ele>2480.34</ele>
        <time>2011-03-22T09:47:21Z</time>
      </trkpt>
      <trkpt lat="44.44786" lon="6.69236">
        <ele>2482.26</ele>
        <time>2011-03-22T09:47:34Z</time>
      </trkpt>
      <trkpt lat="44.44781" lon="6.69232">
        <ele>2484.66</ele>
        <time>2011-03-22T09:47:47Z</time>
      </trkpt>
      <trkpt lat="44.44778" lon="6.69223">
        <ele>2487.07</ele>
        <time>2011-03-22T09:48:00Z</time>
      </trkpt>
      <trkpt lat="44.44774" lon="6.69218">
        <ele>2488.03</ele>
        <time>2011-03-22T09:48:12Z</time>
      </trkpt>
      <trkpt lat="44.4477" lon="6.69211">
        <ele>2490.43</ele>
        <time>2011-03-22T09:48:24Z</time>
      </trkpt>
      <trkpt lat="44.44766" lon="6.69202">
        <ele>2492.36</ele>
        <time>2011-03-22T09:48:38Z</time>
      </trkpt>
      <trkpt lat="44.44764" lon="6.69198">
        <ele>2493.8</ele>
        <time>2011-03-22T09:48:52Z</time>
      </trkpt>
      <trkpt lat="44.44766" lon="6.69189">
        <ele>2494.28</ele>
        <time>2011-03-22T09:49:06Z</time>
      </trkpt>
      <trkpt lat="44.44764" lon="6.69183">
        <ele>2495.24</ele>
        <time>2011-03-22T09:49:18Z</time>
      </trkpt>
      <trkpt lat="44.44762" lon="6.69183">
        <ele>2495.72</ele>
        <time>2011-03-22T09:49:51Z</time>
      </trkpt>
      <trkpt lat="44.44763" lon="6.69177">
        <ele>2496.2</ele>
        <time>2011-03-22T09:50:12Z</time>
      </trkpt>
      <trkpt lat="44.44763" lon="6.69174">
        <ele>2496.2</ele>
        <time>2011-03-22T09:50:44Z</time>
      </trkpt>
      <trkpt lat="44.44763" lon="6.6916">
        <ele>2497.64</ele>
        <time>2011-03-22T09:50:57Z</time>
      </trkpt>
      <trkpt lat="44.44762" lon="6.69146">
        <ele>2499.08</ele>
        <time>2011-03-22T09:51:11Z</time>
      </trkpt>
      <trkpt lat="44.44763" lon="6.69136">
        <ele>2500.05</ele>
        <time>2011-03-22T09:51:24Z</time>
      </trkpt>
      <trkpt lat="44.44763" lon="6.69125">
        <ele>2501.97</ele>
        <time>2011-03-22T09:51:38Z</time>
      </trkpt>
      <trkpt lat="44.44764" lon="6.69117">
        <ele>2503.89</ele>
        <time>2011-03-22T09:51:50Z</time>
      </trkpt>
      <trkpt lat="44.44762" lon="6.69114">
        <ele>2505.33</ele>
        <time>2011-03-22T09:52:04Z</time>
      </trkpt>
      <trkpt lat="44.4476" lon="6.6911">
        <ele>2507.74</ele>
        <time>2011-03-22T09:52:18Z</time>
      </trkpt>
      <trkpt lat="44.44761" lon="6.69106">
        <ele>2509.18</ele>
        <time>2011-03-22T09:52:31Z</time>
      </trkpt>
      <trkpt lat="44.44765" lon="6.691">
        <ele>2510.62</ele>
        <time>2011-03-22T09:52:42Z</time>
      </trkpt>
      <trkpt lat="44.44771" lon="6.69092">
        <ele>2512.54</ele>
        <time>2011-03-22T09:52:56Z</time>
      </trkpt>
      <trkpt lat="44.44772" lon="6.69087">
        <ele>2514.95</ele>
        <time>2011-03-22T09:53:08Z</time>
      </trkpt>
      <trkpt lat="44.44777" lon="6.69076">
        <ele>2516.87</ele>
        <time>2011-03-22T09:53:23Z</time>
      </trkpt>
      <trkpt lat="44.44779" lon="6.69068">
        <ele>2518.79</ele>
        <time>2011-03-22T09:53:36Z</time>
      </trkpt>
      <trkpt lat="44.4478" lon="6.69058">
        <ele>2520.71</ele>
        <time>2011-03-22T09:53:51Z</time>
      </trkpt>
      <trkpt lat="44.44778" lon="6.6905">
        <ele>2523.12</ele>
        <time>2011-03-22T09:54:05Z</time>
      </trkpt>
      <trkpt lat="44.44775" lon="6.69041">
        <ele>2524.08</ele>
        <time>2011-03-22T09:54:17Z</time>
      </trkpt>
      <trkpt lat="44.44772" lon="6.69031">
        <ele>2525.52</ele>
        <time>2011-03-22T09:54:30Z</time>
      </trkpt>
      <trkpt lat="44.44768" lon="6.69023">
        <ele>2526.96</ele>
        <time>2011-03-22T09:54:43Z</time>
      </trkpt>
      <trkpt lat="44.44768" lon="6.69014">
        <ele>2528.89</ele>
        <time>2011-03-22T09:54:56Z</time>
      </trkpt>
      <trkpt lat="44.44768" lon="6.69006">
        <ele>2530.81</ele>
        <time>2011-03-22T09:55:07Z</time>
      </trkpt>
      <trkpt lat="44.44766" lon="6.69003">
        <ele>2532.73</ele>
        <time>2011-03-22T09:55:20Z</time>
      </trkpt>
      <trkpt lat="44.4476" lon="6.68997">
        <ele>2534.17</ele>
        <time>2011-03-22T09:55:33Z</time>
      </trkpt>
      <trkpt lat="44.44758" lon="6.68992">
        <ele>2536.58</ele>
        <time>2011-03-22T09:55:47Z</time>
      </trkpt>
      <trkpt lat="44.44754" lon="6.68986">
        <ele>2538.5</ele>
        <time>2011-03-22T09:56:00Z</time>
      </trkpt>
      <trkpt lat="44.44751" lon="6.68976">
        <ele>2540.42</ele>
        <time>2011-03-22T09:56:14Z</time>
      </trkpt>
      <trkpt lat="44.44745" lon="6.68968">
        <ele>2542.34</ele>
        <time>2011-03-22T09:56:28Z</time>
      </trkpt>
      <trkpt lat="44.44741" lon="6.68965">
        <ele>2544.27</ele>
        <time>2011-03-22T09:56:42Z</time>
      </trkpt>
      <trkpt lat="44.44736" lon="6.68963">
        <ele>2545.71</ele>
        <time>2011-03-22T09:56:53Z</time>
      </trkpt>
      <trkpt lat="44.44732" lon="6.68957">
        <ele>2546.67</ele>
        <time>2011-03-22T09:57:05Z</time>
      </trkpt>
      <trkpt lat="44.44733" lon="6.68948">
        <ele>2547.63</ele>
        <time>2011-03-22T09:57:20Z</time>
      </trkpt>
      <trkpt lat="44.44733" lon="6.68938">
        <ele>2549.07</ele>
        <time>2011-03-22T09:57:32Z</time>
      </trkpt>
      <trkpt lat="44.44734" lon="6.68927">
        <ele>2551</ele>
        <time>2011-03-22T09:57:46Z</time>
      </trkpt>
      <trkpt lat="44.44736" lon="6.6892">
        <ele>2552.44</ele>
        <time>2011-03-22T09:57:59Z</time>
      </trkpt>
      <trkpt lat="44.44738" lon="6.68909">
        <ele>2554.36</ele>
        <time>2011-03-22T09:58:14Z</time>
      </trkpt>
      <trkpt lat="44.44738" lon="6.68897">
        <ele>2556.28</ele>
        <time>2011-03-22T09:58:27Z</time>
      </trkpt>
      <trkpt lat="44.44739" lon="6.68889">
        <ele>2558.21</ele>
        <time>2011-03-22T09:58:39Z</time>
      </trkpt>
      <trkpt lat="44.44741" lon="6.68878">
        <ele>2560.13</ele>
        <time>2011-03-22T09:58:54Z</time>
      </trkpt>
      <trkpt lat="44.44741" lon="6.68875">
        <ele>2561.09</ele>
        <time>2011-03-22T09:59:04Z</time>
      </trkpt>
      <trkpt lat="44.44735" lon="6.6887">
        <ele>2563.01</ele>
        <time>2011-03-22T09:59:17Z</time>
      </trkpt>
      <trkpt lat="44.44732" lon="6.68867">
        <ele>2564.93</ele>
        <time>2011-03-22T09:59:28Z</time>
      </trkpt>
      <trkpt lat="44.44728" lon="6.68862">
        <ele>2565.9</ele>
        <time>2011-03-22T09:59:41Z</time>
      </trkpt>
      <trkpt lat="44.44723" lon="6.68856">
        <ele>2568.3</ele>
        <time>2011-03-22T09:59:53Z</time>
      </trkpt>
      <trkpt lat="44.44721" lon="6.68848">
        <ele>2569.74</ele>
        <time>2011-03-22T10:00:08Z</time>
      </trkpt>
      <trkpt lat="44.44722" lon="6.68841">
        <ele>2570.7</ele>
        <time>2011-03-22T10:00:20Z</time>
      </trkpt>
      <trkpt lat="44.44724" lon="6.68829">
        <ele>2572.14</ele>
        <time>2011-03-22T10:00:33Z</time>
      </trkpt>
      <trkpt lat="44.44728" lon="6.68821">
        <ele>2573.11</ele>
        <time>2011-03-22T10:00:45Z</time>
      </trkpt>
      <trkpt lat="44.44729" lon="6.68818">
        <ele>2574.55</ele>
        <time>2011-03-22T10:00:57Z</time>
      </trkpt>
      <trkpt lat="44.4473" lon="6.68818">
        <ele>2574.55</ele>
        <time>2011-03-22T10:01:17Z</time>
      </trkpt>
      <trkpt lat="44.4473" lon="6.68818">
        <ele>2574.55</ele>
        <time>2011-03-22T10:01:43Z</time>
      </trkpt>
      <trkpt lat="44.4473" lon="6.68816">
        <ele>2574.55</ele>
        <time>2011-03-22T10:02:10Z</time>
      </trkpt>
      <trkpt lat="44.44733" lon="6.68807">
        <ele>2576.47</ele>
        <time>2011-03-22T10:02:22Z</time>
      </trkpt>
      <trkpt lat="44.44734" lon="6.68802">
        <ele>2577.43</ele>
        <time>2011-03-22T10:02:42Z</time>
      </trkpt>
      <trkpt lat="44.44738" lon="6.68791">
        <ele>2579.35</ele>
        <time>2011-03-22T10:02:54Z</time>
      </trkpt>
      <trkpt lat="44.44746" lon="6.68791">
        <ele>2582.24</ele>
        <time>2011-03-22T10:03:07Z</time>
      </trkpt>
      <trkpt lat="44.44751" lon="6.68787">
        <ele>2584.16</ele>
        <time>2011-03-22T10:03:19Z</time>
      </trkpt>
      <trkpt lat="44.44756" lon="6.68782">
        <ele>2585.6</ele>
        <time>2011-03-22T10:03:32Z</time>
      </trkpt>
      <trkpt lat="44.44756" lon="6.68779">
        <ele>2587.04</ele>
        <time>2011-03-22T10:03:43Z</time>
      </trkpt>
      <trkpt lat="44.44751" lon="6.68773">
        <ele>2587.53</ele>
        <time>2011-03-22T10:03:56Z</time>
      </trkpt>
      <trkpt lat="44.44748" lon="6.68764">
        <ele>2589.93</ele>
        <time>2011-03-22T10:04:10Z</time>
      </trkpt>
      <trkpt lat="44.4475" lon="6.68758">
        <ele>2591.85</ele>
        <time>2011-03-22T10:04:21Z</time>
      </trkpt>
      <trkpt lat="44.44756" lon="6.68753">
        <ele>2594.25</ele>
        <time>2011-03-22T10:04:35Z</time>
      </trkpt>
      <trkpt lat="44.44763" lon="6.6875">
        <ele>2595.7</ele>
        <time>2011-03-22T10:04:47Z</time>
      </trkpt>
      <trkpt lat="44.44762" lon="6.68745">
        <ele>2598.1</ele>
        <time>2011-03-22T10:05:01Z</time>
      </trkpt>
      <trkpt lat="44.44759" lon="6.6874">
        <ele>2599.54</ele>
        <time>2011-03-22T10:05:14Z</time>
      </trkpt>
      <trkpt lat="44.44756" lon="6.68737">
        <ele>2600.98</ele>
        <time>2011-03-22T10:05:21Z</time>
      </trkpt>
      <trkpt lat="44.44754" lon="6.68731">
        <ele>2602.91</ele>
        <time>2011-03-22T10:05:34Z</time>
      </trkpt>
      <trkpt lat="44.44758" lon="6.68726">
        <ele>2604.83</ele>
        <time>2011-03-22T10:05:45Z</time>
      </trkpt>
      <trkpt lat="44.44765" lon="6.68722">
        <ele>2606.75</ele>
        <time>2011-03-22T10:05:59Z</time>
      </trkpt>
      <trkpt lat="44.4477" lon="6.68717">
        <ele>2608.67</ele>
        <time>2011-03-22T10:06:12Z</time>
      </trkpt>
      <trkpt lat="44.44769" lon="6.68718">
        <ele>2608.19</ele>
        <time>2011-03-22T10:06:28Z</time>
      </trkpt>
      <trkpt lat="44.44766" lon="6.68714">
        <ele>2609.16</ele>
        <time>2011-03-22T10:06:49Z</time>
      </trkpt>
      <trkpt lat="44.44761" lon="6.68704">
        <ele>2611.08</ele>
        <time>2011-03-22T10:07:04Z</time>
      </trkpt>
      <trkpt lat="44.44755" lon="6.68701">
        <ele>2613</ele>
        <time>2011-03-22T10:07:13Z</time>
      </trkpt>
      <trkpt lat="44.44751" lon="6.68699">
        <ele>2613.96</ele>
        <time>2011-03-22T10:07:25Z</time>
      </trkpt>
      <trkpt lat="44.44752" lon="6.68697">
        <ele>2613.96</ele>
        <time>2011-03-22T10:07:50Z</time>
      </trkpt>
      <trkpt lat="44.44753" lon="6.68698">
        <ele>2613.48</ele>
        <time>2011-03-22T10:08:15Z</time>
      </trkpt>
      <trkpt lat="44.44755" lon="6.68698">
        <ele>2612.52</ele>
        <time>2011-03-22T10:08:24Z</time>
      </trkpt>
      <trkpt lat="44.44762" lon="6.6871">
        <ele>2609.16</ele>
        <time>2011-03-22T10:08:29Z</time>
      </trkpt>
      <trkpt lat="44.44766" lon="6.68716">
        <ele>2608.19</ele>
        <time>2011-03-22T10:08:31Z</time>
      </trkpt>
      <trkpt lat="44.44769" lon="6.68719">
        <ele>2608.19</ele>
        <time>2011-03-22T10:08:34Z</time>
      </trkpt>
      <trkpt lat="44.44769" lon="6.68716">
        <ele>2608.19</ele>
        <time>2011-03-22T10:08:58Z</time>
      </trkpt>
      <trkpt lat="44.44769" lon="6.68717">
        <ele>2608.19</ele>
        <time>2011-03-22T10:09:15Z</time>
      </trkpt>
      <trkpt lat="44.4477" lon="6.68716">
        <ele>2608.19</ele>
        <time>2011-03-22T10:09:34Z</time>
      </trkpt>
      <trkpt lat="44.44769" lon="6.68717">
        <ele>2607.23</ele>
        <time>2011-03-22T10:09:36Z</time>
      </trkpt>
      <trkpt lat="44.44759" lon="6.68725">
        <ele>2602.91</ele>
        <time>2011-03-22T10:09:40Z</time>
      </trkpt>
      <trkpt lat="44.44752" lon="6.68729">
        <ele>2601.95</ele>
        <time>2011-03-22T10:09:42Z</time>
      </trkpt>
      <trkpt lat="44.4475" lon="6.68731">
        <ele>2601.95</ele>
        <time>2011-03-22T10:09:50Z</time>
      </trkpt>
      <trkpt lat="44.4475" lon="6.68731">
        <ele>2602.43</ele>
        <time>2011-03-22T10:10:10Z</time>
      </trkpt>
      <trkpt lat="44.44751" lon="6.68732">
        <ele>2601.95</ele>
        <time>2011-03-22T10:10:20Z</time>
      </trkpt>
      <trkpt lat="44.44763" lon="6.68746">
        <ele>2597.62</ele>
        <time>2011-03-22T10:10:27Z</time>
      </trkpt>
      <trkpt lat="44.44764" lon="6.68748">
        <ele>2597.62</ele>
        <time>2011-03-22T10:10:28Z</time>
      </trkpt>
      <trkpt lat="44.44764" lon="6.68749">
        <ele>2596.66</ele>
        <time>2011-03-22T10:10:35Z</time>
      </trkpt>
      <trkpt lat="44.44756" lon="6.68756">
        <ele>2593.29</ele>
        <time>2011-03-22T10:10:39Z</time>
      </trkpt>
      <trkpt lat="44.44747" lon="6.68763">
        <ele>2589.93</ele>
        <time>2011-03-22T10:10:41Z</time>
      </trkpt>
      <trkpt lat="44.44726" lon="6.68777">
        <ele>2584.16</ele>
        <time>2011-03-22T10:10:45Z</time>
      </trkpt>
      <trkpt lat="44.44715" lon="6.68786">
        <ele>2583.2</ele>
        <time>2011-03-22T10:10:52Z</time>
      </trkpt>
      <trkpt lat="44.44715" lon="6.68786">
        <ele>2582.72</ele>
        <time>2011-03-22T10:11:13Z</time>
      </trkpt>
      <trkpt lat="44.44714" lon="6.68787">
        <ele>2583.2</ele>
        <time>2011-03-22T10:11:25Z</time>
      </trkpt>
      <trkpt lat="44.44712" lon="6.68788">
        <ele>2583.2</ele>
        <time>2011-03-22T10:11:49Z</time>
      </trkpt>
      <trkpt lat="44.44709" lon="6.68788">
        <ele>2583.68</ele>
        <time>2011-03-22T10:12:01Z</time>
      </trkpt>
      <trkpt lat="44.44708" lon="6.68788">
        <ele>2583.68</ele>
        <time>2011-03-22T10:12:19Z</time>
      </trkpt>
      <trkpt lat="44.44702" lon="6.68788">
        <ele>2585.12</ele>
        <time>2011-03-22T10:12:31Z</time>
      </trkpt>
      <trkpt lat="44.44696" lon="6.68786">
        <ele>2586.08</ele>
        <time>2011-03-22T10:12:42Z</time>
      </trkpt>
      <trkpt lat="44.44695" lon="6.68786">
        <ele>2586.08</ele>
        <time>2011-03-22T10:12:43Z</time>
      </trkpt>
      <trkpt lat="44.44687" lon="6.68783">
        <ele>2587.53</ele>
        <time>2011-03-22T10:12:57Z</time>
      </trkpt>
      <trkpt lat="44.44679" lon="6.68784">
        <ele>2588.97</ele>
        <time>2011-03-22T10:13:09Z</time>
      </trkpt>
      <trkpt lat="44.44673" lon="6.68787">
        <ele>2589.93</ele>
        <time>2011-03-22T10:13:21Z</time>
      </trkpt>
      <trkpt lat="44.44668" lon="6.68792">
        <ele>2590.89</ele>
        <time>2011-03-22T10:13:32Z</time>
      </trkpt>
      <trkpt lat="44.44667" lon="6.68794">
        <ele>2591.85</ele>
        <time>2011-03-22T10:13:35Z</time>
      </trkpt>
      <trkpt lat="44.44661" lon="6.68802">
        <ele>2592.81</ele>
        <time>2011-03-22T10:13:47Z</time>
      </trkpt>
      <trkpt lat="44.44659" lon="6.68802">
        <ele>2593.77</ele>
        <time>2011-03-22T10:13:53Z</time>
      </trkpt>
      <trkpt lat="44.4465" lon="6.68802">
        <ele>2595.22</ele>
        <time>2011-03-22T10:14:05Z</time>
      </trkpt>
      <trkpt lat="44.44649" lon="6.68802">
        <ele>2595.22</ele>
        <time>2011-03-22T10:14:08Z</time>
      </trkpt>
      <trkpt lat="44.44646" lon="6.68802">
        <ele>2595.22</ele>
        <time>2011-03-22T10:14:12Z</time>
      </trkpt>
      <trkpt lat="44.4464" lon="6.68804">
        <ele>2596.18</ele>
        <time>2011-03-22T10:14:19Z</time>
      </trkpt>
      <trkpt lat="44.4463" lon="6.68805">
        <ele>2596.66</ele>
        <time>2011-03-22T10:14:32Z</time>
      </trkpt>
      <trkpt lat="44.4462" lon="6.68809">
        <ele>2597.14</ele>
        <time>2011-03-22T10:14:45Z</time>
      </trkpt>
      <trkpt lat="44.44612" lon="6.68814">
        <ele>2599.06</ele>
        <time>2011-03-22T10:14:58Z</time>
      </trkpt>
      <trkpt lat="44.44609" lon="6.68818">
        <ele>2599.06</ele>
        <time>2011-03-22T10:15:03Z</time>
      </trkpt>
      <trkpt lat="44.44605" lon="6.68821">
        <ele>2599.06</ele>
        <time>2011-03-22T10:15:07Z</time>
      </trkpt>
      <trkpt lat="44.44603" lon="6.68827">
        <ele>2600.02</ele>
        <time>2011-03-22T10:15:15Z</time>
      </trkpt>
      <trkpt lat="44.44601" lon="6.6883">
        <ele>2600.02</ele>
        <time>2011-03-22T10:15:18Z</time>
      </trkpt>
      <trkpt lat="44.446" lon="6.68841">
        <ele>2601.46</ele>
        <time>2011-03-22T10:15:30Z</time>
      </trkpt>
      <trkpt lat="44.44599" lon="6.68851">
        <ele>2602.43</ele>
        <time>2011-03-22T10:15:42Z</time>
      </trkpt>
      <trkpt lat="44.44598" lon="6.68854">
        <ele>2602.91</ele>
        <time>2011-03-22T10:15:46Z</time>
      </trkpt>
      <trkpt lat="44.44594" lon="6.68858">
        <ele>2603.87</ele>
        <time>2011-03-22T10:15:53Z</time>
      </trkpt>
      <trkpt lat="44.44591" lon="6.6886">
        <ele>2603.87</ele>
        <time>2011-03-22T10:15:56Z</time>
      </trkpt>
      <trkpt lat="44.44585" lon="6.68867">
        <ele>2605.79</ele>
        <time>2011-03-22T10:16:08Z</time>
      </trkpt>
      <trkpt lat="44.44582" lon="6.68871">
        <ele>2606.27</ele>
        <time>2011-03-22T10:16:14Z</time>
      </trkpt>
      <trkpt lat="44.44577" lon="6.68877">
        <ele>2607.71</ele>
        <time>2011-03-22T10:16:25Z</time>
      </trkpt>
      <trkpt lat="44.44577" lon="6.68878">
        <ele>2607.71</ele>
        <time>2011-03-22T10:16:26Z</time>
      </trkpt>
      <trkpt lat="44.44571" lon="6.68884">
        <ele>2609.16</ele>
        <time>2011-03-22T10:16:38Z</time>
      </trkpt>
      <trkpt lat="44.44565" lon="6.68887">
        <ele>2610.12</ele>
        <time>2011-03-22T10:16:50Z</time>
      </trkpt>
      <trkpt lat="44.44561" lon="6.68889">
        <ele>2611.08</ele>
        <time>2011-03-22T10:17:03Z</time>
      </trkpt>
      <trkpt lat="44.44554" lon="6.68887">
        <ele>2612.52</ele>
        <time>2011-03-22T10:17:14Z</time>
      </trkpt>
      <trkpt lat="44.44549" lon="6.68887">
        <ele>2613.96</ele>
        <time>2011-03-22T10:17:25Z</time>
      </trkpt>
      <trkpt lat="44.44544" lon="6.68888">
        <ele>2614.92</ele>
        <time>2011-03-22T10:17:32Z</time>
      </trkpt>
      <trkpt lat="44.44536" lon="6.68888">
        <ele>2616.37</ele>
        <time>2011-03-22T10:17:44Z</time>
      </trkpt>
      <trkpt lat="44.4453" lon="6.68889">
        <ele>2618.77</ele>
        <time>2011-03-22T10:17:57Z</time>
      </trkpt>
      <trkpt lat="44.44523" lon="6.68888">
        <ele>2620.21</ele>
        <time>2011-03-22T10:18:09Z</time>
      </trkpt>
      <trkpt lat="44.44516" lon="6.68888">
        <ele>2622.13</ele>
        <time>2011-03-22T10:18:22Z</time>
      </trkpt>
      <trkpt lat="44.44509" lon="6.68888">
        <ele>2623.58</ele>
        <time>2011-03-22T10:18:33Z</time>
      </trkpt>
      <trkpt lat="44.445" lon="6.68887">
        <ele>2624.06</ele>
        <time>2011-03-22T10:18:44Z</time>
      </trkpt>
      <trkpt lat="44.445" lon="6.68887">
        <ele>2624.06</ele>
        <time>2011-03-22T10:18:45Z</time>
      </trkpt>
      <trkpt lat="44.44492" lon="6.68887">
        <ele>2625.5</ele>
        <time>2011-03-22T10:18:57Z</time>
      </trkpt>
      <trkpt lat="44.44487" lon="6.68887">
        <ele>2625.98</ele>
        <time>2011-03-22T10:19:05Z</time>
      </trkpt>
      <trkpt lat="44.44479" lon="6.68888">
        <ele>2626.46</ele>
        <time>2011-03-22T10:19:16Z</time>
      </trkpt>
      <trkpt lat="44.44471" lon="6.6889">
        <ele>2626.46</ele>
        <time>2011-03-22T10:19:29Z</time>
      </trkpt>
      <trkpt lat="44.44464" lon="6.68895">
        <ele>2625.98</ele>
        <time>2011-03-22T10:19:41Z</time>
      </trkpt>
      <trkpt lat="44.44458" lon="6.68904">
        <ele>2627.42</ele>
        <time>2011-03-22T10:19:54Z</time>
      </trkpt>
      <trkpt lat="44.44456" lon="6.68913">
        <ele>2628.38</ele>
        <time>2011-03-22T10:20:05Z</time>
      </trkpt>
      <trkpt lat="44.44453" lon="6.68925">
        <ele>2629.82</ele>
        <time>2011-03-22T10:20:18Z</time>
      </trkpt>
      <trkpt lat="44.44451" lon="6.68933">
        <ele>2630.3</ele>
        <time>2011-03-22T10:20:27Z</time>
      </trkpt>
      <trkpt lat="44.44447" lon="6.68945">
        <ele>2631.27</ele>
        <time>2011-03-22T10:20:39Z</time>
      </trkpt>
      <trkpt lat="44.44446" lon="6.68952">
        <ele>2632.23</ele>
        <time>2011-03-22T10:20:47Z</time>
      </trkpt>
      <trkpt lat="44.44443" lon="6.68962">
        <ele>2632.71</ele>
        <time>2011-03-22T10:20:58Z</time>
      </trkpt>
      <trkpt lat="44.44442" lon="6.68965">
        <ele>2633.67</ele>
        <time>2011-03-22T10:21:01Z</time>
      </trkpt>
      <trkpt lat="44.44438" lon="6.68975">
        <ele>2634.63</ele>
        <time>2011-03-22T10:21:13Z</time>
      </trkpt>
      <trkpt lat="44.44434" lon="6.68983">
        <ele>2635.59</ele>
        <time>2011-03-22T10:21:25Z</time>
      </trkpt>
      <trkpt lat="44.4443" lon="6.6899">
        <ele>2637.51</ele>
        <time>2011-03-22T10:21:36Z</time>
      </trkpt>
      <trkpt lat="44.44426" lon="6.68996">
        <ele>2638.96</ele>
        <time>2011-03-22T10:21:48Z</time>
      </trkpt>
      <trkpt lat="44.44422" lon="6.69002">
        <ele>2640.88</ele>
        <time>2011-03-22T10:22:00Z</time>
      </trkpt>
      <trkpt lat="44.44418" lon="6.6901">
        <ele>2642.8</ele>
        <time>2011-03-22T10:22:13Z</time>
      </trkpt>
      <trkpt lat="44.44413" lon="6.69015">
        <ele>2645.21</ele>
        <time>2011-03-22T10:22:25Z</time>
      </trkpt>
      <trkpt lat="44.44408" lon="6.69019">
        <ele>2646.65</ele>
        <time>2011-03-22T10:22:37Z</time>
      </trkpt>
      <trkpt lat="44.44403" lon="6.69024">
        <ele>2649.05</ele>
        <time>2011-03-22T10:22:50Z</time>
      </trkpt>
      <trkpt lat="44.44403" lon="6.69023">
        <ele>2647.61</ele>
        <time>2011-03-22T10:23:12Z</time>
      </trkpt>
      <trkpt lat="44.44403" lon="6.69023">
        <ele>2648.57</ele>
        <time>2011-03-22T10:23:27Z</time>
      </trkpt>
      <trkpt lat="44.44403" lon="6.69022">
        <ele>2646.65</ele>
        <time>2011-03-22T10:23:34Z</time>
      </trkpt>
      <trkpt lat="44.44403" lon="6.69023">
        <ele>2647.13</ele>
        <time>2011-03-22T10:23:57Z</time>
      </trkpt>
      <trkpt lat="44.44403" lon="6.69023">
        <ele>2648.09</ele>
        <time>2011-03-22T10:24:00Z</time>
      </trkpt>
      <trkpt lat="44.44403" lon="6.69023">
        <ele>2648.57</ele>
        <time>2011-03-22T10:24:48Z</time>
      </trkpt>
      <trkpt lat="44.44403" lon="6.69023">
        <ele>2647.61</ele>
        <time>2011-03-22T10:25:23Z</time>
      </trkpt>
      <trkpt lat="44.44403" lon="6.69023">
        <ele>2646.65</ele>
        <time>2011-03-22T10:25:59Z</time>
      </trkpt>
      <trkpt lat="44.44403" lon="6.69023">
        <ele>2646.65</ele>
        <time>2011-03-22T10:26:35Z</time>
      </trkpt>
      <trkpt lat="44.44403" lon="6.69022">
        <ele>2646.17</ele>
        <time>2011-03-22T10:27:09Z</time>
      </trkpt>
      <trkpt lat="44.44403" lon="6.69022">
        <ele>2645.69</ele>
        <time>2011-03-22T10:27:41Z</time>
      </trkpt>
      <trkpt lat="44.44403" lon="6.69022">
        <ele>2645.21</ele>
        <time>2011-03-22T10:28:13Z</time>
      </trkpt>
      <trkpt lat="44.44403" lon="6.69021">
        <ele>2644.72</ele>
        <time>2011-03-22T10:28:48Z</time>
      </trkpt>
      <trkpt lat="44.44403" lon="6.69021">
        <ele>2644.72</ele>
        <time>2011-03-22T10:29:12Z</time>
      </trkpt>
      <trkpt lat="44.44403" lon="6.69022">
        <ele>2644.24</ele>
        <time>2011-03-22T10:29:30Z</time>
      </trkpt>
      <trkpt lat="44.44403" lon="6.69022">
        <ele>2644.24</ele>
        <time>2011-03-22T10:30:09Z</time>
      </trkpt>
      <trkpt lat="44.44403" lon="6.69022">
        <ele>2644.24</ele>
        <time>2011-03-22T10:30:41Z</time>
      </trkpt>
      <trkpt lat="44.44403" lon="6.69022">
        <ele>2643.76</ele>
        <time>2011-03-22T10:31:16Z</time>
      </trkpt>
      <trkpt lat="44.44403" lon="6.69022">
        <ele>2644.24</ele>
        <time>2011-03-22T10:31:39Z</time>
      </trkpt>
      <trkpt lat="44.44403" lon="6.69022">
        <ele>2644.24</ele>
        <time>2011-03-22T10:31:59Z</time>
      </trkpt>
      <trkpt lat="44.44403" lon="6.69022">
        <ele>2636.07</ele>
        <time>2011-03-22T10:32:05Z</time>
      </trkpt>
      <trkpt lat="44.44403" lon="6.69022">
        <ele>2651.93</ele>
        <time>2011-03-22T10:32:06Z</time>
      </trkpt>
      <trkpt lat="44.44403" lon="6.69022">
        <ele>2645.69</ele>
        <time>2011-03-22T10:32:07Z</time>
      </trkpt>
      <trkpt lat="44.44403" lon="6.69021">
        <ele>2646.17</ele>
        <time>2011-03-22T10:32:21Z</time>
      </trkpt>
      <trkpt lat="44.444" lon="6.69014">
        <ele>2647.61</ele>
        <time>2011-03-22T10:32:34Z</time>
      </trkpt>
      <trkpt lat="44.44396" lon="6.69008">
        <ele>2650.01</ele>
        <time>2011-03-22T10:32:46Z</time>
      </trkpt>
      <trkpt lat="44.44394" lon="6.68998">
        <ele>2652.42</ele>
        <time>2011-03-22T10:33:01Z</time>
      </trkpt>
      <trkpt lat="44.44393" lon="6.68996">
        <ele>2653.38</ele>
        <time>2011-03-22T10:33:16Z</time>
      </trkpt>
      <trkpt lat="44.44388" lon="6.68995">
        <ele>2656.26</ele>
        <time>2011-03-22T10:33:28Z</time>
      </trkpt>
      <trkpt lat="44.44386" lon="6.68993">
        <ele>2657.22</ele>
        <time>2011-03-22T10:33:42Z</time>
      </trkpt>
      <trkpt lat="44.44388" lon="6.68986">
        <ele>2659.62</ele>
        <time>2011-03-22T10:33:57Z</time>
      </trkpt>
      <trkpt lat="44.44389" lon="6.6898">
        <ele>2660.59</ele>
        <time>2011-03-22T10:34:14Z</time>
      </trkpt>
      <trkpt lat="44.44389" lon="6.68977">
        <ele>2660.11</ele>
        <time>2011-03-22T10:34:36Z</time>
      </trkpt>
      <trkpt lat="44.44387" lon="6.68976">
        <ele>2661.07</ele>
        <time>2011-03-22T10:34:47Z</time>
      </trkpt>
      <trkpt lat="44.44383" lon="6.68976">
        <ele>2662.99</ele>
        <time>2011-03-22T10:35:00Z</time>
      </trkpt>
      <trkpt lat="44.4438" lon="6.68976">
        <ele>2663.95</ele>
        <time>2011-03-22T10:35:12Z</time>
      </trkpt>
      <trkpt lat="44.44381" lon="6.68969">
        <ele>2665.87</ele>
        <time>2011-03-22T10:35:25Z</time>
      </trkpt>
      <trkpt lat="44.44381" lon="6.68963">
        <ele>2668.28</ele>
        <time>2011-03-22T10:35:43Z</time>
      </trkpt>
      <trkpt lat="44.44384" lon="6.68951">
        <ele>2669.72</ele>
        <time>2011-03-22T10:35:56Z</time>
      </trkpt>
      <trkpt lat="44.44383" lon="6.68951">
        <ele>2670.68</ele>
        <time>2011-03-22T10:36:08Z</time>
      </trkpt>
      <trkpt lat="44.44377" lon="6.68953">
        <ele>2671.64</ele>
        <time>2011-03-22T10:36:22Z</time>
      </trkpt>
      <trkpt lat="44.44377" lon="6.68946">
        <ele>2674.52</ele>
        <time>2011-03-22T10:36:39Z</time>
      </trkpt>
      <trkpt lat="44.44378" lon="6.68934">
        <ele>2677.41</ele>
        <time>2011-03-22T10:36:55Z</time>
      </trkpt>
      <trkpt lat="44.44378" lon="6.68932">
        <ele>2678.37</ele>
        <time>2011-03-22T10:37:11Z</time>
      </trkpt>
      <trkpt lat="44.44377" lon="6.68928">
        <ele>2678.85</ele>
        <time>2011-03-22T10:37:30Z</time>
      </trkpt>
      <trkpt lat="44.44374" lon="6.68918">
        <ele>2681.25</ele>
        <time>2011-03-22T10:37:43Z</time>
      </trkpt>
      <trkpt lat="44.44373" lon="6.68909">
        <ele>2683.18</ele>
        <time>2011-03-22T10:37:56Z</time>
      </trkpt>
      <trkpt lat="44.44372" lon="6.689">
        <ele>2685.58</ele>
        <time>2011-03-22T10:38:10Z</time>
      </trkpt>
      <trkpt lat="44.44369" lon="6.68891">
        <ele>2686.06</ele>
        <time>2011-03-22T10:38:23Z</time>
      </trkpt>
      <trkpt lat="44.44367" lon="6.68884">
        <ele>2687.02</ele>
        <time>2011-03-22T10:38:36Z</time>
      </trkpt>
      <trkpt lat="44.44364" lon="6.68871">
        <ele>2687.98</ele>
        <time>2011-03-22T10:38:50Z</time>
      </trkpt>
      <trkpt lat="44.44364" lon="6.68861">
        <ele>2688.46</ele>
        <time>2011-03-22T10:39:04Z</time>
      </trkpt>
      <trkpt lat="44.44362" lon="6.68854">
        <ele>2689.91</ele>
        <time>2011-03-22T10:39:17Z</time>
      </trkpt>
      <trkpt lat="44.44359" lon="6.68846">
        <ele>2691.35</ele>
        <time>2011-03-22T10:39:29Z</time>
      </trkpt>
      <trkpt lat="44.44357" lon="6.68838">
        <ele>2692.31</ele>
        <time>2011-03-22T10:39:42Z</time>
      </trkpt>
      <trkpt lat="44.44355" lon="6.68831">
        <ele>2694.23</ele>
        <time>2011-03-22T10:39:56Z</time>
      </trkpt>
      <trkpt lat="44.44352" lon="6.68825">
        <ele>2696.64</ele>
        <time>2011-03-22T10:40:08Z</time>
      </trkpt>
      <trkpt lat="44.44348" lon="6.68818">
        <ele>2698.56</ele>
        <time>2011-03-22T10:40:22Z</time>
      </trkpt>
      <trkpt lat="44.44346" lon="6.68811">
        <ele>2700.48</ele>
        <time>2011-03-22T10:40:36Z</time>
      </trkpt>
      <trkpt lat="44.44344" lon="6.68804">
        <ele>2702.88</ele>
        <time>2011-03-22T10:40:47Z</time>
      </trkpt>
      <trkpt lat="44.44344" lon="6.68803">
        <ele>2703.36</ele>
        <time>2011-03-22T10:41:03Z</time>
      </trkpt>
      <trkpt lat="44.44343" lon="6.68803">
        <ele>2701.44</ele>
        <time>2011-03-22T10:41:06Z</time>
      </trkpt>
      <trkpt lat="44.44343" lon="6.68803">
        <ele>2701.44</ele>
        <time>2011-03-22T10:41:26Z</time>
      </trkpt>
      <trkpt lat="44.44343" lon="6.68803">
        <ele>2704.33</ele>
        <time>2011-03-22T10:41:30Z</time>
      </trkpt>
      <trkpt lat="44.44343" lon="6.68803">
        <ele>2704.33</ele>
        <time>2011-03-22T10:41:31Z</time>
      </trkpt>
      <trkpt lat="44.44343" lon="6.68802">
        <ele>2705.29</ele>
        <time>2011-03-22T10:41:44Z</time>
      </trkpt>
      <trkpt lat="44.4434" lon="6.68796">
        <ele>2708.17</ele>
        <time>2011-03-22T10:41:52Z</time>
      </trkpt>
      <trkpt lat="44.4434" lon="6.68795">
        <ele>2708.17</ele>
        <time>2011-03-22T10:41:53Z</time>
      </trkpt>
      <trkpt lat="44.44339" lon="6.68785">
        <ele>2711.06</ele>
        <time>2011-03-22T10:42:06Z</time>
      </trkpt>
      <trkpt lat="44.44339" lon="6.68784">
        <ele>2711.06</ele>
        <time>2011-03-22T10:42:07Z</time>
      </trkpt>
      <trkpt lat="44.44339" lon="6.68777">
        <ele>2712.5</ele>
        <time>2011-03-22T10:42:19Z</time>
      </trkpt>
      <trkpt lat="44.4434" lon="6.68769">
        <ele>2713.94</ele>
        <time>2011-03-22T10:42:34Z</time>
      </trkpt>
      <trkpt lat="44.44339" lon="6.6876">
        <ele>2712.5</ele>
        <time>2011-03-22T10:42:47Z</time>
      </trkpt>
      <trkpt lat="44.44339" lon="6.6875">
        <ele>2713.94</ele>
        <time>2011-03-22T10:43:01Z</time>
      </trkpt>
      <trkpt lat="44.44339" lon="6.6875">
        <ele>2716.82</ele>
        <time>2011-03-22T10:43:17Z</time>
      </trkpt>
      <trkpt lat="44.44339" lon="6.6875">
        <ele>2719.23</ele>
        <time>2011-03-22T10:43:30Z</time>
      </trkpt>
      <trkpt lat="44.44339" lon="6.6875">
        <ele>2720.19</ele>
        <time>2011-03-22T10:43:37Z</time>
      </trkpt>
      <trkpt lat="44.44339" lon="6.68745">
        <ele>2721.63</ele>
        <time>2011-03-22T10:43:50Z</time>
      </trkpt>
      <trkpt lat="44.44339" lon="6.68745">
        <ele>2721.63</ele>
        <time>2011-03-22T10:44:09Z</time>
      </trkpt>
      <trkpt lat="44.44339" lon="6.68745">
        <ele>2722.59</ele>
        <time>2011-03-22T10:44:28Z</time>
      </trkpt>
      <trkpt lat="44.44335" lon="6.68726">
        <ele>2722.11</ele>
        <time>2011-03-22T10:44:43Z</time>
      </trkpt>
      <trkpt lat="44.44327" lon="6.68704">
        <ele>2722.59</ele>
        <time>2011-03-22T10:44:58Z</time>
      </trkpt>
      <trkpt lat="44.44323" lon="6.68693">
        <ele>2723.07</ele>
        <time>2011-03-22T10:45:13Z</time>
      </trkpt>
      <trkpt lat="44.44323" lon="6.68693">
        <ele>2724.51</ele>
        <time>2011-03-22T10:45:38Z</time>
      </trkpt>
      <trkpt lat="44.44315" lon="6.68678">
        <ele>2724.03</ele>
        <time>2011-03-22T10:45:53Z</time>
      </trkpt>
      <trkpt lat="44.44307" lon="6.68663">
        <ele>2724.51</ele>
        <time>2011-03-22T10:46:10Z</time>
      </trkpt>
      <trkpt lat="44.44302" lon="6.68655">
        <ele>2723.07</ele>
        <time>2011-03-22T10:46:26Z</time>
      </trkpt>
      <trkpt lat="44.44299" lon="6.68649">
        <ele>2722.59</ele>
        <time>2011-03-22T10:46:40Z</time>
      </trkpt>
      <trkpt lat="44.44291" lon="6.68635">
        <ele>2724.03</ele>
        <time>2011-03-22T10:46:55Z</time>
      </trkpt>
      <trkpt lat="44.44284" lon="6.68621">
        <ele>2726.44</ele>
        <time>2011-03-22T10:47:10Z</time>
      </trkpt>
      <trkpt lat="44.44275" lon="6.68611">
        <ele>2725.48</ele>
        <time>2011-03-22T10:47:26Z</time>
      </trkpt>
      <trkpt lat="44.44269" lon="6.68602">
        <ele>2726.44</ele>
        <time>2011-03-22T10:47:41Z</time>
      </trkpt>
      <trkpt lat="44.44264" lon="6.68594">
        <ele>2728.36</ele>
        <time>2011-03-22T10:47:55Z</time>
      </trkpt>
      <trkpt lat="44.44257" lon="6.6858">
        <ele>2728.84</ele>
        <time>2011-03-22T10:48:11Z</time>
      </trkpt>
      <trkpt lat="44.44253" lon="6.6857">
        <ele>2729.32</ele>
        <time>2011-03-22T10:48:24Z</time>
      </trkpt>
      <trkpt lat="44.44247" lon="6.68558">
        <ele>2730.76</ele>
        <time>2011-03-22T10:48:40Z</time>
      </trkpt>
      <trkpt lat="44.44244" lon="6.68549">
        <ele>2732.2</ele>
        <time>2011-03-22T10:48:53Z</time>
      </trkpt>
      <trkpt lat="44.44241" lon="6.68541">
        <ele>2732.68</ele>
        <time>2011-03-22T10:49:10Z</time>
      </trkpt>
      <trkpt lat="44.44236" lon="6.6853">
        <ele>2733.65</ele>
        <time>2011-03-22T10:49:24Z</time>
      </trkpt>
      <trkpt lat="44.4423" lon="6.68519">
        <ele>2735.57</ele>
        <time>2011-03-22T10:49:40Z</time>
      </trkpt>
      <trkpt lat="44.44225" lon="6.68509">
        <ele>2737.49</ele>
        <time>2011-03-22T10:49:55Z</time>
      </trkpt>
      <trkpt lat="44.44219" lon="6.68501">
        <ele>2739.41</ele>
        <time>2011-03-22T10:50:10Z</time>
      </trkpt>
      <trkpt lat="44.44215" lon="6.68492">
        <ele>2740.86</ele>
        <time>2011-03-22T10:50:24Z</time>
      </trkpt>
      <trkpt lat="44.44208" lon="6.68483">
        <ele>2743.74</ele>
        <time>2011-03-22T10:50:39Z</time>
      </trkpt>
      <trkpt lat="44.44202" lon="6.68475">
        <ele>2745.66</ele>
        <time>2011-03-22T10:50:55Z</time>
      </trkpt>
      <trkpt lat="44.44198" lon="6.68471">
        <ele>2746.62</ele>
        <time>2011-03-22T10:51:07Z</time>
      </trkpt>
      <trkpt lat="44.44191" lon="6.68463">
        <ele>2747.59</ele>
        <time>2011-03-22T10:51:22Z</time>
      </trkpt>
      <trkpt lat="44.44186" lon="6.68453">
        <ele>2748.55</ele>
        <time>2011-03-22T10:51:38Z</time>
      </trkpt>
      <trkpt lat="44.44179" lon="6.68443">
        <ele>2750.95</ele>
        <time>2011-03-22T10:51:53Z</time>
      </trkpt>
      <trkpt lat="44.44173" lon="6.68437">
        <ele>2752.87</ele>
        <time>2011-03-22T10:52:07Z</time>
      </trkpt>
      <trkpt lat="44.44168" lon="6.68431">
        <ele>2754.8</ele>
        <time>2011-03-22T10:52:23Z</time>
      </trkpt>
      <trkpt lat="44.44165" lon="6.68427">
        <ele>2756.24</ele>
        <time>2011-03-22T10:52:43Z</time>
      </trkpt>
      <trkpt lat="44.44162" lon="6.68423">
        <ele>2755.76</ele>
        <time>2011-03-22T10:52:57Z</time>
      </trkpt>
      <trkpt lat="44.44155" lon="6.68414">
        <ele>2756.72</ele>
        <time>2011-03-22T10:53:10Z</time>
      </trkpt>
      <trkpt lat="44.44155" lon="6.68413">
        <ele>2756.24</ele>
        <time>2011-03-22T10:53:33Z</time>
      </trkpt>
      <trkpt lat="44.44155" lon="6.68413">
        <ele>2756.72</ele>
        <time>2011-03-22T10:54:02Z</time>
      </trkpt>
      <trkpt lat="44.44155" lon="6.68413">
        <ele>2757.2</ele>
        <time>2011-03-22T10:54:27Z</time>
      </trkpt>
      <trkpt lat="44.44155" lon="6.68413">
        <ele>2756.72</ele>
        <time>2011-03-22T10:54:55Z</time>
      </trkpt>
      <trkpt lat="44.44152" lon="6.68409">
        <ele>2758.16</ele>
        <time>2011-03-22T10:55:12Z</time>
      </trkpt>
      <trkpt lat="44.44148" lon="6.68406">
        <ele>2759.12</ele>
        <time>2011-03-22T10:55:28Z</time>
      </trkpt>
      <trkpt lat="44.44142" lon="6.684">
        <ele>2760.08</ele>
        <time>2011-03-22T10:55:43Z</time>
      </trkpt>
      <trkpt lat="44.44134" lon="6.68391">
        <ele>2761.04</ele>
        <time>2011-03-22T10:56:01Z</time>
      </trkpt>
      <trkpt lat="44.44129" lon="6.68385">
        <ele>2761.52</ele>
        <time>2011-03-22T10:56:15Z</time>
      </trkpt>
      <trkpt lat="44.44121" lon="6.68383">
        <ele>2763.93</ele>
        <time>2011-03-22T10:56:31Z</time>
      </trkpt>
      <trkpt lat="44.44113" lon="6.68377">
        <ele>2766.33</ele>
        <time>2011-03-22T10:56:47Z</time>
      </trkpt>
      <trkpt lat="44.44111" lon="6.68375">
        <ele>2767.29</ele>
        <time>2011-03-22T10:57:04Z</time>
      </trkpt>
      <trkpt lat="44.44112" lon="6.6837">
        <ele>2769.7</ele>
        <time>2011-03-22T10:57:18Z</time>
      </trkpt>
      <trkpt lat="44.44114" lon="6.68364">
        <ele>2771.14</ele>
        <time>2011-03-22T10:57:33Z</time>
      </trkpt>
      <trkpt lat="44.44111" lon="6.68355">
        <ele>2771.62</ele>
        <time>2011-03-22T10:57:47Z</time>
      </trkpt>
      <trkpt lat="44.44114" lon="6.68351">
        <ele>2772.58</ele>
        <time>2011-03-22T10:58:04Z</time>
      </trkpt>
      <trkpt lat="44.44117" lon="6.68348">
        <ele>2774.02</ele>
        <time>2011-03-22T10:58:22Z</time>
      </trkpt>
      <trkpt lat="44.44116" lon="6.68347">
        <ele>2775.94</ele>
        <time>2011-03-22T10:58:46Z</time>
      </trkpt>
      <trkpt lat="44.44111" lon="6.68334">
        <ele>2778.83</ele>
        <time>2011-03-22T10:59:03Z</time>
      </trkpt>
      <trkpt lat="44.44114" lon="6.68327">
        <ele>2780.75</ele>
        <time>2011-03-22T10:59:19Z</time>
      </trkpt>
      <trkpt lat="44.44107" lon="6.68324">
        <ele>2782.19</ele>
        <time>2011-03-22T10:59:34Z</time>
      </trkpt>
      <trkpt lat="44.44103" lon="6.68325">
        <ele>2784.12</ele>
        <time>2011-03-22T10:59:50Z</time>
      </trkpt>
      <trkpt lat="44.44101" lon="6.68323">
        <ele>2785.56</ele>
        <time>2011-03-22T11:00:03Z</time>
      </trkpt>
      <trkpt lat="44.44106" lon="6.68311">
        <ele>2787</ele>
        <time>2011-03-22T11:00:18Z</time>
      </trkpt>
      <trkpt lat="44.44109" lon="6.68308">
        <ele>2789.88</ele>
        <time>2011-03-22T11:00:33Z</time>
      </trkpt>
      <trkpt lat="44.44116" lon="6.683">
        <ele>2792.29</ele>
        <time>2011-03-22T11:00:52Z</time>
      </trkpt>
      <trkpt lat="44.44112" lon="6.68298">
        <ele>2793.25</ele>
        <time>2011-03-22T11:01:04Z</time>
      </trkpt>
      <trkpt lat="44.44109" lon="6.68297">
        <ele>2795.65</ele>
        <time>2011-03-22T11:01:19Z</time>
      </trkpt>
      <trkpt lat="44.44098" lon="6.68297">
        <ele>2798.05</ele>
        <time>2011-03-22T11:01:35Z</time>
      </trkpt>
      <trkpt lat="44.4409" lon="6.683">
        <ele>2799.98</ele>
        <time>2011-03-22T11:01:52Z</time>
      </trkpt>
      <trkpt lat="44.44088" lon="6.68301">
        <ele>2800.94</ele>
        <time>2011-03-22T11:01:55Z</time>
      </trkpt>
      <trkpt lat="44.44079" lon="6.68303">
        <ele>2803.34</ele>
        <time>2011-03-22T11:02:15Z</time>
      </trkpt>
      <trkpt lat="44.44073" lon="6.68304">
        <ele>2804.78</ele>
        <time>2011-03-22T11:02:24Z</time>
      </trkpt>
      <trkpt lat="44.4407" lon="6.68305">
        <ele>2806.71</ele>
        <time>2011-03-22T11:02:30Z</time>
      </trkpt>
      <trkpt lat="44.44067" lon="6.68305">
        <ele>2808.15</ele>
        <time>2011-03-22T11:02:33Z</time>
      </trkpt>
      <trkpt lat="44.44064" lon="6.68304">
        <ele>2805.75</ele>
        <time>2011-03-22T11:02:41Z</time>
      </trkpt>
      <trkpt lat="44.44063" lon="6.68303">
        <ele>2806.71</ele>
        <time>2011-03-22T11:02:43Z</time>
      </trkpt>
      <trkpt lat="44.44061" lon="6.68303">
        <ele>2808.15</ele>
        <time>2011-03-22T11:02:47Z</time>
      </trkpt>
      <trkpt lat="44.44056" lon="6.683">
        <ele>2811.51</ele>
        <time>2011-03-22T11:02:57Z</time>
      </trkpt>
      <trkpt lat="44.44052" lon="6.68296">
        <ele>2811.03</ele>
        <time>2011-03-22T11:03:13Z</time>
      </trkpt>
      <trkpt lat="44.44052" lon="6.68296">
        <ele>2811.51</ele>
        <time>2011-03-22T11:03:41Z</time>
      </trkpt>
      <trkpt lat="44.44052" lon="6.68296">
        <ele>2811.03</ele>
        <time>2011-03-22T11:04:09Z</time>
      </trkpt>
      <trkpt lat="44.44052" lon="6.68296">
        <ele>2813.44</ele>
        <time>2011-03-22T11:04:34Z</time>
      </trkpt>
      <trkpt lat="44.44052" lon="6.68296">
        <ele>2811.99</ele>
        <time>2011-03-22T11:05:01Z</time>
      </trkpt>
      <trkpt lat="44.44052" lon="6.68296">
        <ele>2810.55</ele>
        <time>2011-03-22T11:05:22Z</time>
      </trkpt>
      <trkpt lat="44.44052" lon="6.68296">
        <ele>2810.55</ele>
        <time>2011-03-22T11:05:41Z</time>
      </trkpt>
      <trkpt lat="44.44052" lon="6.68296">
        <ele>2811.03</ele>
        <time>2011-03-22T11:06:04Z</time>
      </trkpt>
      <trkpt lat="44.44051" lon="6.68295">
        <ele>2810.07</ele>
        <time>2011-03-22T11:06:23Z</time>
      </trkpt>
      <trkpt lat="44.44051" lon="6.68294">
        <ele>2809.59</ele>
        <time>2011-03-22T11:06:44Z</time>
      </trkpt>
      <trkpt lat="44.44052" lon="6.68293">
        <ele>2809.11</ele>
        <time>2011-03-22T11:07:03Z</time>
      </trkpt>
      <trkpt lat="44.44052" lon="6.68293">
        <ele>2808.15</ele>
        <time>2011-03-22T11:07:22Z</time>
      </trkpt>
      <trkpt lat="44.44052" lon="6.68292">
        <ele>2807.19</ele>
        <time>2011-03-22T11:07:31Z</time>
      </trkpt>
      <trkpt lat="44.44052" lon="6.68293">
        <ele>2810.07</ele>
        <time>2011-03-22T11:07:48Z</time>
      </trkpt>
      <trkpt lat="44.44052" lon="6.68291">
        <ele>2811.51</ele>
        <time>2011-03-22T11:07:59Z</time>
      </trkpt>
      <trkpt lat="44.44052" lon="6.68291">
        <ele>2811.03</ele>
        <time>2011-03-22T11:08:05Z</time>
      </trkpt>
      <trkpt lat="44.44053" lon="6.68288">
        <ele>2811.51</ele>
        <time>2011-03-22T11:08:22Z</time>
      </trkpt>
      <trkpt lat="44.44052" lon="6.68278">
        <ele>2813.44</ele>
        <time>2011-03-22T11:08:32Z</time>
      </trkpt>
      <trkpt lat="44.44053" lon="6.68269">
        <ele>2813.92</ele>
        <time>2011-03-22T11:08:43Z</time>
      </trkpt>
      <trkpt lat="44.44056" lon="6.6826">
        <ele>2815.36</ele>
        <time>2011-03-22T11:08:55Z</time>
      </trkpt>
      <trkpt lat="44.44059" lon="6.68254">
        <ele>2816.8</ele>
        <time>2011-03-22T11:09:06Z</time>
      </trkpt>
      <trkpt lat="44.4406" lon="6.68248">
        <ele>2818.72</ele>
        <time>2011-03-22T11:09:17Z</time>
      </trkpt>
      <trkpt lat="44.44061" lon="6.68237">
        <ele>2821.13</ele>
        <time>2011-03-22T11:09:34Z</time>
      </trkpt>
      <trkpt lat="44.44069" lon="6.68236">
        <ele>2823.05</ele>
        <time>2011-03-22T11:09:47Z</time>
      </trkpt>
      <trkpt lat="44.44074" lon="6.68231">
        <ele>2824.01</ele>
        <time>2011-03-22T11:09:58Z</time>
      </trkpt>
      <trkpt lat="44.44078" lon="6.68227">
        <ele>2826.89</ele>
        <time>2011-03-22T11:10:07Z</time>
      </trkpt>
      <trkpt lat="44.44077" lon="6.6822">
        <ele>2826.41</ele>
        <time>2011-03-22T11:10:18Z</time>
      </trkpt>
      <trkpt lat="44.44074" lon="6.68213">
        <ele>2826.89</ele>
        <time>2011-03-22T11:10:30Z</time>
      </trkpt>
      <trkpt lat="44.44072" lon="6.68205">
        <ele>2828.34</ele>
        <time>2011-03-22T11:10:42Z</time>
      </trkpt>
      <trkpt lat="44.44077" lon="6.68203">
        <ele>2830.26</ele>
        <time>2011-03-22T11:10:53Z</time>
      </trkpt>
      <trkpt lat="44.44083" lon="6.68201">
        <ele>2831.7</ele>
        <time>2011-03-22T11:11:06Z</time>
      </trkpt>
      <trkpt lat="44.44087" lon="6.68198">
        <ele>2832.66</ele>
        <time>2011-03-22T11:11:20Z</time>
      </trkpt>
      <trkpt lat="44.44084" lon="6.68192">
        <ele>2833.62</ele>
        <time>2011-03-22T11:11:36Z</time>
      </trkpt>
      <trkpt lat="44.44083" lon="6.68188">
        <ele>2835.06</ele>
        <time>2011-03-22T11:11:47Z</time>
      </trkpt>
      <trkpt lat="44.44084" lon="6.68185">
        <ele>2838.43</ele>
        <time>2011-03-22T11:11:54Z</time>
      </trkpt>
      <trkpt lat="44.44088" lon="6.68184">
        <ele>2841.79</ele>
        <time>2011-03-22T11:12:01Z</time>
      </trkpt>
      <trkpt lat="44.44094" lon="6.68182">
        <ele>2840.83</ele>
        <time>2011-03-22T11:12:15Z</time>
      </trkpt>
      <trkpt lat="44.44096" lon="6.68181">
        <ele>2841.79</ele>
        <time>2011-03-22T11:12:27Z</time>
      </trkpt>
      <trkpt lat="44.44093" lon="6.68171">
        <ele>2840.83</ele>
        <time>2011-03-22T11:12:37Z</time>
      </trkpt>
      <trkpt lat="44.44091" lon="6.68168">
        <ele>2840.83</ele>
        <time>2011-03-22T11:12:49Z</time>
      </trkpt>
      <trkpt lat="44.44089" lon="6.68158">
        <ele>2844.2</ele>
        <time>2011-03-22T11:13:00Z</time>
      </trkpt>
      <trkpt lat="44.4409" lon="6.68157">
        <ele>2844.2</ele>
        <time>2011-03-22T11:13:01Z</time>
      </trkpt>
      <trkpt lat="44.4409" lon="6.68157">
        <ele>2844.68</ele>
        <time>2011-03-22T11:13:13Z</time>
      </trkpt>
      <trkpt lat="44.44096" lon="6.68157">
        <ele>2846.6</ele>
        <time>2011-03-22T11:13:28Z</time>
      </trkpt>
      <trkpt lat="44.44101" lon="6.68155">
        <ele>2849.48</ele>
        <time>2011-03-22T11:13:38Z</time>
      </trkpt>
      <trkpt lat="44.44098" lon="6.68146">
        <ele>2851.41</ele>
        <time>2011-03-22T11:13:51Z</time>
      </trkpt>
      <trkpt lat="44.44097" lon="6.68142">
        <ele>2853.33</ele>
        <time>2011-03-22T11:14:02Z</time>
      </trkpt>
      <trkpt lat="44.44093" lon="6.68131">
        <ele>2854.77</ele>
        <time>2011-03-22T11:14:16Z</time>
      </trkpt>
      <trkpt lat="44.44089" lon="6.68125">
        <ele>2855.73</ele>
        <time>2011-03-22T11:14:28Z</time>
      </trkpt>
      <trkpt lat="44.44087" lon="6.68119">
        <ele>2856.69</ele>
        <time>2011-03-22T11:14:39Z</time>
      </trkpt>
      <trkpt lat="44.44082" lon="6.68112">
        <ele>2858.14</ele>
        <time>2011-03-22T11:14:49Z</time>
      </trkpt>
      <trkpt lat="44.44081" lon="6.68109">
        <ele>2858.62</ele>
        <time>2011-03-22T11:14:59Z</time>
      </trkpt>
      <trkpt lat="44.44077" lon="6.68102">
        <ele>2859.58</ele>
        <time>2011-03-22T11:15:11Z</time>
      </trkpt>
      <trkpt lat="44.44072" lon="6.68094">
        <ele>2861.5</ele>
        <time>2011-03-22T11:15:24Z</time>
      </trkpt>
      <trkpt lat="44.44068" lon="6.68089">
        <ele>2861.98</ele>
        <time>2011-03-22T11:15:36Z</time>
      </trkpt>
      <trkpt lat="44.44067" lon="6.68086">
        <ele>2862.94</ele>
        <time>2011-03-22T11:15:46Z</time>
      </trkpt>
      <trkpt lat="44.44066" lon="6.68086">
        <ele>2863.9</ele>
        <time>2011-03-22T11:15:58Z</time>
      </trkpt>
      <trkpt lat="44.44064" lon="6.68083">
        <ele>2864.39</ele>
        <time>2011-03-22T11:16:10Z</time>
      </trkpt>
      <trkpt lat="44.44056" lon="6.68078">
        <ele>2866.79</ele>
        <time>2011-03-22T11:16:20Z</time>
      </trkpt>
      <trkpt lat="44.44054" lon="6.68076">
        <ele>2868.23</ele>
        <time>2011-03-22T11:16:31Z</time>
      </trkpt>
      <trkpt lat="44.44054" lon="6.68076">
        <ele>2869.19</ele>
        <time>2011-03-22T11:16:43Z</time>
      </trkpt>
      <trkpt lat="44.44052" lon="6.68074">
        <ele>2870.63</ele>
        <time>2011-03-22T11:16:56Z</time>
      </trkpt>
      <trkpt lat="44.44048" lon="6.68072">
        <ele>2872.56</ele>
        <time>2011-03-22T11:17:10Z</time>
      </trkpt>
      <trkpt lat="44.44048" lon="6.68072">
        <ele>2873.04</ele>
        <time>2011-03-22T11:17:23Z</time>
      </trkpt>
      <trkpt lat="44.44037" lon="6.68063">
        <ele>2874.96</ele>
        <time>2011-03-22T11:17:33Z</time>
      </trkpt>
      <trkpt lat="44.44035" lon="6.68061">
        <ele>2877.36</ele>
        <time>2011-03-22T11:17:45Z</time>
      </trkpt>
      <trkpt lat="44.44035" lon="6.68061">
        <ele>2877.84</ele>
        <time>2011-03-22T11:17:56Z</time>
      </trkpt>
      <trkpt lat="44.44035" lon="6.68061">
        <ele>2878.81</ele>
        <time>2011-03-22T11:18:08Z</time>
      </trkpt>
      <trkpt lat="44.44022" lon="6.68051">
        <ele>2879.77</ele>
        <time>2011-03-22T11:18:18Z</time>
      </trkpt>
      <trkpt lat="44.44019" lon="6.68051">
        <ele>2881.69</ele>
        <time>2011-03-22T11:18:28Z</time>
      </trkpt>
      <trkpt lat="44.44019" lon="6.68051">
        <ele>2881.21</ele>
        <time>2011-03-22T11:18:47Z</time>
      </trkpt>
      <trkpt lat="44.44019" lon="6.68051">
        <ele>2881.69</ele>
        <time>2011-03-22T11:18:49Z</time>
      </trkpt>
      <trkpt lat="44.44019" lon="6.68051">
        <ele>2881.21</ele>
        <time>2011-03-22T11:18:59Z</time>
      </trkpt>
      <trkpt lat="44.44018" lon="6.6805">
        <ele>2880.25</ele>
        <time>2011-03-22T11:19:30Z</time>
      </trkpt>
      <trkpt lat="44.44017" lon="6.68049">
        <ele>2881.21</ele>
        <time>2011-03-22T11:19:49Z</time>
      </trkpt>
      <trkpt lat="44.44017" lon="6.68049">
        <ele>2882.17</ele>
        <time>2011-03-22T11:19:51Z</time>
      </trkpt>
      <trkpt lat="44.44017" lon="6.68049">
        <ele>2881.21</ele>
        <time>2011-03-22T11:20:04Z</time>
      </trkpt>
      <trkpt lat="44.44017" lon="6.68049">
        <ele>2881.21</ele>
        <time>2011-03-22T11:20:19Z</time>
      </trkpt>
      <trkpt lat="44.44016" lon="6.68049">
        <ele>2882.17</ele>
        <time>2011-03-22T11:20:31Z</time>
      </trkpt>
      <trkpt lat="44.44016" lon="6.68049">
        <ele>2879.77</ele>
        <time>2011-03-22T11:20:51Z</time>
      </trkpt>
      <trkpt lat="44.44015" lon="6.6805">
        <ele>2879.29</ele>
        <time>2011-03-22T11:21:19Z</time>
      </trkpt>
      <trkpt lat="44.44015" lon="6.6805">
        <ele>2877.36</ele>
        <time>2011-03-22T11:21:28Z</time>
      </trkpt>
      <trkpt lat="44.44014" lon="6.6805">
        <ele>2880.73</ele>
        <time>2011-03-22T11:21:42Z</time>
      </trkpt>
      <trkpt lat="44.44014" lon="6.6805">
        <ele>2879.29</ele>
        <time>2011-03-22T11:21:59Z</time>
      </trkpt>
      <trkpt lat="44.44014" lon="6.6805">
        <ele>2876.88</ele>
        <time>2011-03-22T11:22:06Z</time>
      </trkpt>
      <trkpt lat="44.44014" lon="6.6805">
        <ele>2876.4</ele>
        <time>2011-03-22T11:22:40Z</time>
      </trkpt>
      <trkpt lat="44.44013" lon="6.6805">
        <ele>2875.92</ele>
        <time>2011-03-22T11:23:12Z</time>
      </trkpt>
      <trkpt lat="44.44012" lon="6.6805">
        <ele>2876.4</ele>
        <time>2011-03-22T11:23:45Z</time>
      </trkpt>
      <trkpt lat="44.4401" lon="6.68049">
        <ele>2875.44</ele>
        <time>2011-03-22T11:24:12Z</time>
      </trkpt>
      <trkpt lat="44.44008" lon="6.68049">
        <ele>2876.4</ele>
        <time>2011-03-22T11:24:31Z</time>
      </trkpt>
      <trkpt lat="44.44008" lon="6.68049">
        <ele>2876.88</ele>
        <time>2011-03-22T11:24:45Z</time>
      </trkpt>
      <trkpt lat="44.44007" lon="6.68049">
        <ele>2876.4</ele>
        <time>2011-03-22T11:25:18Z</time>
      </trkpt>
      <trkpt lat="44.44006" lon="6.68049">
        <ele>2874.96</ele>
        <time>2011-03-22T11:25:39Z</time>
      </trkpt>
      <trkpt lat="44.44006" lon="6.68049">
        <ele>2875.44</ele>
        <time>2011-03-22T11:26:09Z</time>
      </trkpt>
      <trkpt lat="44.44006" lon="6.68049">
        <ele>2876.4</ele>
        <time>2011-03-22T11:26:36Z</time>
      </trkpt>
      <trkpt lat="44.44005" lon="6.68049">
        <ele>2875.44</ele>
        <time>2011-03-22T11:27:19Z</time>
      </trkpt>
      <trkpt lat="44.44005" lon="6.68049">
        <ele>2875.44</ele>
        <time>2011-03-22T11:27:54Z</time>
      </trkpt>
      <trkpt lat="44.44004" lon="6.68049">
        <ele>2875.44</ele>
        <time>2011-03-22T11:28:26Z</time>
      </trkpt>
      <trkpt lat="44.44003" lon="6.68049">
        <ele>2875.44</ele>
        <time>2011-03-22T11:28:51Z</time>
      </trkpt>
      <trkpt lat="44.44003" lon="6.68049">
        <ele>2874.96</ele>
        <time>2011-03-22T11:29:22Z</time>
      </trkpt>
      <trkpt lat="44.44003" lon="6.68049">
        <ele>2874</ele>
        <time>2011-03-22T11:29:43Z</time>
      </trkpt>
      <trkpt lat="44.44003" lon="6.68049">
        <ele>2874.96</ele>
        <time>2011-03-22T11:30:16Z</time>
      </trkpt>
      <trkpt lat="44.44003" lon="6.68049">
        <ele>2874.48</ele>
        <time>2011-03-22T11:30:42Z</time>
      </trkpt>
      <trkpt lat="44.44003" lon="6.68049">
        <ele>2874.48</ele>
        <time>2011-03-22T11:31:14Z</time>
      </trkpt>
      <trkpt lat="44.44003" lon="6.68049">
        <ele>2874.48</ele>
        <time>2011-03-22T11:31:43Z</time>
      </trkpt>
      <trkpt lat="44.44003" lon="6.68048">
        <ele>2874.96</ele>
        <time>2011-03-22T11:32:15Z</time>
      </trkpt>
      <trkpt lat="44.44003" lon="6.68048">
        <ele>2877.36</ele>
        <time>2011-03-22T11:32:44Z</time>
      </trkpt>
      <trkpt lat="44.44003" lon="6.68048">
        <ele>2874.96</ele>
        <time>2011-03-22T11:32:58Z</time>
      </trkpt>
      <trkpt lat="44.44003" lon="6.68048">
        <ele>2875.44</ele>
        <time>2011-03-22T11:33:17Z</time>
      </trkpt>
      <trkpt lat="44.44002" lon="6.68048">
        <ele>2877.36</ele>
        <time>2011-03-22T11:33:39Z</time>
      </trkpt>
      <trkpt lat="44.44002" lon="6.68048">
        <ele>2878.81</ele>
        <time>2011-03-22T11:33:47Z</time>
      </trkpt>
      <trkpt lat="44.44002" lon="6.68048">
        <ele>2875.44</ele>
        <time>2011-03-22T11:33:50Z</time>
      </trkpt>
      <trkpt lat="44.44002" lon="6.68048">
        <ele>2874.48</ele>
        <time>2011-03-22T11:34:00Z</time>
      </trkpt>
      <trkpt lat="44.44003" lon="6.68048">
        <ele>2871.6</ele>
        <time>2011-03-22T11:34:13Z</time>
      </trkpt>
      <trkpt lat="44.44003" lon="6.68048">
        <ele>2875.92</ele>
        <time>2011-03-22T11:34:25Z</time>
      </trkpt>
      <trkpt lat="44.44003" lon="6.68048">
        <ele>2875.44</ele>
        <time>2011-03-22T11:34:26Z</time>
      </trkpt>
      <trkpt lat="44.44003" lon="6.68048">
        <ele>2874</ele>
        <time>2011-03-22T11:34:42Z</time>
      </trkpt>
      <trkpt lat="44.44003" lon="6.68048">
        <ele>2875.44</ele>
        <time>2011-03-22T11:34:49Z</time>
      </trkpt>
      <trkpt lat="44.44003" lon="6.68048">
        <ele>2874</ele>
        <time>2011-03-22T11:35:11Z</time>
      </trkpt>
      <trkpt lat="44.44003" lon="6.68048">
        <ele>2873.52</ele>
        <time>2011-03-22T11:35:12Z</time>
      </trkpt>
      <trkpt lat="44.44003" lon="6.68048">
        <ele>2873.52</ele>
        <time>2011-03-22T11:35:19Z</time>
      </trkpt>
      <trkpt lat="44.44011" lon="6.68055">
        <ele>2868.71</ele>
        <time>2011-03-22T11:35:23Z</time>
      </trkpt>
      <trkpt lat="44.44014" lon="6.68058">
        <ele>2867.27</ele>
        <time>2011-03-22T11:35:24Z</time>
      </trkpt>
      <trkpt lat="44.4402" lon="6.68065">
        <ele>2862.46</ele>
        <time>2011-03-22T11:35:26Z</time>
      </trkpt>
      <trkpt lat="44.44027" lon="6.68073">
        <ele>2858.14</ele>
        <time>2011-03-22T11:35:28Z</time>
      </trkpt>
      <trkpt lat="44.44031" lon="6.68077">
        <ele>2858.14</ele>
        <time>2011-03-22T11:35:29Z</time>
      </trkpt>
      <trkpt lat="44.44041" lon="6.68085">
        <ele>2857.18</ele>
        <time>2011-03-22T11:35:31Z</time>
      </trkpt>
      <trkpt lat="44.44056" lon="6.68101">
        <ele>2856.21</ele>
        <time>2011-03-22T11:35:35Z</time>
      </trkpt>
      <trkpt lat="44.44066" lon="6.68118">
        <ele>2852.37</ele>
        <time>2011-03-22T11:35:39Z</time>
      </trkpt>
      <trkpt lat="44.44068" lon="6.68121">
        <ele>2851.89</ele>
        <time>2011-03-22T11:35:40Z</time>
      </trkpt>
      <trkpt lat="44.44069" lon="6.68124">
        <ele>2851.41</ele>
        <time>2011-03-22T11:35:41Z</time>
      </trkpt>
      <trkpt lat="44.44072" lon="6.68126">
        <ele>2849.48</ele>
        <time>2011-03-22T11:35:56Z</time>
      </trkpt>
      <trkpt lat="44.44072" lon="6.68128">
        <ele>2850.45</ele>
        <time>2011-03-22T11:36:21Z</time>
      </trkpt>
      <trkpt lat="44.44078" lon="6.6814">
        <ele>2848.04</ele>
        <time>2011-03-22T11:36:25Z</time>
      </trkpt>
      <trkpt lat="44.44075" lon="6.68152">
        <ele>2843.72</ele>
        <time>2011-03-22T11:36:28Z</time>
      </trkpt>
      <trkpt lat="44.44077" lon="6.68157">
        <ele>2844.2</ele>
        <time>2011-03-22T11:36:29Z</time>
      </trkpt>
      <trkpt lat="44.44077" lon="6.68176">
        <ele>2838.91</ele>
        <time>2011-03-22T11:36:33Z</time>
      </trkpt>
      <trkpt lat="44.44078" lon="6.68185">
        <ele>2837.47</ele>
        <time>2011-03-22T11:36:35Z</time>
      </trkpt>
      <trkpt lat="44.44077" lon="6.68188">
        <ele>2834.1</ele>
        <time>2011-03-22T11:36:36Z</time>
      </trkpt>
      <trkpt lat="44.44073" lon="6.68195">
        <ele>2831.22</ele>
        <time>2011-03-22T11:36:38Z</time>
      </trkpt>
      <trkpt lat="44.44073" lon="6.68211">
        <ele>2825.45</ele>
        <time>2011-03-22T11:36:42Z</time>
      </trkpt>
      <trkpt lat="44.44068" lon="6.6821">
        <ele>2824.49</ele>
        <time>2011-03-22T11:36:51Z</time>
      </trkpt>
      <trkpt lat="44.4407" lon="6.6821">
        <ele>2824.97</ele>
        <time>2011-03-22T11:37:11Z</time>
      </trkpt>
      <trkpt lat="44.44071" lon="6.68218">
        <ele>2823.53</ele>
        <time>2011-03-22T11:37:15Z</time>
      </trkpt>
      <trkpt lat="44.4407" lon="6.68231">
        <ele>2819.2</ele>
        <time>2011-03-22T11:37:18Z</time>
      </trkpt>
      <trkpt lat="44.44071" lon="6.68237">
        <ele>2816.32</ele>
        <time>2011-03-22T11:37:20Z</time>
      </trkpt>
      <trkpt lat="44.44072" lon="6.6825">
        <ele>2815.36</ele>
        <time>2011-03-22T11:37:24Z</time>
      </trkpt>
      <trkpt lat="44.44073" lon="6.68254">
        <ele>2812.47</ele>
        <time>2011-03-22T11:37:25Z</time>
      </trkpt>
      <trkpt lat="44.44077" lon="6.68256">
        <ele>2810.07</ele>
        <time>2011-03-22T11:37:28Z</time>
      </trkpt>
      <trkpt lat="44.4408" lon="6.68256">
        <ele>2809.59</ele>
        <time>2011-03-22T11:37:30Z</time>
      </trkpt>
      <trkpt lat="44.4409" lon="6.68257">
        <ele>2808.15</ele>
        <time>2011-03-22T11:37:41Z</time>
      </trkpt>
      <trkpt lat="44.4409" lon="6.68257">
        <ele>2808.15</ele>
        <time>2011-03-22T11:37:44Z</time>
      </trkpt>
      <trkpt lat="44.44094" lon="6.68258">
        <ele>2806.71</ele>
        <time>2011-03-22T11:37:46Z</time>
      </trkpt>
      <trkpt lat="44.44111" lon="6.6826">
        <ele>2804.78</ele>
        <time>2011-03-22T11:37:59Z</time>
      </trkpt>
      <trkpt lat="44.44112" lon="6.68263">
        <ele>2804.3</ele>
        <time>2011-03-22T11:38:09Z</time>
      </trkpt>
      <trkpt lat="44.44111" lon="6.68266">
        <ele>2800.94</ele>
        <time>2011-03-22T11:38:11Z</time>
      </trkpt>
      <trkpt lat="44.44112" lon="6.68276">
        <ele>2795.65</ele>
        <time>2011-03-22T11:38:14Z</time>
      </trkpt>
      <trkpt lat="44.44112" lon="6.6828">
        <ele>2794.69</ele>
        <time>2011-03-22T11:38:15Z</time>
      </trkpt>
      <trkpt lat="44.44113" lon="6.68291">
        <ele>2790.84</ele>
        <time>2011-03-22T11:38:18Z</time>
      </trkpt>
      <trkpt lat="44.44113" lon="6.683">
        <ele>2786.04</ele>
        <time>2011-03-22T11:38:20Z</time>
      </trkpt>
      <trkpt lat="44.44112" lon="6.68305">
        <ele>2782.67</ele>
        <time>2011-03-22T11:38:21Z</time>
      </trkpt>
      <trkpt lat="44.4411" lon="6.6831">
        <ele>2782.67</ele>
        <time>2011-03-22T11:38:22Z</time>
      </trkpt>
      <trkpt lat="44.44109" lon="6.68316">
        <ele>2777.39</ele>
        <time>2011-03-22T11:38:23Z</time>
      </trkpt>
      <trkpt lat="44.44108" lon="6.68321">
        <ele>2773.54</ele>
        <time>2011-03-22T11:38:24Z</time>
      </trkpt>
      <trkpt lat="44.44107" lon="6.68327">
        <ele>2774.5</ele>
        <time>2011-03-22T11:38:25Z</time>
      </trkpt>
      <trkpt lat="44.44104" lon="6.6834">
        <ele>2772.1</ele>
        <time>2011-03-22T11:38:27Z</time>
      </trkpt>
      <trkpt lat="44.44099" lon="6.68353">
        <ele>2768.73</ele>
        <time>2011-03-22T11:38:29Z</time>
      </trkpt>
      <trkpt lat="44.44094" lon="6.68364">
        <ele>2769.21</ele>
        <time>2011-03-22T11:38:38Z</time>
      </trkpt>
      <trkpt lat="44.44094" lon="6.68364">
        <ele>2770.66</ele>
        <time>2011-03-22T11:38:56Z</time>
      </trkpt>
      <trkpt lat="44.44094" lon="6.68363">
        <ele>2769.21</ele>
        <time>2011-03-22T11:39:21Z</time>
      </trkpt>
      <trkpt lat="44.44096" lon="6.68364">
        <ele>2769.7</ele>
        <time>2011-03-22T11:39:38Z</time>
      </trkpt>
      <trkpt lat="44.44095" lon="6.68369">
        <ele>2765.85</ele>
        <time>2011-03-22T11:39:41Z</time>
      </trkpt>
      <trkpt lat="44.44095" lon="6.68372">
        <ele>2767.29</ele>
        <time>2011-03-22T11:39:42Z</time>
      </trkpt>
      <trkpt lat="44.44095" lon="6.68377">
        <ele>2764.41</ele>
        <time>2011-03-22T11:39:43Z</time>
      </trkpt>
      <trkpt lat="44.44096" lon="6.68393">
        <ele>2759.12</ele>
        <time>2011-03-22T11:39:46Z</time>
      </trkpt>
      <trkpt lat="44.44096" lon="6.68404">
        <ele>2754.8</ele>
        <time>2011-03-22T11:39:48Z</time>
      </trkpt>
      <trkpt lat="44.44094" lon="6.68415">
        <ele>2750.47</ele>
        <time>2011-03-22T11:39:50Z</time>
      </trkpt>
      <trkpt lat="44.44092" lon="6.68427">
        <ele>2747.1</ele>
        <time>2011-03-22T11:39:52Z</time>
      </trkpt>
      <trkpt lat="44.44091" lon="6.68433">
        <ele>2743.26</ele>
        <time>2011-03-22T11:39:53Z</time>
      </trkpt>
      <trkpt lat="44.44091" lon="6.68444">
        <ele>2739.41</ele>
        <time>2011-03-22T11:39:55Z</time>
      </trkpt>
      <trkpt lat="44.4409" lon="6.68455">
        <ele>2736.05</ele>
        <time>2011-03-22T11:39:57Z</time>
      </trkpt>
      <trkpt lat="44.44091" lon="6.68466">
        <ele>2730.28</ele>
        <time>2011-03-22T11:39:59Z</time>
      </trkpt>
      <trkpt lat="44.44091" lon="6.68473">
        <ele>2726.92</ele>
        <time>2011-03-22T11:40:00Z</time>
      </trkpt>
      <trkpt lat="44.44092" lon="6.68477">
        <ele>2724.99</ele>
        <time>2011-03-22T11:40:01Z</time>
      </trkpt>
      <trkpt lat="44.44093" lon="6.68488">
        <ele>2719.71</ele>
        <time>2011-03-22T11:40:03Z</time>
      </trkpt>
      <trkpt lat="44.44094" lon="6.68494">
        <ele>2716.34</ele>
        <time>2011-03-22T11:40:04Z</time>
      </trkpt>
      <trkpt lat="44.44096" lon="6.68507">
        <ele>2715.38</ele>
        <time>2011-03-22T11:40:06Z</time>
      </trkpt>
      <trkpt lat="44.441" lon="6.68529">
        <ele>2715.38</ele>
        <time>2011-03-22T11:40:17Z</time>
      </trkpt>
      <trkpt lat="44.441" lon="6.68529">
        <ele>2716.82</ele>
        <time>2011-03-22T11:40:39Z</time>
      </trkpt>
      <trkpt lat="44.441" lon="6.6853">
        <ele>2717.78</ele>
        <time>2011-03-22T11:41:03Z</time>
      </trkpt>
      <trkpt lat="44.44102" lon="6.68531">
        <ele>2717.78</ele>
        <time>2011-03-22T11:41:28Z</time>
      </trkpt>
      <trkpt lat="44.44104" lon="6.68539">
        <ele>2713.46</ele>
        <time>2011-03-22T11:41:31Z</time>
      </trkpt>
      <trkpt lat="44.44104" lon="6.68546">
        <ele>2708.65</ele>
        <time>2011-03-22T11:41:33Z</time>
      </trkpt>
      <trkpt lat="44.44103" lon="6.68553">
        <ele>2705.29</ele>
        <time>2011-03-22T11:41:35Z</time>
      </trkpt>
      <trkpt lat="44.44106" lon="6.68563">
        <ele>2700</ele>
        <time>2011-03-22T11:41:37Z</time>
      </trkpt>
      <trkpt lat="44.44107" lon="6.68572">
        <ele>2696.15</ele>
        <time>2011-03-22T11:41:39Z</time>
      </trkpt>
      <trkpt lat="44.44107" lon="6.6858">
        <ele>2692.31</ele>
        <time>2011-03-22T11:41:41Z</time>
      </trkpt>
      <trkpt lat="44.44107" lon="6.68585">
        <ele>2692.31</ele>
        <time>2011-03-22T11:41:42Z</time>
      </trkpt>
      <trkpt lat="44.44106" lon="6.68601">
        <ele>2685.1</ele>
        <time>2011-03-22T11:41:44Z</time>
      </trkpt>
      <trkpt lat="44.44106" lon="6.68621">
        <ele>2680.77</ele>
        <time>2011-03-22T11:41:47Z</time>
      </trkpt>
      <trkpt lat="44.44106" lon="6.68637">
        <ele>2676.93</ele>
        <time>2011-03-22T11:41:49Z</time>
      </trkpt>
      <trkpt lat="44.44108" lon="6.68656">
        <ele>2674.04</ele>
        <time>2011-03-22T11:41:52Z</time>
      </trkpt>
      <trkpt lat="44.44107" lon="6.68666">
        <ele>2672.6</ele>
        <time>2011-03-22T11:41:54Z</time>
      </trkpt>
      <trkpt lat="44.44102" lon="6.68672">
        <ele>2672.6</ele>
        <time>2011-03-22T11:42:05Z</time>
      </trkpt>
      <trkpt lat="44.44102" lon="6.68672">
        <ele>2673.56</ele>
        <time>2011-03-22T11:42:29Z</time>
      </trkpt>
      <trkpt lat="44.44102" lon="6.68671">
        <ele>2675.01</ele>
        <time>2011-03-22T11:42:49Z</time>
      </trkpt>
      <trkpt lat="44.44102" lon="6.68671">
        <ele>2675.97</ele>
        <time>2011-03-22T11:43:03Z</time>
      </trkpt>
      <trkpt lat="44.44099" lon="6.68675">
        <ele>2675.01</ele>
        <time>2011-03-22T11:43:12Z</time>
      </trkpt>
      <trkpt lat="44.44102" lon="6.68675">
        <ele>2672.6</ele>
        <time>2011-03-22T11:43:17Z</time>
      </trkpt>
      <trkpt lat="44.44099" lon="6.68691">
        <ele>2668.28</ele>
        <time>2011-03-22T11:43:21Z</time>
      </trkpt>
      <trkpt lat="44.44101" lon="6.687">
        <ele>2664.43</ele>
        <time>2011-03-22T11:43:23Z</time>
      </trkpt>
      <trkpt lat="44.44104" lon="6.68713">
        <ele>2660.59</ele>
        <time>2011-03-22T11:43:26Z</time>
      </trkpt>
      <trkpt lat="44.44104" lon="6.68723">
        <ele>2656.74</ele>
        <time>2011-03-22T11:43:28Z</time>
      </trkpt>
      <trkpt lat="44.44105" lon="6.68733">
        <ele>2651.93</ele>
        <time>2011-03-22T11:43:30Z</time>
      </trkpt>
      <trkpt lat="44.44107" lon="6.68744">
        <ele>2649.05</ele>
        <time>2011-03-22T11:43:32Z</time>
      </trkpt>
      <trkpt lat="44.4411" lon="6.68754">
        <ele>2644.24</ele>
        <time>2011-03-22T11:43:34Z</time>
      </trkpt>
      <trkpt lat="44.44112" lon="6.68765">
        <ele>2641.36</ele>
        <time>2011-03-22T11:43:36Z</time>
      </trkpt>
      <trkpt lat="44.44111" lon="6.68771">
        <ele>2637.03</ele>
        <time>2011-03-22T11:43:37Z</time>
      </trkpt>
      <trkpt lat="44.44111" lon="6.68776">
        <ele>2636.55</ele>
        <time>2011-03-22T11:43:38Z</time>
      </trkpt>
      <trkpt lat="44.44108" lon="6.68783">
        <ele>2636.55</ele>
        <time>2011-03-22T11:43:49Z</time>
      </trkpt>
      <trkpt lat="44.44108" lon="6.68783">
        <ele>2637.03</ele>
        <time>2011-03-22T11:44:14Z</time>
      </trkpt>
      <trkpt lat="44.4411" lon="6.6878">
        <ele>2637.51</ele>
        <time>2011-03-22T11:44:42Z</time>
      </trkpt>
      <trkpt lat="44.44111" lon="6.68781">
        <ele>2638.96</ele>
        <time>2011-03-22T11:45:02Z</time>
      </trkpt>
      <trkpt lat="44.44111" lon="6.68781">
        <ele>2638.48</ele>
        <time>2011-03-22T11:45:04Z</time>
      </trkpt>
      <trkpt lat="44.44107" lon="6.68789">
        <ele>2634.15</ele>
        <time>2011-03-22T11:45:10Z</time>
      </trkpt>
      <trkpt lat="44.44105" lon="6.68793">
        <ele>2634.63</ele>
        <time>2011-03-22T11:45:11Z</time>
      </trkpt>
      <trkpt lat="44.44103" lon="6.68809">
        <ele>2630.79</ele>
        <time>2011-03-22T11:45:14Z</time>
      </trkpt>
      <trkpt lat="44.44102" lon="6.68821">
        <ele>2625.5</ele>
        <time>2011-03-22T11:45:17Z</time>
      </trkpt>
      <trkpt lat="44.44104" lon="6.68829">
        <ele>2622.61</ele>
        <time>2011-03-22T11:45:19Z</time>
      </trkpt>
      <trkpt lat="44.44105" lon="6.68837">
        <ele>2618.77</ele>
        <time>2011-03-22T11:45:21Z</time>
      </trkpt>
      <trkpt lat="44.44104" lon="6.6884">
        <ele>2617.33</ele>
        <time>2011-03-22T11:45:22Z</time>
      </trkpt>
      <trkpt lat="44.44104" lon="6.6886">
        <ele>2613</ele>
        <time>2011-03-22T11:45:25Z</time>
      </trkpt>
      <trkpt lat="44.44103" lon="6.68867">
        <ele>2610.6</ele>
        <time>2011-03-22T11:45:26Z</time>
      </trkpt>
      <trkpt lat="44.44098" lon="6.68888">
        <ele>2605.79</ele>
        <time>2011-03-22T11:45:28Z</time>
      </trkpt>
      <trkpt lat="44.4409" lon="6.68916">
        <ele>2602.43</ele>
        <time>2011-03-22T11:45:30Z</time>
      </trkpt>
      <trkpt lat="44.44087" lon="6.68927">
        <ele>2602.43</ele>
        <time>2011-03-22T11:45:31Z</time>
      </trkpt>
      <trkpt lat="44.44084" lon="6.68939">
        <ele>2601.46</ele>
        <time>2011-03-22T11:45:34Z</time>
      </trkpt>
      <trkpt lat="44.4409" lon="6.68942">
        <ele>2600.5</ele>
        <time>2011-03-22T11:45:45Z</time>
      </trkpt>
      <trkpt lat="44.44101" lon="6.68952">
        <ele>2594.74</ele>
        <time>2011-03-22T11:45:49Z</time>
      </trkpt>
      <trkpt lat="44.44111" lon="6.68951">
        <ele>2588.01</ele>
        <time>2011-03-22T11:45:51Z</time>
      </trkpt>
      <trkpt lat="44.44115" lon="6.68949">
        <ele>2588.49</ele>
        <time>2011-03-22T11:45:52Z</time>
      </trkpt>
      <trkpt lat="44.44123" lon="6.68949">
        <ele>2586.56</ele>
        <time>2011-03-22T11:45:54Z</time>
      </trkpt>
      <trkpt lat="44.44132" lon="6.68951">
        <ele>2586.08</ele>
        <time>2011-03-22T11:45:57Z</time>
      </trkpt>
      <trkpt lat="44.4414" lon="6.68972">
        <ele>2580.32</ele>
        <time>2011-03-22T11:46:00Z</time>
      </trkpt>
      <trkpt lat="44.44138" lon="6.68988">
        <ele>2575.99</ele>
        <time>2011-03-22T11:46:02Z</time>
      </trkpt>
      <trkpt lat="44.44137" lon="6.68993">
        <ele>2575.99</ele>
        <time>2011-03-22T11:46:03Z</time>
      </trkpt>
      <trkpt lat="44.44136" lon="6.68992">
        <ele>2578.39</ele>
        <time>2011-03-22T11:46:09Z</time>
      </trkpt>
      <trkpt lat="44.44136" lon="6.68992">
        <ele>2575.03</ele>
        <time>2011-03-22T11:46:27Z</time>
      </trkpt>
      <trkpt lat="44.44138" lon="6.68994">
        <ele>2574.07</ele>
        <time>2011-03-22T11:46:29Z</time>
      </trkpt>
      <trkpt lat="44.44147" lon="6.69009">
        <ele>2570.7</ele>
        <time>2011-03-22T11:46:32Z</time>
      </trkpt>
      <trkpt lat="44.4416" lon="6.69028">
        <ele>2565.42</ele>
        <time>2011-03-22T11:46:36Z</time>
      </trkpt>
      <trkpt lat="44.44173" lon="6.69041">
        <ele>2561.09</ele>
        <time>2011-03-22T11:46:39Z</time>
      </trkpt>
      <trkpt lat="44.44183" lon="6.69051">
        <ele>2555.8</ele>
        <time>2011-03-22T11:46:41Z</time>
      </trkpt>
      <trkpt lat="44.44191" lon="6.69063">
        <ele>2551.48</ele>
        <time>2011-03-22T11:46:43Z</time>
      </trkpt>
      <trkpt lat="44.442" lon="6.6908">
        <ele>2547.15</ele>
        <time>2011-03-22T11:46:46Z</time>
      </trkpt>
      <trkpt lat="44.44212" lon="6.69082">
        <ele>2544.75</ele>
        <time>2011-03-22T11:46:49Z</time>
      </trkpt>
      <trkpt lat="44.44227" lon="6.69083">
        <ele>2540.9</ele>
        <time>2011-03-22T11:46:52Z</time>
      </trkpt>
      <trkpt lat="44.44239" lon="6.69091">
        <ele>2540.42</ele>
        <time>2011-03-22T11:46:55Z</time>
      </trkpt>
      <trkpt lat="44.44262" lon="6.69121">
        <ele>2537.06</ele>
        <time>2011-03-22T11:47:04Z</time>
      </trkpt>
      <trkpt lat="44.44274" lon="6.69143">
        <ele>2533.69</ele>
        <time>2011-03-22T11:47:08Z</time>
      </trkpt>
      <trkpt lat="44.44274" lon="6.69152">
        <ele>2531.29</ele>
        <time>2011-03-22T11:47:10Z</time>
      </trkpt>
      <trkpt lat="44.44284" lon="6.6918">
        <ele>2526</ele>
        <time>2011-03-22T11:47:15Z</time>
      </trkpt>
      <trkpt lat="44.44291" lon="6.69199">
        <ele>2524.08</ele>
        <time>2011-03-22T11:47:18Z</time>
      </trkpt>
      <trkpt lat="44.44288" lon="6.69207">
        <ele>2521.68</ele>
        <time>2011-03-22T11:47:20Z</time>
      </trkpt>
      <trkpt lat="44.44289" lon="6.69221">
        <ele>2518.31</ele>
        <time>2011-03-22T11:47:22Z</time>
      </trkpt>
      <trkpt lat="44.44293" lon="6.69235">
        <ele>2515.91</ele>
        <time>2011-03-22T11:47:24Z</time>
      </trkpt>
      <trkpt lat="44.44307" lon="6.69271">
        <ele>2511.58</ele>
        <time>2011-03-22T11:47:29Z</time>
      </trkpt>
      <trkpt lat="44.44315" lon="6.69296">
        <ele>2509.66</ele>
        <time>2011-03-22T11:47:32Z</time>
      </trkpt>
      <trkpt lat="44.4432" lon="6.6932">
        <ele>2507.74</ele>
        <time>2011-03-22T11:47:35Z</time>
      </trkpt>
      <trkpt lat="44.44324" lon="6.69333">
        <ele>2506.77</ele>
        <time>2011-03-22T11:47:37Z</time>
      </trkpt>
      <trkpt lat="44.44328" lon="6.69345">
        <ele>2505.81</ele>
        <time>2011-03-22T11:47:40Z</time>
      </trkpt>
      <trkpt lat="44.44326" lon="6.69352">
        <ele>2503.41</ele>
        <time>2011-03-22T11:47:50Z</time>
      </trkpt>
      <trkpt lat="44.44326" lon="6.69352">
        <ele>2503.41</ele>
        <time>2011-03-22T11:48:15Z</time>
      </trkpt>
      <trkpt lat="44.44326" lon="6.69352">
        <ele>2503.41</ele>
        <time>2011-03-22T11:48:39Z</time>
      </trkpt>
      <trkpt lat="44.44326" lon="6.69352">
        <ele>2502.93</ele>
        <time>2011-03-22T11:49:04Z</time>
      </trkpt>
      <trkpt lat="44.44326" lon="6.69352">
        <ele>2503.41</ele>
        <time>2011-03-22T11:49:30Z</time>
      </trkpt>
      <trkpt lat="44.44326" lon="6.69352">
        <ele>2503.41</ele>
        <time>2011-03-22T11:49:45Z</time>
      </trkpt>
      <trkpt lat="44.44327" lon="6.69354">
        <ele>2502.45</ele>
        <time>2011-03-22T11:49:54Z</time>
      </trkpt>
      <trkpt lat="44.44338" lon="6.69369">
        <ele>2500.05</ele>
        <time>2011-03-22T11:49:57Z</time>
      </trkpt>
      <trkpt lat="44.44341" lon="6.69385">
        <ele>2495.72</ele>
        <time>2011-03-22T11:50:00Z</time>
      </trkpt>
      <trkpt lat="44.4434" lon="6.69398">
        <ele>2491.87</ele>
        <time>2011-03-22T11:50:02Z</time>
      </trkpt>
      <trkpt lat="44.44337" lon="6.69404">
        <ele>2488.51</ele>
        <time>2011-03-22T11:50:03Z</time>
      </trkpt>
      <trkpt lat="44.44334" lon="6.6941">
        <ele>2485.15</ele>
        <time>2011-03-22T11:50:04Z</time>
      </trkpt>
      <trkpt lat="44.44335" lon="6.69425">
        <ele>2480.82</ele>
        <time>2011-03-22T11:50:06Z</time>
      </trkpt>
      <trkpt lat="44.44336" lon="6.6944">
        <ele>2475.53</ele>
        <time>2011-03-22T11:50:08Z</time>
      </trkpt>
      <trkpt lat="44.44336" lon="6.69453">
        <ele>2471.21</ele>
        <time>2011-03-22T11:50:10Z</time>
      </trkpt>
      <trkpt lat="44.44335" lon="6.69468">
        <ele>2465.92</ele>
        <time>2011-03-22T11:50:12Z</time>
      </trkpt>
      <trkpt lat="44.44331" lon="6.69482">
        <ele>2461.59</ele>
        <time>2011-03-22T11:50:14Z</time>
      </trkpt>
      <trkpt lat="44.44333" lon="6.69494">
        <ele>2458.71</ele>
        <time>2011-03-22T11:50:16Z</time>
      </trkpt>
      <trkpt lat="44.44333" lon="6.69506">
        <ele>2454.86</ele>
        <time>2011-03-22T11:50:18Z</time>
      </trkpt>
      <trkpt lat="44.44334" lon="6.69515">
        <ele>2452.46</ele>
        <time>2011-03-22T11:50:19Z</time>
      </trkpt>
      <trkpt lat="44.44342" lon="6.69548">
        <ele>2446.69</ele>
        <time>2011-03-22T11:50:23Z</time>
      </trkpt>
      <trkpt lat="44.44348" lon="6.69563">
        <ele>2444.29</ele>
        <time>2011-03-22T11:50:25Z</time>
      </trkpt>
      <trkpt lat="44.4435" lon="6.69579">
        <ele>2443.33</ele>
        <time>2011-03-22T11:50:27Z</time>
      </trkpt>
      <trkpt lat="44.4435" lon="6.69588">
        <ele>2438.04</ele>
        <time>2011-03-22T11:50:28Z</time>
      </trkpt>
      <trkpt lat="44.4435" lon="6.69596">
        <ele>2438.52</ele>
        <time>2011-03-22T11:50:29Z</time>
      </trkpt>
      <trkpt lat="44.44352" lon="6.69632">
        <ele>2430.83</ele>
        <time>2011-03-22T11:50:33Z</time>
      </trkpt>
      <trkpt lat="44.4435" lon="6.69642">
        <ele>2427.47</ele>
        <time>2011-03-22T11:50:34Z</time>
      </trkpt>
      <trkpt lat="44.44348" lon="6.69652">
        <ele>2420.74</ele>
        <time>2011-03-22T11:50:35Z</time>
      </trkpt>
      <trkpt lat="44.44346" lon="6.69678">
        <ele>2419.3</ele>
        <time>2011-03-22T11:50:38Z</time>
      </trkpt>
      <trkpt lat="44.44343" lon="6.69693">
        <ele>2418.33</ele>
        <time>2011-03-22T11:50:40Z</time>
      </trkpt>
      <trkpt lat="44.44342" lon="6.69701">
        <ele>2411.6</ele>
        <time>2011-03-22T11:50:41Z</time>
      </trkpt>
      <trkpt lat="44.4434" lon="6.6973">
        <ele>2405.84</ele>
        <time>2011-03-22T11:50:45Z</time>
      </trkpt>
      <trkpt lat="44.44341" lon="6.6973">
        <ele>2404.88</ele>
        <time>2011-03-22T11:50:53Z</time>
      </trkpt>
      <trkpt lat="44.44341" lon="6.6973">
        <ele>2404.88</ele>
        <time>2011-03-22T11:51:18Z</time>
      </trkpt>
      <trkpt lat="44.44341" lon="6.6973">
        <ele>2404.88</ele>
        <time>2011-03-22T11:51:19Z</time>
      </trkpt>
      <trkpt lat="44.44341" lon="6.69742">
        <ele>2403.43</ele>
        <time>2011-03-22T11:51:24Z</time>
      </trkpt>
      <trkpt lat="44.44341" lon="6.69758">
        <ele>2399.11</ele>
        <time>2011-03-22T11:51:34Z</time>
      </trkpt>
      <trkpt lat="44.44341" lon="6.69759">
        <ele>2398.63</ele>
        <time>2011-03-22T11:52:05Z</time>
      </trkpt>
      <trkpt lat="44.4434" lon="6.6976">
        <ele>2399.11</ele>
        <time>2011-03-22T11:52:44Z</time>
      </trkpt>
      <trkpt lat="44.4434" lon="6.6976">
        <ele>2399.11</ele>
        <time>2011-03-22T11:53:17Z</time>
      </trkpt>
      <trkpt lat="44.44339" lon="6.6976">
        <ele>2398.63</ele>
        <time>2011-03-22T11:53:44Z</time>
      </trkpt>
      <trkpt lat="44.44339" lon="6.6976">
        <ele>2398.63</ele>
        <time>2011-03-22T11:54:15Z</time>
      </trkpt>
      <trkpt lat="44.44339" lon="6.6976">
        <ele>2397.18</ele>
        <time>2011-03-22T11:54:48Z</time>
      </trkpt>
      <trkpt lat="44.44339" lon="6.6976">
        <ele>2397.18</ele>
        <time>2011-03-22T11:55:17Z</time>
      </trkpt>
      <trkpt lat="44.44339" lon="6.6976">
        <ele>2396.7</ele>
        <time>2011-03-22T11:55:34Z</time>
      </trkpt>
      <trkpt lat="44.44343" lon="6.69771">
        <ele>2397.18</ele>
        <time>2011-03-22T11:55:41Z</time>
      </trkpt>
      <trkpt lat="44.44348" lon="6.69778">
        <ele>2395.26</ele>
        <time>2011-03-22T11:55:43Z</time>
      </trkpt>
      <trkpt lat="44.44356" lon="6.69788">
        <ele>2393.82</ele>
        <time>2011-03-22T11:55:45Z</time>
      </trkpt>
      <trkpt lat="44.44364" lon="6.69806">
        <ele>2389.49</ele>
        <time>2011-03-22T11:55:48Z</time>
      </trkpt>
      <trkpt lat="44.44364" lon="6.69819">
        <ele>2387.09</ele>
        <time>2011-03-22T11:55:51Z</time>
      </trkpt>
      <trkpt lat="44.44365" lon="6.69825">
        <ele>2385.17</ele>
        <time>2011-03-22T11:55:52Z</time>
      </trkpt>
      <trkpt lat="44.4437" lon="6.69843">
        <ele>2378.92</ele>
        <time>2011-03-22T11:55:55Z</time>
      </trkpt>
      <trkpt lat="44.44371" lon="6.69857">
        <ele>2372.67</ele>
        <time>2011-03-22T11:55:57Z</time>
      </trkpt>
      <trkpt lat="44.44372" lon="6.69865">
        <ele>2373.63</ele>
        <time>2011-03-22T11:55:58Z</time>
      </trkpt>
      <trkpt lat="44.44373" lon="6.69881">
        <ele>2369.31</ele>
        <time>2011-03-22T11:56:00Z</time>
      </trkpt>
      <trkpt lat="44.44372" lon="6.69888">
        <ele>2369.31</ele>
        <time>2011-03-22T11:56:01Z</time>
      </trkpt>
      <trkpt lat="44.44371" lon="6.69904">
        <ele>2367.86</ele>
        <time>2011-03-22T11:56:03Z</time>
      </trkpt>
      <trkpt lat="44.4437" lon="6.69924">
        <ele>2362.58</ele>
        <time>2011-03-22T11:56:05Z</time>
      </trkpt>
      <trkpt lat="44.44369" lon="6.69934">
        <ele>2362.1</ele>
        <time>2011-03-22T11:56:06Z</time>
      </trkpt>
      <trkpt lat="44.4437" lon="6.69976">
        <ele>2357.77</ele>
        <time>2011-03-22T11:56:10Z</time>
      </trkpt>
      <trkpt lat="44.4437" lon="6.69996">
        <ele>2353.44</ele>
        <time>2011-03-22T11:56:12Z</time>
      </trkpt>
      <trkpt lat="44.4437" lon="6.70005">
        <ele>2352.48</ele>
        <time>2011-03-22T11:56:13Z</time>
      </trkpt>
      <trkpt lat="44.44371" lon="6.70025">
        <ele>2348.64</ele>
        <time>2011-03-22T11:56:15Z</time>
      </trkpt>
      <trkpt lat="44.44372" lon="6.70043">
        <ele>2345.75</ele>
        <time>2011-03-22T11:56:17Z</time>
      </trkpt>
      <trkpt lat="44.44373" lon="6.70074">
        <ele>2344.31</ele>
        <time>2011-03-22T11:56:21Z</time>
      </trkpt>
      <trkpt lat="44.44374" lon="6.7009">
        <ele>2341.91</ele>
        <time>2011-03-22T11:56:23Z</time>
      </trkpt>
      <trkpt lat="44.44374" lon="6.70098">
        <ele>2338.06</ele>
        <time>2011-03-22T11:56:24Z</time>
      </trkpt>
      <trkpt lat="44.44376" lon="6.70108">
        <ele>2335.66</ele>
        <time>2011-03-22T11:56:27Z</time>
      </trkpt>
      <trkpt lat="44.44375" lon="6.70108">
        <ele>2335.66</ele>
        <time>2011-03-22T11:56:40Z</time>
      </trkpt>
      <trkpt lat="44.44375" lon="6.70109">
        <ele>2335.66</ele>
        <time>2011-03-22T11:57:14Z</time>
      </trkpt>
      <trkpt lat="44.44375" lon="6.70109">
        <ele>2335.18</ele>
        <time>2011-03-22T11:57:39Z</time>
      </trkpt>
      <trkpt lat="44.44374" lon="6.7011">
        <ele>2335.18</ele>
        <time>2011-03-22T11:58:06Z</time>
      </trkpt>
      <trkpt lat="44.44373" lon="6.70137">
        <ele>2332.78</ele>
        <time>2011-03-22T11:58:12Z</time>
      </trkpt>
      <trkpt lat="44.44371" lon="6.70151">
        <ele>2327.97</ele>
        <time>2011-03-22T11:58:14Z</time>
      </trkpt>
      <trkpt lat="44.44377" lon="6.70165">
        <ele>2326.05</ele>
        <time>2011-03-22T11:58:17Z</time>
      </trkpt>
      <trkpt lat="44.44382" lon="6.7018">
        <ele>2322.2</ele>
        <time>2011-03-22T11:58:19Z</time>
      </trkpt>
      <trkpt lat="44.44385" lon="6.70188">
        <ele>2323.16</ele>
        <time>2011-03-22T11:58:20Z</time>
      </trkpt>
      <trkpt lat="44.4439" lon="6.70202">
        <ele>2317.88</ele>
        <time>2011-03-22T11:58:22Z</time>
      </trkpt>
      <trkpt lat="44.44395" lon="6.70206">
        <ele>2316.91</ele>
        <time>2011-03-22T11:58:23Z</time>
      </trkpt>
      <trkpt lat="44.44417" lon="6.7023">
        <ele>2314.51</ele>
        <time>2011-03-22T11:58:29Z</time>
      </trkpt>
      <trkpt lat="44.44442" lon="6.70256">
        <ele>2311.15</ele>
        <time>2011-03-22T11:58:36Z</time>
      </trkpt>
      <trkpt lat="44.44454" lon="6.70266">
        <ele>2309.7</ele>
        <time>2011-03-22T11:58:41Z</time>
      </trkpt>
      <trkpt lat="44.4445" lon="6.70284">
        <ele>2305.86</ele>
        <time>2011-03-22T11:58:45Z</time>
      </trkpt>
      <trkpt lat="44.44452" lon="6.70304">
        <ele>2301.05</ele>
        <time>2011-03-22T11:58:48Z</time>
      </trkpt>
      <trkpt lat="44.44454" lon="6.70328">
        <ele>2297.69</ele>
        <time>2011-03-22T11:58:51Z</time>
      </trkpt>
      <trkpt lat="44.44453" lon="6.70337">
        <ele>2294.32</ele>
        <time>2011-03-22T11:58:52Z</time>
      </trkpt>
      <trkpt lat="44.44451" lon="6.70366">
        <ele>2290</ele>
        <time>2011-03-22T11:58:55Z</time>
      </trkpt>
      <trkpt lat="44.44451" lon="6.70386">
        <ele>2289.52</ele>
        <time>2011-03-22T11:58:57Z</time>
      </trkpt>
      <trkpt lat="44.44451" lon="6.70397">
        <ele>2285.19</ele>
        <time>2011-03-22T11:58:58Z</time>
      </trkpt>
      <trkpt lat="44.44452" lon="6.70405">
        <ele>2285.19</ele>
        <time>2011-03-22T11:58:59Z</time>
      </trkpt>
      <trkpt lat="44.44453" lon="6.70423">
        <ele>2282.79</ele>
        <time>2011-03-22T11:59:01Z</time>
      </trkpt>
      <trkpt lat="44.44456" lon="6.70443">
        <ele>2279.42</ele>
        <time>2011-03-22T11:59:04Z</time>
      </trkpt>
      <trkpt lat="44.44453" lon="6.70474">
        <ele>2275.58</ele>
        <time>2011-03-22T11:59:09Z</time>
      </trkpt>
      <trkpt lat="44.44457" lon="6.70504">
        <ele>2270.77</ele>
        <time>2011-03-22T11:59:13Z</time>
      </trkpt>
      <trkpt lat="44.44466" lon="6.70513">
        <ele>2269.81</ele>
        <time>2011-03-22T11:59:15Z</time>
      </trkpt>
      <trkpt lat="44.44495" lon="6.70531">
        <ele>2265</ele>
        <time>2011-03-22T11:59:20Z</time>
      </trkpt>
      <trkpt lat="44.44526" lon="6.70567">
        <ele>2260.68</ele>
        <time>2011-03-22T11:59:28Z</time>
      </trkpt>
      <trkpt lat="44.4454" lon="6.70593">
        <ele>2258.75</ele>
        <time>2011-03-22T11:59:33Z</time>
      </trkpt>
      <trkpt lat="44.44543" lon="6.70599">
        <ele>2257.79</ele>
        <time>2011-03-22T11:59:34Z</time>
      </trkpt>
      <trkpt lat="44.44556" lon="6.70625">
        <ele>2256.35</ele>
        <time>2011-03-22T11:59:40Z</time>
      </trkpt>
      <trkpt lat="44.44567" lon="6.70651">
        <ele>2253.47</ele>
        <time>2011-03-22T11:59:45Z</time>
      </trkpt>
      <trkpt lat="44.44572" lon="6.70663">
        <ele>2252.51</ele>
        <time>2011-03-22T11:59:47Z</time>
      </trkpt>
      <trkpt lat="44.44574" lon="6.70687">
        <ele>2245.78</ele>
        <time>2011-03-22T11:59:50Z</time>
      </trkpt>
      <trkpt lat="44.44579" lon="6.70708">
        <ele>2242.41</ele>
        <time>2011-03-22T11:59:52Z</time>
      </trkpt>
      <trkpt lat="44.44596" lon="6.70751">
        <ele>2240.01</ele>
        <time>2011-03-22T11:59:57Z</time>
      </trkpt>
      <trkpt lat="44.44614" lon="6.70786">
        <ele>2237.13</ele>
        <time>2011-03-22T12:00:02Z</time>
      </trkpt>
      <trkpt lat="44.44624" lon="6.70802">
        <ele>2237.13</ele>
        <time>2011-03-22T12:00:05Z</time>
      </trkpt>
      <trkpt lat="44.44629" lon="6.7082">
        <ele>2234.72</ele>
        <time>2011-03-22T12:00:08Z</time>
      </trkpt>
      <trkpt lat="44.4463" lon="6.70837">
        <ele>2229.92</ele>
        <time>2011-03-22T12:00:10Z</time>
      </trkpt>
      <trkpt lat="44.44638" lon="6.70848">
        <ele>2229.43</ele>
        <time>2011-03-22T12:00:12Z</time>
      </trkpt>
      <trkpt lat="44.44649" lon="6.70865">
        <ele>2227.51</ele>
        <time>2011-03-22T12:00:15Z</time>
      </trkpt>
      <trkpt lat="44.44652" lon="6.70872">
        <ele>2223.19</ele>
        <time>2011-03-22T12:00:16Z</time>
      </trkpt>
      <trkpt lat="44.44662" lon="6.70881">
        <ele>2221.26</ele>
        <time>2011-03-22T12:00:18Z</time>
      </trkpt>
      <trkpt lat="44.44666" lon="6.70887">
        <ele>2217.9</ele>
        <time>2011-03-22T12:00:19Z</time>
      </trkpt>
      <trkpt lat="44.44689" lon="6.70922">
        <ele>2212.13</ele>
        <time>2011-03-22T12:00:24Z</time>
      </trkpt>
      <trkpt lat="44.44692" lon="6.70929">
        <ele>2212.13</ele>
        <time>2011-03-22T12:00:25Z</time>
      </trkpt>
      <trkpt lat="44.44699" lon="6.70945">
        <ele>2207.81</ele>
        <time>2011-03-22T12:00:27Z</time>
      </trkpt>
      <trkpt lat="44.44707" lon="6.7096">
        <ele>2203.48</ele>
        <time>2011-03-22T12:00:29Z</time>
      </trkpt>
      <trkpt lat="44.44711" lon="6.70967">
        <ele>2204.44</ele>
        <time>2011-03-22T12:00:30Z</time>
      </trkpt>
      <trkpt lat="44.44715" lon="6.70975">
        <ele>2203</ele>
        <time>2011-03-22T12:00:31Z</time>
      </trkpt>
      <trkpt lat="44.44731" lon="6.71006">
        <ele>2196.27</ele>
        <time>2011-03-22T12:00:35Z</time>
      </trkpt>
      <trkpt lat="44.44738" lon="6.71023">
        <ele>2192.9</ele>
        <time>2011-03-22T12:00:37Z</time>
      </trkpt>
      <trkpt lat="44.44746" lon="6.71039">
        <ele>2189.54</ele>
        <time>2011-03-22T12:00:39Z</time>
      </trkpt>
      <trkpt lat="44.44754" lon="6.71056">
        <ele>2185.69</ele>
        <time>2011-03-22T12:00:41Z</time>
      </trkpt>
      <trkpt lat="44.44759" lon="6.71064">
        <ele>2185.69</ele>
        <time>2011-03-22T12:00:42Z</time>
      </trkpt>
      <trkpt lat="44.44769" lon="6.71081">
        <ele>2182.33</ele>
        <time>2011-03-22T12:00:44Z</time>
      </trkpt>
      <trkpt lat="44.44786" lon="6.7111">
        <ele>2178</ele>
        <time>2011-03-22T12:00:48Z</time>
      </trkpt>
      <trkpt lat="44.44788" lon="6.71119">
        <ele>2178</ele>
        <time>2011-03-22T12:00:49Z</time>
      </trkpt>
      <trkpt lat="44.44793" lon="6.71138">
        <ele>2174.16</ele>
        <time>2011-03-22T12:00:51Z</time>
      </trkpt>
      <trkpt lat="44.44803" lon="6.71166">
        <ele>2167.91</ele>
        <time>2011-03-22T12:00:54Z</time>
      </trkpt>
      <trkpt lat="44.4481" lon="6.71184">
        <ele>2164.06</ele>
        <time>2011-03-22T12:00:56Z</time>
      </trkpt>
      <trkpt lat="44.44819" lon="6.71201">
        <ele>2159.26</ele>
        <time>2011-03-22T12:00:58Z</time>
      </trkpt>
      <trkpt lat="44.44824" lon="6.71207">
        <ele>2160.7</ele>
        <time>2011-03-22T12:00:59Z</time>
      </trkpt>
      <trkpt lat="44.44834" lon="6.71221">
        <ele>2155.89</ele>
        <time>2011-03-22T12:01:01Z</time>
      </trkpt>
      <trkpt lat="44.44846" lon="6.71234">
        <ele>2154.45</ele>
        <time>2011-03-22T12:01:03Z</time>
      </trkpt>
      <trkpt lat="44.44856" lon="6.71252">
        <ele>2152.05</ele>
        <time>2011-03-22T12:01:05Z</time>
      </trkpt>
      <trkpt lat="44.44875" lon="6.71275">
        <ele>2148.2</ele>
        <time>2011-03-22T12:01:08Z</time>
      </trkpt>
      <trkpt lat="44.44895" lon="6.71297">
        <ele>2144.36</ele>
        <time>2011-03-22T12:01:11Z</time>
      </trkpt>
      <trkpt lat="44.44907" lon="6.71312">
        <ele>2141.95</ele>
        <time>2011-03-22T12:01:13Z</time>
      </trkpt>
      <trkpt lat="44.4492" lon="6.71319">
        <ele>2139.55</ele>
        <time>2011-03-22T12:01:19Z</time>
      </trkpt>
      <trkpt lat="44.4492" lon="6.71319">
        <ele>2139.55</ele>
        <time>2011-03-22T12:01:40Z</time>
      </trkpt>
      <trkpt lat="44.4492" lon="6.71319">
        <ele>2139.07</ele>
        <time>2011-03-22T12:02:17Z</time>
      </trkpt>
      <trkpt lat="44.4492" lon="6.71319">
        <ele>2138.59</ele>
        <time>2011-03-22T12:02:45Z</time>
      </trkpt>
      <trkpt lat="44.44922" lon="6.71322">
        <ele>2138.11</ele>
        <time>2011-03-22T12:02:49Z</time>
      </trkpt>
      <trkpt lat="44.44936" lon="6.71337">
        <ele>2135.71</ele>
        <time>2011-03-22T12:02:55Z</time>
      </trkpt>
      <trkpt lat="44.44944" lon="6.7134">
        <ele>2132.82</ele>
        <time>2011-03-22T12:02:57Z</time>
      </trkpt>
      <trkpt lat="44.44956" lon="6.71353">
        <ele>2129.46</ele>
        <time>2011-03-22T12:03:00Z</time>
      </trkpt>
      <trkpt lat="44.44968" lon="6.71361">
        <ele>2126.57</ele>
        <time>2011-03-22T12:03:03Z</time>
      </trkpt>
      <trkpt lat="44.44973" lon="6.7137">
        <ele>2123.69</ele>
        <time>2011-03-22T12:03:05Z</time>
      </trkpt>
      <trkpt lat="44.44981" lon="6.71385">
        <ele>2119.36</ele>
        <time>2011-03-22T12:03:08Z</time>
      </trkpt>
      <trkpt lat="44.44984" lon="6.71395">
        <ele>2115.04</ele>
        <time>2011-03-22T12:03:10Z</time>
      </trkpt>
      <trkpt lat="44.4499" lon="6.71402">
        <ele>2111.67</ele>
        <time>2011-03-22T12:03:12Z</time>
      </trkpt>
      <trkpt lat="44.45" lon="6.71414">
        <ele>2107.35</ele>
        <time>2011-03-22T12:03:15Z</time>
      </trkpt>
      <trkpt lat="44.45008" lon="6.7143">
        <ele>2102.54</ele>
        <time>2011-03-22T12:03:18Z</time>
      </trkpt>
      <trkpt lat="44.45019" lon="6.71445">
        <ele>2097.73</ele>
        <time>2011-03-22T12:03:21Z</time>
      </trkpt>
      <trkpt lat="44.45023" lon="6.71458">
        <ele>2093.89</ele>
        <time>2011-03-22T12:03:23Z</time>
      </trkpt>
      <trkpt lat="44.45026" lon="6.71464">
        <ele>2093.89</ele>
        <time>2011-03-22T12:03:24Z</time>
      </trkpt>
      <trkpt lat="44.4503" lon="6.71476">
        <ele>2089.56</ele>
        <time>2011-03-22T12:03:26Z</time>
      </trkpt>
      <trkpt lat="44.45034" lon="6.71482">
        <ele>2088.12</ele>
        <time>2011-03-22T12:03:27Z</time>
      </trkpt>
      <trkpt lat="44.45049" lon="6.71501">
        <ele>2086.68</ele>
        <time>2011-03-22T12:03:30Z</time>
      </trkpt>
      <trkpt lat="44.45053" lon="6.71508">
        <ele>2086.68</ele>
        <time>2011-03-22T12:03:31Z</time>
      </trkpt>
      <trkpt lat="44.45057" lon="6.71516">
        <ele>2085.24</ele>
        <time>2011-03-22T12:03:32Z</time>
      </trkpt>
      <trkpt lat="44.45064" lon="6.71531">
        <ele>2084.76</ele>
        <time>2011-03-22T12:03:34Z</time>
      </trkpt>
      <trkpt lat="44.45067" lon="6.71537">
        <ele>2084.76</ele>
        <time>2011-03-22T12:03:35Z</time>
      </trkpt>
      <trkpt lat="44.45071" lon="6.71543">
        <ele>2083.31</ele>
        <time>2011-03-22T12:03:36Z</time>
      </trkpt>
      <trkpt lat="44.45075" lon="6.71547">
        <ele>2080.91</ele>
        <time>2011-03-22T12:03:37Z</time>
      </trkpt>
      <trkpt lat="44.45079" lon="6.71551">
        <ele>2079.95</ele>
        <time>2011-03-22T12:03:38Z</time>
      </trkpt>
      <trkpt lat="44.45083" lon="6.71554">
        <ele>2079.95</ele>
        <time>2011-03-22T12:03:39Z</time>
      </trkpt>
      <trkpt lat="44.45097" lon="6.71567">
        <ele>2079.47</ele>
        <time>2011-03-22T12:03:42Z</time>
      </trkpt>
      <trkpt lat="44.45102" lon="6.71573">
        <ele>2076.1</ele>
        <time>2011-03-22T12:03:43Z</time>
      </trkpt>
      <trkpt lat="44.45108" lon="6.71581">
        <ele>2076.1</ele>
        <time>2011-03-22T12:03:44Z</time>
      </trkpt>
      <trkpt lat="44.45113" lon="6.71591">
        <ele>2076.59</ele>
        <time>2011-03-22T12:03:45Z</time>
      </trkpt>
      <trkpt lat="44.45118" lon="6.71601">
        <ele>2075.62</ele>
        <time>2011-03-22T12:03:46Z</time>
      </trkpt>
      <trkpt lat="44.45121" lon="6.71612">
        <ele>2074.66</ele>
        <time>2011-03-22T12:03:47Z</time>
      </trkpt>
      <trkpt lat="44.45134" lon="6.71649">
        <ele>2071.3</ele>
        <time>2011-03-22T12:03:51Z</time>
      </trkpt>
      <trkpt lat="44.45148" lon="6.71692">
        <ele>2067.93</ele>
        <time>2011-03-22T12:03:56Z</time>
      </trkpt>
      <trkpt lat="44.45151" lon="6.717">
        <ele>2066.97</ele>
        <time>2011-03-22T12:03:57Z</time>
      </trkpt>
      <trkpt lat="44.45155" lon="6.71706">
        <ele>2066.49</ele>
        <time>2011-03-22T12:03:58Z</time>
      </trkpt>
      <trkpt lat="44.45167" lon="6.71728">
        <ele>2067.45</ele>
        <time>2011-03-22T12:04:02Z</time>
      </trkpt>
      <trkpt lat="44.45177" lon="6.71753">
        <ele>2065.05</ele>
        <time>2011-03-22T12:04:07Z</time>
      </trkpt>
      <trkpt lat="44.45187" lon="6.71769">
        <ele>2064.09</ele>
        <time>2011-03-22T12:04:13Z</time>
      </trkpt>
      <trkpt lat="44.45189" lon="6.7177">
        <ele>2064.09</ele>
        <time>2011-03-22T12:04:14Z</time>
      </trkpt>
      <trkpt lat="44.4519" lon="6.71771">
        <ele>2064.09</ele>
        <time>2011-03-22T12:04:15Z</time>
      </trkpt>
      <trkpt lat="44.45207" lon="6.71779">
        <ele>2063.61</ele>
        <time>2011-03-22T12:04:27Z</time>
      </trkpt>
      <trkpt lat="44.45229" lon="6.71784">
        <ele>2060.24</ele>
        <time>2011-03-22T12:04:32Z</time>
      </trkpt>
      <trkpt lat="44.45234" lon="6.71786">
        <ele>2060.72</ele>
        <time>2011-03-22T12:04:33Z</time>
      </trkpt>
      <trkpt lat="44.45247" lon="6.71792">
        <ele>2058.8</ele>
        <time>2011-03-22T12:04:37Z</time>
      </trkpt>
      <trkpt lat="44.45248" lon="6.71792">
        <ele>2057.84</ele>
        <time>2011-03-22T12:04:52Z</time>
      </trkpt>
      <trkpt lat="44.45249" lon="6.71793">
        <ele>2058.32</ele>
        <time>2011-03-22T12:04:53Z</time>
      </trkpt>
      <trkpt lat="44.45254" lon="6.71795">
        <ele>2056.88</ele>
        <time>2011-03-22T12:04:56Z</time>
      </trkpt>
      <trkpt lat="44.45255" lon="6.71795">
        <ele>2056.4</ele>
        <time>2011-03-22T12:04:57Z</time>
      </trkpt>
      <trkpt lat="44.4526" lon="6.71796">
        <ele>2055.44</ele>
        <time>2011-03-22T12:05:06Z</time>
      </trkpt>
      <trkpt lat="44.45261" lon="6.71796">
        <ele>2055.44</ele>
        <time>2011-03-22T12:05:07Z</time>
      </trkpt>
      <trkpt lat="44.45263" lon="6.71797">
        <ele>2054.96</ele>
        <time>2011-03-22T12:05:09Z</time>
      </trkpt>
      <trkpt lat="44.45266" lon="6.71797">
        <ele>2055.44</ele>
        <time>2011-03-22T12:05:19Z</time>
      </trkpt>
      <trkpt lat="44.45271" lon="6.71794">
        <ele>2055.92</ele>
        <time>2011-03-22T12:05:31Z</time>
      </trkpt>
      <trkpt lat="44.45274" lon="6.71792">
        <ele>2056.88</ele>
        <time>2011-03-22T12:05:42Z</time>
      </trkpt>
      <trkpt lat="44.45275" lon="6.71789">
        <ele>2057.36</ele>
        <time>2011-03-22T12:05:54Z</time>
      </trkpt>
      <trkpt lat="44.45279" lon="6.71782">
        <ele>2058.8</ele>
        <time>2011-03-22T12:06:03Z</time>
      </trkpt>
      <trkpt lat="44.4528" lon="6.71778">
        <ele>2059.28</ele>
        <time>2011-03-22T12:06:14Z</time>
      </trkpt>
      <trkpt lat="44.45284" lon="6.71772">
        <ele>2059.28</ele>
        <time>2011-03-22T12:06:25Z</time>
      </trkpt>
      <trkpt lat="44.45285" lon="6.71772">
        <ele>2059.28</ele>
        <time>2011-03-22T12:06:26Z</time>
      </trkpt>
      <trkpt lat="44.45286" lon="6.7177">
        <ele>2059.28</ele>
        <time>2011-03-22T12:06:27Z</time>
      </trkpt>
      <trkpt lat="44.45288" lon="6.71769">
        <ele>2059.28</ele>
        <time>2011-03-22T12:06:28Z</time>
      </trkpt>
      <trkpt lat="44.45295" lon="6.71761">
        <ele>2058.8</ele>
        <time>2011-03-22T12:06:40Z</time>
      </trkpt>
      <trkpt lat="44.45296" lon="6.71759">
        <ele>2058.8</ele>
        <time>2011-03-22T12:06:43Z</time>
      </trkpt>
      <trkpt lat="44.45297" lon="6.71757">
        <ele>2058.8</ele>
        <time>2011-03-22T12:06:45Z</time>
      </trkpt>
      <trkpt lat="44.453" lon="6.71748">
        <ele>2058.8</ele>
        <time>2011-03-22T12:06:55Z</time>
      </trkpt>
      <trkpt lat="44.45301" lon="6.71745">
        <ele>2057.84</ele>
        <time>2011-03-22T12:06:57Z</time>
      </trkpt>
      <trkpt lat="44.45308" lon="6.7173">
        <ele>2057.84</ele>
        <time>2011-03-22T12:07:03Z</time>
      </trkpt>
      <trkpt lat="44.45311" lon="6.71725">
        <ele>2056.88</ele>
        <time>2011-03-22T12:07:05Z</time>
      </trkpt>
      <trkpt lat="44.45321" lon="6.71712">
        <ele>2056.88</ele>
        <time>2011-03-22T12:07:18Z</time>
      </trkpt>
      <trkpt lat="44.45341" lon="6.71695">
        <ele>2054.96</ele>
        <time>2011-03-22T12:07:31Z</time>
      </trkpt>
      <trkpt lat="44.45342" lon="6.71696">
        <ele>2053.99</ele>
        <time>2011-03-22T12:07:34Z</time>
      </trkpt>
      <trkpt lat="44.45349" lon="6.71692">
        <ele>2053.99</ele>
        <time>2011-03-22T12:07:38Z</time>
      </trkpt>
      <trkpt lat="44.45365" lon="6.71682">
        <ele>2051.11</ele>
        <time>2011-03-22T12:07:45Z</time>
      </trkpt>
      <trkpt lat="44.45385" lon="6.71667">
        <ele>2051.11</ele>
        <time>2011-03-22T12:07:55Z</time>
      </trkpt>
      <trkpt lat="44.45386" lon="6.71662">
        <ele>2051.59</ele>
        <time>2011-03-22T12:08:10Z</time>
      </trkpt>
      <trkpt lat="44.45387" lon="6.71661">
        <ele>2051.59</ele>
        <time>2011-03-22T12:08:12Z</time>
      </trkpt>
      <trkpt lat="44.45393" lon="6.71661">
        <ele>2050.15</ele>
        <time>2011-03-22T12:08:15Z</time>
      </trkpt>
      <trkpt lat="44.45403" lon="6.71658">
        <ele>2047.26</ele>
        <time>2011-03-22T12:08:20Z</time>
      </trkpt>
      <trkpt lat="44.45408" lon="6.71647">
        <ele>2047.26</ele>
        <time>2011-03-22T12:08:29Z</time>
      </trkpt>
      <trkpt lat="44.45409" lon="6.71645">
        <ele>2047.75</ele>
        <time>2011-03-22T12:08:31Z</time>
      </trkpt>
      <trkpt lat="44.45424" lon="6.71632">
        <ele>2047.75</ele>
        <time>2011-03-22T12:08:43Z</time>
      </trkpt>
      <trkpt lat="44.45434" lon="6.71619">
        <ele>2047.26</ele>
        <time>2011-03-22T12:08:52Z</time>
      </trkpt>
      <trkpt lat="44.45454" lon="6.71604">
        <ele>2044.38</ele>
        <time>2011-03-22T12:09:00Z</time>
      </trkpt>
      <trkpt lat="44.45473" lon="6.71594">
        <ele>2041.02</ele>
        <time>2011-03-22T12:09:08Z</time>
      </trkpt>
      <trkpt lat="44.45475" lon="6.71592">
        <ele>2041.02</ele>
        <time>2011-03-22T12:09:09Z</time>
      </trkpt>
      <trkpt lat="44.45497" lon="6.71571">
        <ele>2041.5</ele>
        <time>2011-03-22T12:09:19Z</time>
      </trkpt>
      <trkpt lat="44.45503" lon="6.71568">
        <ele>2041.5</ele>
        <time>2011-03-22T12:09:27Z</time>
      </trkpt>
      <trkpt lat="44.4551" lon="6.71559">
        <ele>2036.21</ele>
        <time>2011-03-22T12:09:31Z</time>
      </trkpt>
      <trkpt lat="44.45521" lon="6.71547">
        <ele>2038.13</ele>
        <time>2011-03-22T12:09:34Z</time>
      </trkpt>
      <trkpt lat="44.45549" lon="6.71538">
        <ele>2037.17</ele>
        <time>2011-03-22T12:09:44Z</time>
      </trkpt>
      <trkpt lat="44.45553" lon="6.71537">
        <ele>2036.69</ele>
        <time>2011-03-22T12:09:55Z</time>
      </trkpt>
      <trkpt lat="44.45561" lon="6.71532">
        <ele>2033.81</ele>
        <time>2011-03-22T12:10:02Z</time>
      </trkpt>
      <trkpt lat="44.45572" lon="6.71538">
        <ele>2029.96</ele>
        <time>2011-03-22T12:10:06Z</time>
      </trkpt>
      <trkpt lat="44.45577" lon="6.71544">
        <ele>2028.52</ele>
        <time>2011-03-22T12:10:08Z</time>
      </trkpt>
      <trkpt lat="44.45598" lon="6.71572">
        <ele>2027.56</ele>
        <time>2011-03-22T12:10:18Z</time>
      </trkpt>
      <trkpt lat="44.45596" lon="6.71586">
        <ele>2026.6</ele>
        <time>2011-03-22T12:10:31Z</time>
      </trkpt>
      <trkpt lat="44.45597" lon="6.71587">
        <ele>2026.6</ele>
        <time>2011-03-22T12:10:45Z</time>
      </trkpt>
      <trkpt lat="44.45597" lon="6.71588">
        <ele>2027.08</ele>
        <time>2011-03-22T12:10:47Z</time>
      </trkpt>
      <trkpt lat="44.45596" lon="6.7159">
        <ele>2025.15</ele>
        <time>2011-03-22T12:11:03Z</time>
      </trkpt>
      <trkpt lat="44.45596" lon="6.7159">
        <ele>2026.6</ele>
        <time>2011-03-22T12:11:26Z</time>
      </trkpt>
      <trkpt lat="44.45595" lon="6.71594">
        <ele>2026.12</ele>
        <time>2011-03-22T12:11:41Z</time>
      </trkpt>
      <trkpt lat="44.45596" lon="6.71608">
        <ele>2025.64</ele>
        <time>2011-03-22T12:11:56Z</time>
      </trkpt>
      <trkpt lat="44.45596" lon="6.7161">
        <ele>2025.64</ele>
        <time>2011-03-22T12:11:57Z</time>
      </trkpt>
      <trkpt lat="44.45592" lon="6.71653">
        <ele>2023.23</ele>
        <time>2011-03-22T12:12:12Z</time>
      </trkpt>
      <trkpt lat="44.45592" lon="6.71653">
        <ele>2023.71</ele>
        <time>2011-03-22T12:12:39Z</time>
      </trkpt>
      <trkpt lat="44.45592" lon="6.71653">
        <ele>2024.67</ele>
        <time>2011-03-22T12:12:53Z</time>
      </trkpt>
      <trkpt lat="44.45593" lon="6.71657">
        <ele>2025.64</ele>
        <time>2011-03-22T12:13:06Z</time>
      </trkpt>
      <trkpt lat="44.45598" lon="6.71658">
        <ele>2026.6</ele>
        <time>2011-03-22T12:13:16Z</time>
      </trkpt>
      <trkpt lat="44.45604" lon="6.71663">
        <ele>2027.56</ele>
        <time>2011-03-22T12:13:28Z</time>
      </trkpt>
      <trkpt lat="44.4561" lon="6.71668">
        <ele>2028.04</ele>
        <time>2011-03-22T12:13:39Z</time>
      </trkpt>
      <trkpt lat="44.45612" lon="6.71671">
        <ele>2029</ele>
        <time>2011-03-22T12:13:49Z</time>
      </trkpt>
      <trkpt lat="44.45613" lon="6.71671">
        <ele>2029</ele>
        <time>2011-03-22T12:13:50Z</time>
      </trkpt>
      <trkpt lat="44.45617" lon="6.71678">
        <ele>2029.96</ele>
        <time>2011-03-22T12:14:03Z</time>
      </trkpt>
      <trkpt lat="44.45624" lon="6.71685">
        <ele>2030.44</ele>
        <time>2011-03-22T12:14:16Z</time>
      </trkpt>
      <trkpt lat="44.45633" lon="6.71695">
        <ele>2030.44</ele>
        <time>2011-03-22T12:14:30Z</time>
      </trkpt>
      <trkpt lat="44.45634" lon="6.71696">
        <ele>2030.92</ele>
        <time>2011-03-22T12:14:31Z</time>
      </trkpt>
      <trkpt lat="44.4564" lon="6.71706">
        <ele>2030.44</ele>
        <time>2011-03-22T12:14:43Z</time>
      </trkpt>
      <trkpt lat="44.45646" lon="6.71711">
        <ele>2030.92</ele>
        <time>2011-03-22T12:14:56Z</time>
      </trkpt>
      <trkpt lat="44.45649" lon="6.71717">
        <ele>2030.92</ele>
        <time>2011-03-22T12:15:09Z</time>
      </trkpt>
      <trkpt lat="44.45654" lon="6.71723">
        <ele>2031.4</ele>
        <time>2011-03-22T12:15:22Z</time>
      </trkpt>
      <trkpt lat="44.45654" lon="6.71723">
        <ele>2031.88</ele>
        <time>2011-03-22T12:15:40Z</time>
      </trkpt>
      <trkpt lat="44.45654" lon="6.71723">
        <ele>2031.4</ele>
        <time>2011-03-22T12:16:05Z</time>
      </trkpt>
      <trkpt lat="44.45654" lon="6.71723">
        <ele>2031.4</ele>
        <time>2011-03-22T12:16:31Z</time>
      </trkpt>
      <trkpt lat="44.45654" lon="6.71723">
        <ele>2031.4</ele>
        <time>2011-03-22T12:16:55Z</time>
      </trkpt>
      <trkpt lat="44.45656" lon="6.71725">
        <ele>2031.4</ele>
        <time>2011-03-22T12:17:04Z</time>
      </trkpt>
      <trkpt lat="44.45658" lon="6.71728">
        <ele>2030.44</ele>
        <time>2011-03-22T12:17:06Z</time>
      </trkpt>
      <trkpt lat="44.45676" lon="6.71757">
        <ele>2029.48</ele>
        <time>2011-03-22T12:17:20Z</time>
      </trkpt>
      <trkpt lat="44.45694" lon="6.71773">
        <ele>2027.08</ele>
        <time>2011-03-22T12:17:32Z</time>
      </trkpt>
      <trkpt lat="44.45697" lon="6.71788">
        <ele>2021.31</ele>
        <time>2011-03-22T12:17:35Z</time>
      </trkpt>
      <trkpt lat="44.45696" lon="6.71817">
        <ele>2016.5</ele>
        <time>2011-03-22T12:17:38Z</time>
      </trkpt>
      <trkpt lat="44.45697" lon="6.71836">
        <ele>2012.18</ele>
        <time>2011-03-22T12:17:40Z</time>
      </trkpt>
      <trkpt lat="44.457" lon="6.71854">
        <ele>2009.29</ele>
        <time>2011-03-22T12:17:42Z</time>
      </trkpt>
      <trkpt lat="44.45704" lon="6.7186">
        <ele>2007.37</ele>
        <time>2011-03-22T12:17:43Z</time>
      </trkpt>
      <trkpt lat="44.4571" lon="6.71866">
        <ele>2005.93</ele>
        <time>2011-03-22T12:17:44Z</time>
      </trkpt>
      <trkpt lat="44.45715" lon="6.71873">
        <ele>2003.04</ele>
        <time>2011-03-22T12:17:45Z</time>
      </trkpt>
      <trkpt lat="44.45719" lon="6.71879">
        <ele>1999.2</ele>
        <time>2011-03-22T12:17:46Z</time>
      </trkpt>
      <trkpt lat="44.45723" lon="6.71884">
        <ele>1999.68</ele>
        <time>2011-03-22T12:17:47Z</time>
      </trkpt>
      <trkpt lat="44.45727" lon="6.71889">
        <ele>1998.24</ele>
        <time>2011-03-22T12:17:48Z</time>
      </trkpt>
      <trkpt lat="44.45731" lon="6.71893">
        <ele>1995.35</ele>
        <time>2011-03-22T12:17:49Z</time>
      </trkpt>
      <trkpt lat="44.45737" lon="6.71896">
        <ele>1993.91</ele>
        <time>2011-03-22T12:17:50Z</time>
      </trkpt>
      <trkpt lat="44.45748" lon="6.71898">
        <ele>1992.95</ele>
        <time>2011-03-22T12:17:52Z</time>
      </trkpt>
      <trkpt lat="44.45754" lon="6.71895">
        <ele>1991.51</ele>
        <time>2011-03-22T12:17:53Z</time>
      </trkpt>
      <trkpt lat="44.4576" lon="6.71889">
        <ele>1991.03</ele>
        <time>2011-03-22T12:17:54Z</time>
      </trkpt>
      <trkpt lat="44.45765" lon="6.71882">
        <ele>1989.1</ele>
        <time>2011-03-22T12:17:55Z</time>
      </trkpt>
      <trkpt lat="44.45769" lon="6.71871">
        <ele>1987.18</ele>
        <time>2011-03-22T12:17:56Z</time>
      </trkpt>
      <trkpt lat="44.45774" lon="6.71862">
        <ele>1988.62</ele>
        <time>2011-03-22T12:17:57Z</time>
      </trkpt>
      <trkpt lat="44.45779" lon="6.71855">
        <ele>1989.1</ele>
        <time>2011-03-22T12:17:58Z</time>
      </trkpt>
      <trkpt lat="44.45785" lon="6.7185">
        <ele>1989.1</ele>
        <time>2011-03-22T12:17:59Z</time>
      </trkpt>
      <trkpt lat="44.45791" lon="6.71847">
        <ele>1988.14</ele>
        <time>2011-03-22T12:18:00Z</time>
      </trkpt>
      <trkpt lat="44.45796" lon="6.71845">
        <ele>1987.18</ele>
        <time>2011-03-22T12:18:01Z</time>
      </trkpt>
      <trkpt lat="44.458" lon="6.71843">
        <ele>1986.7</ele>
        <time>2011-03-22T12:18:02Z</time>
      </trkpt>
      <trkpt lat="44.45804" lon="6.71842">
        <ele>1987.18</ele>
        <time>2011-03-22T12:18:03Z</time>
      </trkpt>
      <trkpt lat="44.45808" lon="6.7184">
        <ele>1987.18</ele>
        <time>2011-03-22T12:18:04Z</time>
      </trkpt>
      <trkpt lat="44.4582" lon="6.71835">
        <ele>1986.22</ele>
        <time>2011-03-22T12:18:07Z</time>
      </trkpt>
      <trkpt lat="44.45844" lon="6.71832">
        <ele>1983.34</ele>
        <time>2011-03-22T12:18:12Z</time>
      </trkpt>
      <trkpt lat="44.45848" lon="6.71834">
        <ele>1981.41</ele>
        <time>2011-03-22T12:18:13Z</time>
      </trkpt>
      <trkpt lat="44.45853" lon="6.71845">
        <ele>1977.57</ele>
        <time>2011-03-22T12:18:15Z</time>
      </trkpt>
      <trkpt lat="44.45858" lon="6.71852">
        <ele>1976.61</ele>
        <time>2011-03-22T12:18:16Z</time>
      </trkpt>
      <trkpt lat="44.45863" lon="6.71859">
        <ele>1975.17</ele>
        <time>2011-03-22T12:18:17Z</time>
      </trkpt>
      <trkpt lat="44.45869" lon="6.71868">
        <ele>1972.28</ele>
        <time>2011-03-22T12:18:18Z</time>
      </trkpt>
      <trkpt lat="44.45876" lon="6.71885">
        <ele>1970.36</ele>
        <time>2011-03-22T12:18:20Z</time>
      </trkpt>
      <trkpt lat="44.45879" lon="6.71894">
        <ele>1966.99</ele>
        <time>2011-03-22T12:18:21Z</time>
      </trkpt>
      <trkpt lat="44.45883" lon="6.71901">
        <ele>1967.48</ele>
        <time>2011-03-22T12:18:22Z</time>
      </trkpt>
      <trkpt lat="44.45889" lon="6.71904">
        <ele>1966.51</ele>
        <time>2011-03-22T12:18:23Z</time>
      </trkpt>
      <trkpt lat="44.45895" lon="6.71906">
        <ele>1966.03</ele>
        <time>2011-03-22T12:18:24Z</time>
      </trkpt>
      <trkpt lat="44.45902" lon="6.71906">
        <ele>1965.55</ele>
        <time>2011-03-22T12:18:25Z</time>
      </trkpt>
      <trkpt lat="44.45908" lon="6.71905">
        <ele>1964.59</ele>
        <time>2011-03-22T12:18:26Z</time>
      </trkpt>
      <trkpt lat="44.45939" lon="6.71904">
        <ele>1962.67</ele>
        <time>2011-03-22T12:18:30Z</time>
      </trkpt>
      <trkpt lat="44.45971" lon="6.71904">
        <ele>1958.82</ele>
        <time>2011-03-22T12:18:34Z</time>
      </trkpt>
      <trkpt lat="44.45992" lon="6.71906">
        <ele>1955.94</ele>
        <time>2011-03-22T12:18:36Z</time>
      </trkpt>
      <trkpt lat="44.46022" lon="6.71911">
        <ele>1951.13</ele>
        <time>2011-03-22T12:18:39Z</time>
      </trkpt>
      <trkpt lat="44.46059" lon="6.71921">
        <ele>1948.73</ele>
        <time>2011-03-22T12:18:43Z</time>
      </trkpt>
      <trkpt lat="44.46096" lon="6.71928">
        <ele>1944.88</ele>
        <time>2011-03-22T12:18:47Z</time>
      </trkpt>
      <trkpt lat="44.46126" lon="6.71929">
        <ele>1942.48</ele>
        <time>2011-03-22T12:18:50Z</time>
      </trkpt>
      <trkpt lat="44.46154" lon="6.71928">
        <ele>1937.67</ele>
        <time>2011-03-22T12:18:53Z</time>
      </trkpt>
      <trkpt lat="44.46162" lon="6.71929">
        <ele>1935.27</ele>
        <time>2011-03-22T12:18:54Z</time>
      </trkpt>
      <trkpt lat="44.4617" lon="6.71934">
        <ele>1931.91</ele>
        <time>2011-03-22T12:18:55Z</time>
      </trkpt>
      <trkpt lat="44.46178" lon="6.71939">
        <ele>1928.54</ele>
        <time>2011-03-22T12:18:56Z</time>
      </trkpt>
      <trkpt lat="44.46186" lon="6.71942">
        <ele>1928.06</ele>
        <time>2011-03-22T12:18:57Z</time>
      </trkpt>
      <trkpt lat="44.46194" lon="6.71947">
        <ele>1926.62</ele>
        <time>2011-03-22T12:18:58Z</time>
      </trkpt>
      <trkpt lat="44.46201" lon="6.71953">
        <ele>1924.22</ele>
        <time>2011-03-22T12:18:59Z</time>
      </trkpt>
      <trkpt lat="44.46208" lon="6.71957">
        <ele>1924.7</ele>
        <time>2011-03-22T12:19:00Z</time>
      </trkpt>
      <trkpt lat="44.46215" lon="6.71962">
        <ele>1922.29</ele>
        <time>2011-03-22T12:19:01Z</time>
      </trkpt>
      <trkpt lat="44.46221" lon="6.71967">
        <ele>1922.77</ele>
        <time>2011-03-22T12:19:02Z</time>
      </trkpt>
      <trkpt lat="44.46228" lon="6.71971">
        <ele>1921.33</ele>
        <time>2011-03-22T12:19:03Z</time>
      </trkpt>
      <trkpt lat="44.46235" lon="6.71974">
        <ele>1920.85</ele>
        <time>2011-03-22T12:19:04Z</time>
      </trkpt>
      <trkpt lat="44.46241" lon="6.71978">
        <ele>1920.85</ele>
        <time>2011-03-22T12:19:05Z</time>
      </trkpt>
      <trkpt lat="44.46255" lon="6.71986">
        <ele>1917.49</ele>
        <time>2011-03-22T12:19:07Z</time>
      </trkpt>
      <trkpt lat="44.46269" lon="6.71994">
        <ele>1915.08</ele>
        <time>2011-03-22T12:19:09Z</time>
      </trkpt>
      <trkpt lat="44.46276" lon="6.71998">
        <ele>1914.12</ele>
        <time>2011-03-22T12:19:10Z</time>
      </trkpt>
      <trkpt lat="44.46282" lon="6.72002">
        <ele>1912.68</ele>
        <time>2011-03-22T12:19:11Z</time>
      </trkpt>
      <trkpt lat="44.46289" lon="6.72006">
        <ele>1910.76</ele>
        <time>2011-03-22T12:19:12Z</time>
      </trkpt>
      <trkpt lat="44.46297" lon="6.72009">
        <ele>1909.8</ele>
        <time>2011-03-22T12:19:13Z</time>
      </trkpt>
      <trkpt lat="44.46305" lon="6.72012">
        <ele>1908.83</ele>
        <time>2011-03-22T12:19:14Z</time>
      </trkpt>
      <trkpt lat="44.4631" lon="6.72018">
        <ele>1907.39</ele>
        <time>2011-03-22T12:19:15Z</time>
      </trkpt>
      <trkpt lat="44.46315" lon="6.72026">
        <ele>1905.95</ele>
        <time>2011-03-22T12:19:16Z</time>
      </trkpt>
      <trkpt lat="44.4632" lon="6.72032">
        <ele>1905.47</ele>
        <time>2011-03-22T12:19:17Z</time>
      </trkpt>
      <trkpt lat="44.46326" lon="6.72038">
        <ele>1904.51</ele>
        <time>2011-03-22T12:19:18Z</time>
      </trkpt>
      <trkpt lat="44.46338" lon="6.72046">
        <ele>1902.59</ele>
        <time>2011-03-22T12:19:20Z</time>
      </trkpt>
      <trkpt lat="44.46344" lon="6.72048">
        <ele>1901.63</ele>
        <time>2011-03-22T12:19:21Z</time>
      </trkpt>
      <trkpt lat="44.46351" lon="6.72048">
        <ele>1901.63</ele>
        <time>2011-03-22T12:19:22Z</time>
      </trkpt>
      <trkpt lat="44.46357" lon="6.72046">
        <ele>1901.14</ele>
        <time>2011-03-22T12:19:23Z</time>
      </trkpt>
      <trkpt lat="44.46364" lon="6.72043">
        <ele>1899.22</ele>
        <time>2011-03-22T12:19:24Z</time>
      </trkpt>
      <trkpt lat="44.4637" lon="6.72041">
        <ele>1900.18</ele>
        <time>2011-03-22T12:19:25Z</time>
      </trkpt>
      <trkpt lat="44.46376" lon="6.7204">
        <ele>1898.74</ele>
        <time>2011-03-22T12:19:26Z</time>
      </trkpt>
      <trkpt lat="44.4639" lon="6.72041">
        <ele>1895.38</ele>
        <time>2011-03-22T12:19:28Z</time>
      </trkpt>
      <trkpt lat="44.46397" lon="6.72044">
        <ele>1891.53</ele>
        <time>2011-03-22T12:19:29Z</time>
      </trkpt>
      <trkpt lat="44.46404" lon="6.72048">
        <ele>1891.05</ele>
        <time>2011-03-22T12:19:30Z</time>
      </trkpt>
      <trkpt lat="44.46412" lon="6.72053">
        <ele>1886.72</ele>
        <time>2011-03-22T12:19:31Z</time>
      </trkpt>
      <trkpt lat="44.46421" lon="6.72058">
        <ele>1882.88</ele>
        <time>2011-03-22T12:19:32Z</time>
      </trkpt>
      <trkpt lat="44.4643" lon="6.72062">
        <ele>1881.92</ele>
        <time>2011-03-22T12:19:33Z</time>
      </trkpt>
      <trkpt lat="44.46439" lon="6.72069">
        <ele>1878.07</ele>
        <time>2011-03-22T12:19:34Z</time>
      </trkpt>
      <trkpt lat="44.46448" lon="6.72074">
        <ele>1875.67</ele>
        <time>2011-03-22T12:19:35Z</time>
      </trkpt>
      <trkpt lat="44.46457" lon="6.72079">
        <ele>1874.71</ele>
        <time>2011-03-22T12:19:36Z</time>
      </trkpt>
      <trkpt lat="44.46466" lon="6.72083">
        <ele>1871.82</ele>
        <time>2011-03-22T12:19:37Z</time>
      </trkpt>
      <trkpt lat="44.46476" lon="6.72082">
        <ele>1868.94</ele>
        <time>2011-03-22T12:19:38Z</time>
      </trkpt>
      <trkpt lat="44.46487" lon="6.72079">
        <ele>1869.9</ele>
        <time>2011-03-22T12:19:39Z</time>
      </trkpt>
      <trkpt lat="44.46497" lon="6.72074">
        <ele>1867.98</ele>
        <time>2011-03-22T12:19:40Z</time>
      </trkpt>
      <trkpt lat="44.46508" lon="6.72068">
        <ele>1867.5</ele>
        <time>2011-03-22T12:19:41Z</time>
      </trkpt>
      <trkpt lat="44.46516" lon="6.72062">
        <ele>1869.42</ele>
        <time>2011-03-22T12:19:42Z</time>
      </trkpt>
      <trkpt lat="44.46553" lon="6.72037">
        <ele>1866.54</ele>
        <time>2011-03-22T12:19:47Z</time>
      </trkpt>
      <trkpt lat="44.46561" lon="6.72035">
        <ele>1866.06</ele>
        <time>2011-03-22T12:19:48Z</time>
      </trkpt>
      <trkpt lat="44.46568" lon="6.72034">
        <ele>1865.09</ele>
        <time>2011-03-22T12:19:49Z</time>
      </trkpt>
      <trkpt lat="44.46576" lon="6.72034">
        <ele>1864.13</ele>
        <time>2011-03-22T12:19:50Z</time>
      </trkpt>
      <trkpt lat="44.46584" lon="6.72035">
        <ele>1861.73</ele>
        <time>2011-03-22T12:19:51Z</time>
      </trkpt>
      <trkpt lat="44.46592" lon="6.72036">
        <ele>1862.21</ele>
        <time>2011-03-22T12:19:52Z</time>
      </trkpt>
      <trkpt lat="44.46617" lon="6.72039">
        <ele>1858.85</ele>
        <time>2011-03-22T12:19:55Z</time>
      </trkpt>
      <trkpt lat="44.46625" lon="6.72042">
        <ele>1855</ele>
        <time>2011-03-22T12:19:56Z</time>
      </trkpt>
      <trkpt lat="44.46634" lon="6.72041">
        <ele>1852.6</ele>
        <time>2011-03-22T12:19:57Z</time>
      </trkpt>
      <trkpt lat="44.46642" lon="6.72038">
        <ele>1853.08</ele>
        <time>2011-03-22T12:19:58Z</time>
      </trkpt>
      <trkpt lat="44.46649" lon="6.72032">
        <ele>1852.6</ele>
        <time>2011-03-22T12:19:59Z</time>
      </trkpt>
      <trkpt lat="44.46655" lon="6.72026">
        <ele>1851.64</ele>
        <time>2011-03-22T12:20:00Z</time>
      </trkpt>
      <trkpt lat="44.46662" lon="6.72021">
        <ele>1850.19</ele>
        <time>2011-03-22T12:20:01Z</time>
      </trkpt>
      <trkpt lat="44.46669" lon="6.7202">
        <ele>1847.31</ele>
        <time>2011-03-22T12:20:02Z</time>
      </trkpt>
      <trkpt lat="44.46677" lon="6.72021">
        <ele>1844.91</ele>
        <time>2011-03-22T12:20:03Z</time>
      </trkpt>
      <trkpt lat="44.46685" lon="6.72023">
        <ele>1845.87</ele>
        <time>2011-03-22T12:20:04Z</time>
      </trkpt>
      <trkpt lat="44.46691" lon="6.72027">
        <ele>1844.43</ele>
        <time>2011-03-22T12:20:05Z</time>
      </trkpt>
      <trkpt lat="44.46706" lon="6.72052">
        <ele>1840.1</ele>
        <time>2011-03-22T12:20:08Z</time>
      </trkpt>
      <trkpt lat="44.46711" lon="6.72059">
        <ele>1840.58</ele>
        <time>2011-03-22T12:20:09Z</time>
      </trkpt>
      <trkpt lat="44.46717" lon="6.72075">
        <ele>1837.22</ele>
        <time>2011-03-22T12:20:11Z</time>
      </trkpt>
      <trkpt lat="44.46719" lon="6.7208">
        <ele>1836.74</ele>
        <time>2011-03-22T12:20:12Z</time>
      </trkpt>
      <trkpt lat="44.46721" lon="6.72083">
        <ele>1836.26</ele>
        <time>2011-03-22T12:20:20Z</time>
      </trkpt>
      <trkpt lat="44.46721" lon="6.72083">
        <ele>1836.26</ele>
        <time>2011-03-22T12:20:33Z</time>
      </trkpt>
      <trkpt lat="44.46721" lon="6.72083">
        <ele>1836.74</ele>
        <time>2011-03-22T12:20:47Z</time>
      </trkpt>
      <trkpt lat="44.4672" lon="6.72078">
        <ele>1836.74</ele>
        <time>2011-03-22T12:20:58Z</time>
      </trkpt>
      <trkpt lat="44.4672" lon="6.72078">
        <ele>1837.22</ele>
        <time>2011-03-22T12:21:00Z</time>
      </trkpt>
      <trkpt lat="44.46729" lon="6.72073">
        <ele>1834.81</ele>
        <time>2011-03-22T12:21:06Z</time>
      </trkpt>
      <trkpt lat="44.4673" lon="6.72084">
        <ele>1833.37</ele>
        <time>2011-03-22T12:21:09Z</time>
      </trkpt>
      <trkpt lat="44.46733" lon="6.72094">
        <ele>1830.01</ele>
        <time>2011-03-22T12:21:18Z</time>
      </trkpt>
      <trkpt lat="44.46733" lon="6.72094">
        <ele>1834.33</ele>
        <time>2011-03-22T12:21:19Z</time>
      </trkpt>
      <trkpt lat="44.46733" lon="6.72094">
        <ele>1831.93</ele>
        <time>2011-03-22T12:21:38Z</time>
      </trkpt>
      <trkpt lat="44.46733" lon="6.72094">
        <ele>1832.89</ele>
        <time>2011-03-22T12:21:54Z</time>
      </trkpt>
      <trkpt lat="44.46733" lon="6.72094">
        <ele>1832.89</ele>
        <time>2011-03-22T12:22:06Z</time>
      </trkpt>
      <trkpt lat="44.46733" lon="6.72094">
        <ele>1832.41</ele>
        <time>2011-03-22T12:22:27Z</time>
      </trkpt>
      <trkpt lat="44.46733" lon="6.72094">
        <ele>1832.89</ele>
        <time>2011-03-22T12:22:43Z</time>
      </trkpt>
      <trkpt lat="44.46733" lon="6.72094">
        <ele>1832.41</ele>
        <time>2011-03-22T12:23:06Z</time>
      </trkpt>
      <trkpt lat="44.46733" lon="6.72093">
        <ele>1831.93</ele>
        <time>2011-03-22T12:23:24Z</time>
      </trkpt>
      <trkpt lat="44.46733" lon="6.72093">
        <ele>1834.33</ele>
        <time>2011-03-22T12:23:50Z</time>
      </trkpt>
      <trkpt lat="44.46734" lon="6.72093">
        <ele>1832.89</ele>
        <time>2011-03-22T12:24:13Z</time>
      </trkpt>
      <trkpt lat="44.46734" lon="6.72093">
        <ele>1828.56</ele>
        <time>2011-03-22T12:24:19Z</time>
      </trkpt>
      <trkpt lat="44.46734" lon="6.72093">
        <ele>1833.37</ele>
        <time>2011-03-22T12:24:20Z</time>
      </trkpt>
    </trkseg>
  </trk>
</gpx>